Wetterdaten: Dienstag, 29.05.2018
Datum Zeit Temp. A. Pool Temp. Feuchte A. Luftdruck Regen Wind Richtung Richtung Sonnenschein ET UV Solar Taupunkt Windchill Windben Empfang
29.05.2018 00:00 20,5 C 23,9 C 78 % 1013,4 hPa 0,0 l/m 7,8 km/h (2 Bft) O-SO 112 0 min 0,000 mm 0,0 UV-I 0 W/m 16,5 C 20,0 C 11,3 km/h (2 Bft) 97,14 %
29.05.2018 00:01 20,5 C 23,9 C 77 % 1013,4 hPa 0,0 l/m 6,4 km/h (2 Bft) O 90 0 min 0,000 mm 0,0 UV-I 0 W/m 16,3 C 20,5 C 9,7 km/h (2 Bft) 97,14 %
29.05.2018 00:02 20,6 C 23,9 C 77 % 1013,4 hPa 0,0 l/m 6,4 km/h (2 Bft) O 87 0 min 0,000 mm 0,0 UV-I 0 W/m 16,4 C 20,6 C 9,7 km/h (2 Bft) 90,70 %
29.05.2018 00:03 20,6 C 23,9 C 77 % 1013,4 hPa 0,0 l/m 6,6 km/h (2 Bft) O 101 0 min 0,000 mm 0,0 UV-I 0 W/m 16,4 C 20,5 C 9,7 km/h (2 Bft) 95,83 %
29.05.2018 00:04 20,6 C 23,9 C 77 % 1013,4 hPa 0,0 l/m 6,9 km/h (2 Bft) O 101 0 min 0,000 mm 0,0 UV-I 0 W/m 16,4 C 20,4 C 11,3 km/h (2 Bft) 100,00 %
29.05.2018 00:05 20,6 C 23,9 C 77 % 1013,4 hPa 0,0 l/m 7,4 km/h (2 Bft) O-SO 103 0 min 0,000 mm 0,0 UV-I 0 W/m 16,4 C 20,2 C 11,3 km/h (2 Bft) 95,83 %
29.05.2018 00:06 20,7 C 23,9 C 77 % 1013,4 hPa 0,0 l/m 6,8 km/h (2 Bft) O 96 0 min 0,000 mm 0,0 UV-I 0 W/m 16,5 C 20,5 C 9,7 km/h (2 Bft) 95,65 %
29.05.2018 00:07 20,7 C 23,9 C 77 % 1013,4 hPa 0,0 l/m 6,5 km/h (2 Bft) O 94 0 min 0,000 mm 0,0 UV-I 0 W/m 16,5 C 20,7 C 9,7 km/h (2 Bft) 95,83 %
29.05.2018 00:08 20,7 C 23,9 C 77 % 1013,4 hPa 0,0 l/m 7,3 km/h (2 Bft) O 96 0 min 0,000 mm 0,0 UV-I 0 W/m 16,5 C 20,4 C 9,7 km/h (2 Bft) 100,00 %
29.05.2018 00:09 20,7 C 23,9 C 77 % 1013,4 hPa 0,0 l/m 6,9 km/h (2 Bft) O 93 0 min 0,000 mm 0,0 UV-I 0 W/m 16,5 C 20,5 C 11,3 km/h (2 Bft) 91,67 %
29.05.2018 00:10 20,7 C 23,9 C 77 % 1013,4 hPa 0,0 l/m 8,0 km/h (2 Bft) O 88 0 min 0,000 mm 0,0 UV-I 0 W/m 16,5 C 20,1 C 11,3 km/h (2 Bft) 100,00 %
29.05.2018 00:11 20,6 C 23,9 C 77 % 1013,3 hPa 0,0 l/m 6,9 km/h (2 Bft) O 101 0 min 0,000 mm 0,0 UV-I 0 W/m 16,4 C 20,4 C 11,3 km/h (2 Bft) 95,83 %
29.05.2018 00:12 20,6 C 23,9 C 77 % 1013,3 hPa 0,0 l/m 6,0 km/h (2 Bft) O 87 0 min 0,000 mm 0,0 UV-I 0 W/m 16,4 C 20,6 C 9,7 km/h (2 Bft) 91,30 %
29.05.2018 00:13 20,6 C 23,9 C 77 % 1013,3 hPa 0,0 l/m 6,3 km/h (2 Bft) O-NO 78 0 min 0,000 mm 0,0 UV-I 0 W/m 16,4 C 20,6 C 9,7 km/h (2 Bft) 100,00 %
29.05.2018 00:14 20,6 C 23,9 C 77 % 1013,3 hPa 0,0 l/m 6,6 km/h (2 Bft) O 94 0 min 0,000 mm 0,0 UV-I 0 W/m 16,4 C 20,5 C 9,7 km/h (2 Bft) 86,96 %
29.05.2018 00:15 20,6 C 23,9 C 77 % 1013,4 hPa 0,0 l/m 7,8 km/h (2 Bft) O-NO 78 0 min 0,000 mm 0,0 UV-I 0 W/m 16,4 C 20,1 C 11,3 km/h (2 Bft) 100,00 %
29.05.2018 00:16 20,6 C 23,9 C 76 % 1013,4 hPa 0,0 l/m 6,4 km/h (2 Bft) O 82 0 min 0,000 mm 0,0 UV-I 0 W/m 16,2 C 20,6 C 9,7 km/h (2 Bft) 95,65 %
29.05.2018 00:17 20,5 C 23,9 C 77 % 1013,4 hPa 0,0 l/m 6,4 km/h (2 Bft) O-NO 65 0 min 0,000 mm 0,0 UV-I 0 W/m 16,3 C 20,5 C 8,0 km/h (2 Bft) 100,00 %
29.05.2018 00:18 20,5 C 23,9 C 77 % 1013,4 hPa 0,0 l/m 6,6 km/h (2 Bft) O 97 0 min 0,000 mm 0,0 UV-I 0 W/m 16,3 C 20,4 C 11,3 km/h (2 Bft) 95,83 %
29.05.2018 00:19 20,4 C 23,9 C 77 % 1013,4 hPa 0,0 l/m 8,2 km/h (2 Bft) O 101 0 min 0,000 mm 0,0 UV-I 0 W/m 16,2 C 19,7 C 11,3 km/h (2 Bft) 100,00 %
29.05.2018 00:20 20,4 C 23,9 C 77 % 1013,4 hPa 0,0 l/m 7,8 km/h (2 Bft) O-SO 102 0 min 0,000 mm 0,0 UV-I 0 W/m 16,2 C 19,8 C 9,7 km/h (2 Bft) 95,83 %
29.05.2018 00:21 20,4 C 23,9 C 77 % 1013,4 hPa 0,0 l/m 8,3 km/h (2 Bft) O-SO 107 0 min 0,000 mm 0,0 UV-I 0 W/m 16,2 C 19,7 C 11,3 km/h (2 Bft) 95,65 %
29.05.2018 00:22 20,3 C 23,9 C 77 % 1013,4 hPa 0,0 l/m 7,1 km/h (2 Bft) O 94 0 min 0,000 mm 0,0 UV-I 0 W/m 16,1 C 20,0 C 11,3 km/h (2 Bft) 100,00 %
29.05.2018 00:23 20,3 C 23,9 C 78 % 1013,3 hPa 0,0 l/m 8,0 km/h (2 Bft) O 92 0 min 0,000 mm 0,0 UV-I 0 W/m 16,3 C 19,7 C 11,3 km/h (2 Bft) 91,30 %
29.05.2018 00:24 20,3 C 23,9 C 78 % 1013,3 hPa 0,0 l/m 6,9 km/h (2 Bft) O 96 0 min 0,000 mm 0,0 UV-I 0 W/m 16,3 C 20,1 C 9,7 km/h (2 Bft) 100,00 %
29.05.2018 00:25 20,3 C 23,9 C 78 % 1013,3 hPa 0,0 l/m 6,8 km/h (2 Bft) O 99 0 min 0,000 mm 0,0 UV-I 0 W/m 16,3 C 20,1 C 9,7 km/h (2 Bft) 96,15 %
29.05.2018 00:26 20,3 C 23,9 C 78 % 1013,3 hPa 0,0 l/m 7,0 km/h (2 Bft) O 96 0 min 0,000 mm 0,0 UV-I 0 W/m 16,3 C 20,1 C 9,7 km/h (2 Bft) 100,00 %
29.05.2018 00:27 20,3 C 23,9 C 78 % 1013,3 hPa 0,0 l/m 7,5 km/h (2 Bft) O-SO 102 0 min 0,000 mm 0,0 UV-I 0 W/m 16,3 C 19,9 C 9,7 km/h (2 Bft) 91,30 %
29.05.2018 00:28 20,3 C 23,9 C 78 % 1013,3 hPa 0,0 l/m 7,8 km/h (2 Bft) O 92 0 min 0,000 mm 0,0 UV-I 0 W/m 16,3 C 19,7 C 9,7 km/h (2 Bft) 95,83 %
29.05.2018 00:29 20,2 C 23,9 C 78 % 1013,3 hPa 0,0 l/m 8,3 km/h (2 Bft) O 94 0 min 0,000 mm 0,0 UV-I 0 W/m 16,2 C 19,4 C 9,7 km/h (2 Bft) 100,00 %
29.05.2018 00:30 20,2 C 23,9 C 78 % 1013,3 hPa 0,0 l/m 7,8 km/h (2 Bft) O-SO 105 0 min 0,000 mm 0,0 UV-I 0 W/m 16,2 C 19,6 C 9,7 km/h (2 Bft) 95,83 %
29.05.2018 00:31 20,2 C 23,9 C 78 % 1013,2 hPa 0,0 l/m 6,8 km/h (2 Bft) O 94 0 min 0,000 mm 0,0 UV-I 0 W/m 16,2 C 20,0 C 9,7 km/h (2 Bft) 100,00 %
29.05.2018 00:32 20,2 C 23,9 C 78 % 1013,2 hPa 0,0 l/m 7,8 km/h (2 Bft) O 97 0 min 0,000 mm 0,0 UV-I 0 W/m 16,2 C 19,6 C 11,3 km/h (2 Bft) 95,83 %
29.05.2018 00:33 20,2 C 23,9 C 77 % 1013,2 hPa 0,0 l/m 6,8 km/h (2 Bft) O-SO 103 0 min 0,000 mm 0,0 UV-I 0 W/m 16,0 C 20,0 C 9,7 km/h (2 Bft) 100,00 %
29.05.2018 00:34 20,2 C 23,9 C 77 % 1013,2 hPa 0,0 l/m 6,6 km/h (2 Bft) O-SO 113 0 min 0,000 mm 0,0 UV-I 0 W/m 16,0 C 20,1 C 9,7 km/h (2 Bft) 95,83 %
29.05.2018 00:35 20,2 C 23,9 C 77 % 1013,2 hPa 0,0 l/m 5,9 km/h (2 Bft) O 100 0 min 0,000 mm 0,0 UV-I 0 W/m 16,0 C 20,2 C 6,4 km/h (2 Bft) 100,00 %
29.05.2018 00:36 20,3 C 23,9 C 77 % 1013,2 hPa 0,0 l/m 8,4 km/h (2 Bft) O-SO 105 0 min 0,000 mm 0,0 UV-I 0 W/m 16,1 C 19,5 C 11,3 km/h (2 Bft) 96,15 %
29.05.2018 00:37 20,3 C 23,9 C 77 % 1013,2 hPa 0,0 l/m 6,6 km/h (2 Bft) O-SO 103 0 min 0,000 mm 0,0 UV-I 0 W/m 16,1 C 20,2 C 9,7 km/h (2 Bft) 100,00 %
29.05.2018 00:38 20,3 C 23,9 C 76 % 1013,2 hPa 0,0 l/m 6,6 km/h (2 Bft) O-SO 106 0 min 0,000 mm 0,0 UV-I 0 W/m 15,9 C 20,2 C 9,7 km/h (2 Bft) 95,65 %
29.05.2018 00:39 20,4 C 23,9 C 76 % 1013,2 hPa 0,0 l/m 4,8 km/h (1 Bft) O 92 0 min 0,000 mm 0,0 UV-I 0 W/m 16,0 C 20,4 C 8,0 km/h (2 Bft) 100,00 %
29.05.2018 00:40 20,4 C 23,9 C 76 % 1013,2 hPa 0,0 l/m 5,2 km/h (1 Bft) O-SO 105 0 min 0,000 mm 0,0 UV-I 0 W/m 16,0 C 20,4 C 6,4 km/h (2 Bft) 91,30 %
29.05.2018 00:41 20,4 C 23,9 C 76 % 1013,2 hPa 0,0 l/m 6,0 km/h (2 Bft) O 95 0 min 0,000 mm 0,0 UV-I 0 W/m 16,0 C 20,4 C 9,7 km/h (2 Bft) 100,00 %
29.05.2018 00:42 20,4 C 23,9 C 76 % 1013,2 hPa 0,0 l/m 6,0 km/h (2 Bft) O 94 0 min 0,000 mm 0,0 UV-I 0 W/m 16,0 C 20,4 C 9,7 km/h (2 Bft) 95,65 %
29.05.2018 00:43 20,3 C 23,9 C 76 % 1013,2 hPa 0,0 l/m 5,7 km/h (1 Bft) O 95 0 min 0,000 mm 0,0 UV-I 0 W/m 15,9 C 20,3 C 9,7 km/h (2 Bft) 95,83 %
29.05.2018 00:44 20,3 C 23,9 C 76 % 1013,2 hPa 0,0 l/m 6,5 km/h (2 Bft) O 92 0 min 0,000 mm 0,0 UV-I 0 W/m 15,9 C 20,3 C 11,3 km/h (2 Bft) 100,00 %
29.05.2018 00:45 20,3 C 23,9 C 77 % 1013,2 hPa 0,0 l/m 7,2 km/h (2 Bft) O 92 0 min 0,000 mm 0,0 UV-I 0 W/m 16,1 C 20,0 C 11,3 km/h (2 Bft) 95,83 %
29.05.2018 00:46 20,3 C 23,9 C 77 % 1013,2 hPa 0,0 l/m 6,9 km/h (2 Bft) O 90 0 min 0,000 mm 0,0 UV-I 0 W/m 16,1 C 20,1 C 9,7 km/h (2 Bft) 96,15 %
29.05.2018 00:47 20,2 C 23,9 C 77 % 1013,2 hPa 0,0 l/m 6,3 km/h (2 Bft) O 100 0 min 0,000 mm 0,0 UV-I 0 W/m 16,0 C 20,2 C 9,7 km/h (2 Bft) 95,83 %
29.05.2018 00:48 20,2 C 23,9 C 77 % 1013,2 hPa 0,0 l/m 6,4 km/h (2 Bft) O 99 0 min 0,000 mm 0,0 UV-I 0 W/m 16,0 C 20,2 C 9,7 km/h (2 Bft) 100,00 %
29.05.2018 00:49 20,2 C 23,9 C 77 % 1013,2 hPa 0,0 l/m 6,1 km/h (2 Bft) O 90 0 min 0,000 mm 0,0 UV-I 0 W/m 16,0 C 20,2 C 9,7 km/h (2 Bft) 95,83 %
29.05.2018 00:50 20,2 C 23,9 C 77 % 1013,2 hPa 0,0 l/m 5,6 km/h (1 Bft) O 101 0 min 0,000 mm 0,0 UV-I 0 W/m 16,0 C 20,2 C 6,4 km/h (2 Bft) 95,65 %
29.05.2018 00:51 20,2 C 23,9 C 77 % 1013,2 hPa 0,0 l/m 5,6 km/h (1 Bft) O 84 0 min 0,000 mm 0,0 UV-I 0 W/m 16,0 C 20,2 C 6,4 km/h (2 Bft) 100,00 %
29.05.2018 00:52 20,2 C 23,9 C 77 % 1013,2 hPa 0,0 l/m 5,2 km/h (1 Bft) O 95 0 min 0,000 mm 0,0 UV-I 0 W/m 16,0 C 20,2 C 6,4 km/h (2 Bft) 91,30 %
29.05.2018 00:53 20,1 C 23,9 C 77 % 1013,2 hPa 0,0 l/m 5,8 km/h (2 Bft) O 86 0 min 0,000 mm 0,0 UV-I 0 W/m 15,9 C 20,1 C 6,4 km/h (2 Bft) 100,00 %
29.05.2018 00:54 20,1 C 23,9 C 77 % 1013,2 hPa 0,0 l/m 5,8 km/h (2 Bft) O 84 0 min 0,000 mm 0,0 UV-I 0 W/m 15,9 C 20,1 C 6,4 km/h (2 Bft) 95,65 %
29.05.2018 00:55 20,1 C 23,9 C 77 % 1013,1 hPa 0,0 l/m 5,8 km/h (2 Bft) O-NO 77 0 min 0,000 mm 0,0 UV-I 0 W/m 15,9 C 20,1 C 8,0 km/h (2 Bft) 100,00 %
29.05.2018 00:56 20,0 C 23,9 C 77 % 1013,2 hPa 0,0 l/m 5,5 km/h (1 Bft) O-NO 74 0 min 0,000 mm 0,0 UV-I 0 W/m 15,8 C 20,0 C 8,0 km/h (2 Bft) 95,65 %
29.05.2018 00:57 19,9 C 23,9 C 77 % 1013,1 hPa 0,0 l/m 5,8 km/h (2 Bft) O 80 0 min 0,000 mm 0,0 UV-I 0 W/m 15,7 C 19,9 C 8,0 km/h (2 Bft) 100,00 %
29.05.2018 00:58 19,9 C 23,9 C 78 % 1013,1 hPa 0,0 l/m 5,5 km/h (1 Bft) O 97 0 min 0,000 mm 0,0 UV-I 0 W/m 15,9 C 19,9 C 9,7 km/h (2 Bft) 95,65 %
29.05.2018 00:59 19,9 C 23,9 C 78 % 1013,1 hPa 0,0 l/m 7,8 km/h (2 Bft) O 89 0 min 0,000 mm 0,0 UV-I 0 W/m 15,9 C 19,3 C 11,3 km/h (2 Bft) 100,00 %
29.05.2018 01:00 19,9 C 23,9 C 78 % 1013,1 hPa 0,0 l/m 7,5 km/h (2 Bft) O 97 0 min 0,000 mm 0,0 UV-I 0 W/m 15,9 C 19,4 C 11,3 km/h (2 Bft) 93,33 %
29.05.2018 01:01 19,9 C 23,9 C 78 % 1013,1 hPa 0,0 l/m 8,1 km/h (2 Bft) O 95 0 min 0,025 mm 0,0 UV-I 0 W/m 15,9 C 19,2 C 11,3 km/h (2 Bft) 100,00 %
29.05.2018 01:02 19,8 C 23,9 C 78 % 1013,1 hPa 0,0 l/m 7,8 km/h (2 Bft) O 98 0 min 0,000 mm 0,0 UV-I 0 W/m 15,8 C 19,2 C 11,3 km/h (2 Bft) 95,83 %
29.05.2018 01:03 19,8 C 23,9 C 78 % 1013,1 hPa 0,0 l/m 9,3 km/h (2 Bft) O 86 0 min 0,000 mm 0,0 UV-I 0 W/m 15,8 C 18,7 C 11,3 km/h (2 Bft) 95,65 %
29.05.2018 01:04 19,8 C 23,9 C 78 % 1013,1 hPa 0,0 l/m 6,8 km/h (2 Bft) O 89 0 min 0,000 mm 0,0 UV-I 0 W/m 15,8 C 19,6 C 9,7 km/h (2 Bft) 95,83 %
29.05.2018 01:05 19,8 C 23,9 C 78 % 1013,1 hPa 0,0 l/m 8,1 km/h (2 Bft) O 93 0 min 0,000 mm 0,0 UV-I 0 W/m 15,8 C 19,1 C 11,3 km/h (2 Bft) 95,65 %
29.05.2018 01:06 19,8 C 23,9 C 78 % 1013,0 hPa 0,0 l/m 7,8 km/h (2 Bft) O 92 0 min 0,000 mm 0,0 UV-I 0 W/m 15,8 C 19,2 C 11,3 km/h (2 Bft) 100,00 %
29.05.2018 01:07 19,8 C 23,9 C 78 % 1013,0 hPa 0,0 l/m 7,5 km/h (2 Bft) O 98 0 min 0,000 mm 0,0 UV-I 0 W/m 15,8 C 19,3 C 11,3 km/h (2 Bft) 95,65 %
29.05.2018 01:08 19,8 C 23,9 C 78 % 1013,0 hPa 0,0 l/m 7,6 km/h (2 Bft) O-NO 77 0 min 0,000 mm 0,0 UV-I 0 W/m 15,8 C 19,3 C 11,3 km/h (2 Bft) 100,00 %
29.05.2018 01:09 19,8 C 23,9 C 78 % 1012,9 hPa 0,0 l/m 6,9 km/h (2 Bft) O 82 0 min 0,000 mm 0,0 UV-I 0 W/m 15,8 C 19,6 C 11,3 km/h (2 Bft) 95,83 %
29.05.2018 01:10 19,8 C 23,9 C 78 % 1012,9 hPa 0,0 l/m 5,9 km/h (2 Bft) O-NO 78 0 min 0,000 mm 0,0 UV-I 0 W/m 15,8 C 19,8 C 9,7 km/h (2 Bft) 100,00 %
29.05.2018 01:11 19,8 C 23,9 C 78 % 1012,9 hPa 0,0 l/m 7,5 km/h (2 Bft) O-NO 78 0 min 0,000 mm 0,0 UV-I 0 W/m 15,8 C 19,3 C 11,3 km/h (2 Bft) 95,65 %
29.05.2018 01:12 19,8 C 23,9 C 78 % 1012,9 hPa 0,0 l/m 8,6 km/h (2 Bft) O 80 0 min 0,000 mm 0,0 UV-I 0 W/m 15,8 C 18,9 C 11,3 km/h (2 Bft) 100,00 %
29.05.2018 01:13 19,8 C 23,9 C 78 % 1012,9 hPa 0,0 l/m 7,1 km/h (2 Bft) O 88 0 min 0,000 mm 0,0 UV-I 0 W/m 15,8 C 19,5 C 11,3 km/h (2 Bft) 95,65 %
29.05.2018 01:14 19,7 C 23,9 C 78 % 1012,9 hPa 0,0 l/m 7,0 km/h (2 Bft) O 80 0 min 0,000 mm 0,0 UV-I 0 W/m 15,8 C 19,5 C 9,7 km/h (2 Bft) 95,83 %
29.05.2018 01:15 19,7 C 23,9 C 78 % 1012,9 hPa 0,0 l/m 7,2 km/h (2 Bft) O 86 0 min 0,000 mm 0,0 UV-I 0 W/m 15,8 C 19,4 C 9,7 km/h (2 Bft) 100,00 %
29.05.2018 01:16 19,7 C 23,9 C 78 % 1012,9 hPa 0,0 l/m 7,3 km/h (2 Bft) O-NO 74 0 min 0,000 mm 0,0 UV-I 0 W/m 15,8 C 19,3 C 11,3 km/h (2 Bft) 95,83 %
29.05.2018 01:17 19,7 C 23,9 C 78 % 1012,9 hPa 0,0 l/m 7,9 km/h (2 Bft) O 92 0 min 0,000 mm 0,0 UV-I 0 W/m 15,8 C 19,1 C 11,3 km/h (2 Bft) 100,00 %
29.05.2018 01:18 19,6 C 23,9 C 78 % 1012,9 hPa 0,0 l/m 7,8 km/h (2 Bft) O-NO 74 0 min 0,000 mm 0,0 UV-I 0 W/m 15,7 C 19,0 C 11,3 km/h (2 Bft) 100,00 %
29.05.2018 01:19 19,6 C 23,9 C 78 % 1012,9 hPa 0,0 l/m 7,9 km/h (2 Bft) O 80 0 min 0,000 mm 0,0 UV-I 0 W/m 15,7 C 19,0 C 12,9 km/h (3 Bft) 100,00 %
29.05.2018 01:20 19,6 C 23,9 C 78 % 1012,9 hPa 0,0 l/m 9,7 km/h (2 Bft) O 96 0 min 0,000 mm 0,0 UV-I 0 W/m 15,7 C 18,3 C 12,9 km/h (3 Bft) 100,00 %
29.05.2018 01:21 19,6 C 23,9 C 78 % 1012,9 hPa 0,0 l/m 9,7 km/h (2 Bft) O-SO 105 0 min 0,000 mm 0,0 UV-I 0 W/m 15,7 C 18,3 C 12,9 km/h (3 Bft) 100,00 %
29.05.2018 01:22 19,6 C 23,9 C 78 % 1012,9 hPa 0,0 l/m 11,5 km/h (2 Bft) O 84 0 min 0,000 mm 0,0 UV-I 0 W/m 15,7 C 17,7 C 14,5 km/h (3 Bft) 100,00 %
29.05.2018 01:23 19,6 C 23,9 C 78 % 1012,9 hPa 0,0 l/m 9,3 km/h (2 Bft) O-SO 106 0 min 0,000 mm 0,0 UV-I 0 W/m 15,7 C 18,4 C 12,9 km/h (3 Bft) 100,00 %
29.05.2018 01:24 19,7 C 23,9 C 77 % 1012,9 hPa 0,0 l/m 9,8 km/h (2 Bft) O 98 0 min 0,000 mm 0,0 UV-I 0 W/m 15,5 C 18,4 C 14,5 km/h (3 Bft) 100,00 %
29.05.2018 01:25 19,7 C 23,9 C 77 % 1012,9 hPa 0,0 l/m 10,5 km/h (2 Bft) O 96 0 min 0,000 mm 0,0 UV-I 0 W/m 15,5 C 18,1 C 12,9 km/h (3 Bft) 100,00 %
29.05.2018 01:26 19,7 C 23,9 C 77 % 1012,8 hPa 0,0 l/m 9,7 km/h (2 Bft) O-SO 107 0 min 0,000 mm 0,0 UV-I 0 W/m 15,5 C 18,4 C 11,3 km/h (2 Bft) 100,00 %
29.05.2018 01:27 19,8 C 23,9 C 77 % 1012,8 hPa 0,0 l/m 9,2 km/h (2 Bft) O 99 0 min 0,000 mm 0,0 UV-I 0 W/m 15,6 C 18,7 C 12,9 km/h (3 Bft) 100,00 %
29.05.2018 01:28 19,8 C 23,9 C 77 % 1012,9 hPa 0,0 l/m 8,0 km/h (2 Bft) O 101 0 min 0,000 mm 0,0 UV-I 0 W/m 15,6 C 19,1 C 11,3 km/h (2 Bft) 100,00 %
29.05.2018 01:29 19,8 C 23,9 C 76 % 1012,9 hPa 0,0 l/m 11,7 km/h (2 Bft) O 90 0 min 0,000 mm 0,0 UV-I 0 W/m 15,4 C 17,9 C 16,1 km/h (3 Bft) 95,83 %
29.05.2018 01:30 19,8 C 23,9 C 76 % 1012,8 hPa 0,0 l/m 8,2 km/h (2 Bft) O 92 0 min 0,000 mm 0,0 UV-I 0 W/m 15,4 C 19,1 C 12,9 km/h (3 Bft) 100,00 %
29.05.2018 01:31 19,9 C 23,9 C 76 % 1012,9 hPa 0,0 l/m 8,1 km/h (2 Bft) O 84 0 min 0,000 mm 0,0 UV-I 0 W/m 15,5 C 19,2 C 11,3 km/h (2 Bft) 100,00 %
29.05.2018 01:32 19,9 C 23,9 C 76 % 1012,9 hPa 0,0 l/m 8,7 km/h (2 Bft) O 88 0 min 0,000 mm 0,0 UV-I 0 W/m 15,5 C 19,0 C 11,3 km/h (2 Bft) 100,00 %
29.05.2018 01:33 19,9 C 23,9 C 76 % 1012,9 hPa 0,0 l/m 6,0 km/h (2 Bft) O-SO 111 0 min 0,000 mm 0,0 UV-I 0 W/m 15,5 C 19,9 C 9,7 km/h (2 Bft) 100,00 %
29.05.2018 01:34 19,9 C 23,9 C 76 % 1012,9 hPa 0,0 l/m 8,0 km/h (2 Bft) O 86 0 min 0,000 mm 0,0 UV-I 0 W/m 15,5 C 19,2 C 11,3 km/h (2 Bft) 95,65 %
29.05.2018 01:35 19,8 C 23,9 C 76 % 1012,9 hPa 0,0 l/m 7,8 km/h (2 Bft) O-SO 105 0 min 0,000 mm 0,0 UV-I 0 W/m 15,4 C 19,2 C 11,3 km/h (2 Bft) 100,00 %
29.05.2018 01:36 19,8 C 23,9 C 76 % 1012,9 hPa 0,0 l/m 6,8 km/h (2 Bft) O 92 0 min 0,000 mm 0,0 UV-I 0 W/m 15,4 C 19,6 C 9,7 km/h (2 Bft) 100,00 %
29.05.2018 01:37 19,7 C 23,9 C 76 % 1012,9 hPa 0,0 l/m 6,6 km/h (2 Bft) O 93 0 min 0,000 mm 0,0 UV-I 0 W/m 15,3 C 19,6 C 9,7 km/h (2 Bft) 100,00 %
29.05.2018 01:38 19,7 C 23,9 C 77 % 1012,9 hPa 0,0 l/m 5,3 km/h (1 Bft) O-NO 73 0 min 0,000 mm 0,0 UV-I 0 W/m 15,5 C 19,7 C 6,4 km/h (2 Bft) 91,30 %
29.05.2018 01:39 19,6 C 23,9 C 77 % 1012,9 hPa 0,0 l/m 5,7 km/h (1 Bft) O 92 0 min 0,000 mm 0,0 UV-I 0 W/m 15,5 C 19,6 C 9,7 km/h (2 Bft) 100,00 %
29.05.2018 01:40 19,6 C 23,9 C 77 % 1012,9 hPa 0,0 l/m 6,0 km/h (2 Bft) O 92 0 min 0,000 mm 0,0 UV-I 0 W/m 15,5 C 19,6 C 9,7 km/h (2 Bft) 95,83 %
29.05.2018 01:41 19,5 C 23,9 C 77 % 1012,9 hPa 0,0 l/m 6,2 km/h (2 Bft) O 88 0 min 0,000 mm 0,0 UV-I 0 W/m 15,4 C 19,5 C 9,7 km/h (2 Bft) 100,00 %
29.05.2018 01:42 19,4 C 23,9 C 78 % 1012,9 hPa 0,0 l/m 5,2 km/h (1 Bft) O 94 0 min 0,000 mm 0,0 UV-I 0 W/m 15,5 C 19,4 C 6,4 km/h (2 Bft) 91,67 %
29.05.2018 01:43 19,4 C 23,9 C 78 % 1012,9 hPa 0,0 l/m 5,3 km/h (1 Bft) O-NO 75 0 min 0,000 mm 0,0 UV-I 0 W/m 15,5 C 19,4 C 6,4 km/h (2 Bft) 100,00 %
29.05.2018 01:44 19,4 C 23,9 C 78 % 1012,9 hPa 0,0 l/m 4,8 km/h (1 Bft) O-NO 77 0 min 0,000 mm 0,0 UV-I 0 W/m 15,5 C 19,4 C 4,8 km/h (1 Bft) 95,83 %
29.05.2018 01:45 19,3 C 23,9 C 78 % 1012,9 hPa 0,0 l/m 4,8 km/h (1 Bft) O-NO 77 0 min 0,000 mm 0,0 UV-I 0 W/m 15,4 C 19,3 C 6,4 km/h (2 Bft) 100,00 %
29.05.2018 01:46 19,3 C 23,9 C 78 % 1012,9 hPa 0,0 l/m 5,8 km/h (2 Bft) O 88 0 min 0,000 mm 0,0 UV-I 0 W/m 15,4 C 19,3 C 8,0 km/h (2 Bft) 100,00 %
29.05.2018 01:47 19,3 C 23,9 C 78 % 1012,9 hPa 0,0 l/m 5,8 km/h (2 Bft) O 91 0 min 0,000 mm 0,0 UV-I 0 W/m 15,4 C 19,3 C 8,0 km/h (2 Bft) 95,65 %
29.05.2018 01:48 19,3 C 23,9 C 78 % 1012,9 hPa 0,0 l/m 4,7 km/h (1 Bft) O 94 0 min 0,000 mm 0,0 UV-I 0 W/m 15,4 C 19,3 C 6,4 km/h (2 Bft) 100,00 %
29.05.2018 01:49 19,3 C 23,9 C 78 % 1012,9 hPa 0,0 l/m 4,8 km/h (1 Bft) O 96 0 min 0,000 mm 0,0 UV-I 0 W/m 15,4 C 19,3 C 6,4 km/h (2 Bft) 97,43 %
29.05.2018 01:50 19,3 C 23,9 C 78 % 1012,9 hPa 0,0 l/m 7,0 km/h (2 Bft) O 86 0 min 0,000 mm 0,0 UV-I 0 W/m 15,4 C 19,0 C 9,7 km/h (2 Bft) 97,37 %
29.05.2018 01:51 19,3 C 23,9 C 78 % 1012,9 hPa 0,0 l/m 5,6 km/h (1 Bft) O-NO 76 0 min 0,000 mm 0,0 UV-I 0 W/m 15,4 C 19,3 C 6,4 km/h (2 Bft) 96,15 %
29.05.2018 01:52 19,3 C 23,9 C 78 % 1012,9 hPa 0,0 l/m 5,7 km/h (1 Bft) O-NO 78 0 min 0,000 mm 0,0 UV-I 0 W/m 15,4 C 19,3 C 6,4 km/h (2 Bft) 100,00 %
29.05.2018 01:53 19,2 C 23,9 C 78 % 1012,9 hPa 0,0 l/m 5,4 km/h (1 Bft) O 79 0 min 0,000 mm 0,0 UV-I 0 W/m 15,3 C 19,2 C 6,4 km/h (2 Bft) 95,65 %
29.05.2018 01:54 19,2 C 23,9 C 79 % 1012,9 hPa 0,0 l/m 5,3 km/h (1 Bft) O-NO 77 0 min 0,000 mm 0,0 UV-I 0 W/m 15,5 C 19,2 C 6,4 km/h (2 Bft) 100,00 %
29.05.2018 01:55 19,1 C 23,9 C 79 % 1012,9 hPa 0,0 l/m 5,6 km/h (1 Bft) NO 52 0 min 0,000 mm 0,0 UV-I 0 W/m 15,4 C 19,1 C 8,0 km/h (2 Bft) 95,65 %
29.05.2018 01:56 19,1 C 23,9 C 79 % 1012,9 hPa 0,0 l/m 6,0 km/h (2 Bft) O-NO 57 0 min 0,000 mm 0,0 UV-I 0 W/m 15,4 C 19,1 C 8,0 km/h (2 Bft) 91,67 %
29.05.2018 01:57 18,9 C 23,9 C 80 % 1012,9 hPa 0,0 l/m 6,9 km/h (2 Bft) O-NO 65 0 min 0,000 mm 0,0 UV-I 0 W/m 15,4 C 18,7 C 8,0 km/h (2 Bft) 100,00 %
29.05.2018 01:58 18,8 C 23,9 C 80 % 1013,0 hPa 0,0 l/m 6,5 km/h (2 Bft) O-NO 58 0 min 0,000 mm 0,0 UV-I 0 W/m 15,3 C 18,8 C 8,0 km/h (2 Bft) 95,65 %
29.05.2018 01:59 18,7 C 23,9 C 81 % 1013,0 hPa 0,0 l/m 5,3 km/h (1 Bft) O 81 0 min 0,000 mm 0,0 UV-I 0 W/m 15,4 C 18,7 C 6,4 km/h (2 Bft) 100,00 %
29.05.2018 02:00 18,7 C 23,9 C 81 % 1013,0 hPa 0,0 l/m 5,8 km/h (2 Bft) O-NO 77 0 min 0,026 mm 0,0 UV-I 0 W/m 15,4 C 18,7 C 6,4 km/h (2 Bft) 95,65 %
29.05.2018 02:01 18,7 C 23,9 C 81 % 1013,0 hPa 0,0 l/m 5,8 km/h (2 Bft) O-NO 63 0 min 0,000 mm 0,0 UV-I 0 W/m 15,4 C 18,7 C 8,0 km/h (2 Bft) 100,00 %
29.05.2018 02:02 18,7 C 23,9 C 81 % 1013,0 hPa 0,0 l/m 6,4 km/h (2 Bft) O-NO 66 0 min 0,000 mm 0,0 UV-I 0 W/m 15,4 C 18,7 C 8,0 km/h (2 Bft) 91,30 %
29.05.2018 02:03 18,6 C 23,9 C 81 % 1013,0 hPa 0,0 l/m 6,2 km/h (2 Bft) NO 51 0 min 0,000 mm 0,0 UV-I 0 W/m 15,3 C 18,6 C 8,0 km/h (2 Bft) 96,30 %
29.05.2018 02:04 18,4 C 23,9 C 82 % 1013,0 hPa 0,0 l/m 7,6 km/h (2 Bft) NO 41 0 min 0,000 mm 0,0 UV-I 0 W/m 15,3 C 17,8 C 9,7 km/h (2 Bft) 100,00 %
29.05.2018 02:05 18,2 C 23,9 C 82 % 1013,0 hPa 0,0 l/m 7,9 km/h (2 Bft) NO 51 0 min 0,000 mm 0,0 UV-I 0 W/m 15,1 C 17,5 C 9,7 km/h (2 Bft) 100,00 %
29.05.2018 02:06 18,1 C 23,9 C 83 % 1013,0 hPa 0,0 l/m 6,6 km/h (2 Bft) O-NO 57 0 min 0,000 mm 0,0 UV-I 0 W/m 15,2 C 18,0 C 8,0 km/h (2 Bft) 96,15 %
29.05.2018 02:07 18,1 C 23,9 C 83 % 1013,0 hPa 0,0 l/m 6,2 km/h (2 Bft) NO 56 0 min 0,000 mm 0,0 UV-I 0 W/m 15,2 C 18,1 C 8,0 km/h (2 Bft) 95,83 %
29.05.2018 02:08 18,1 C 23,9 C 83 % 1013,0 hPa 0,0 l/m 6,2 km/h (2 Bft) O-NO 69 0 min 0,000 mm 0,0 UV-I 0 W/m 15,2 C 18,1 C 6,4 km/h (2 Bft) 100,00 %
29.05.2018 02:09 18,1 C 23,9 C 83 % 1012,9 hPa 0,0 l/m 6,2 km/h (2 Bft) O-NO 70 0 min 0,000 mm 0,0 UV-I 0 W/m 15,2 C 18,1 C 8,0 km/h (2 Bft) 95,83 %
29.05.2018 02:10 18,2 C 23,9 C 83 % 1013,0 hPa 0,0 l/m 6,7 km/h (2 Bft) O-NO 74 0 min 0,000 mm 0,0 UV-I 0 W/m 15,3 C 18,1 C 8,0 km/h (2 Bft) 91,30 %
29.05.2018 02:11 18,3 C 23,9 C 82 % 1012,9 hPa 0,0 l/m 6,6 km/h (2 Bft) O 82 0 min 0,000 mm 0,0 UV-I 0 W/m 15,2 C 18,2 C 8,0 km/h (2 Bft) 95,83 %
29.05.2018 02:12 18,4 C 23,9 C 82 % 1013,0 hPa 0,0 l/m 7,2 km/h (2 Bft) O-NO 71 0 min 0,000 mm 0,0 UV-I 0 W/m 15,3 C 18,0 C 11,3 km/h (2 Bft) 100,00 %
29.05.2018 02:13 18,5 C 23,9 C 82 % 1013,0 hPa 0,0 l/m 7,6 km/h (2 Bft) O-NO 74 0 min 0,000 mm 0,0 UV-I 0 W/m 15,4 C 18,0 C 9,7 km/h (2 Bft) 95,65 %
29.05.2018 02:14 18,6 C 23,9 C 81 % 1012,9 hPa 0,0 l/m 8,7 km/h (2 Bft) O-NO 75 0 min 0,000 mm 0,0 UV-I 0 W/m 15,3 C 17,6 C 12,9 km/h (3 Bft) 100,00 %
29.05.2018 02:15 18,7 C 23,9 C 81 % 1012,9 hPa 0,0 l/m 8,0 km/h (2 Bft) O 87 0 min 0,000 mm 0,0 UV-I 0 W/m 15,4 C 18,0 C 11,3 km/h (2 Bft) 95,65 %
29.05.2018 02:16 18,7 C 23,9 C 81 % 1013,0 hPa 0,0 l/m 7,2 km/h (2 Bft) O-NO 71 0 min 0,000 mm 0,0 UV-I 0 W/m 15,4 C 18,3 C 11,3 km/h (2 Bft) 95,83 %
29.05.2018 02:17 18,8 C 23,9 C 81 % 1013,0 hPa 0,0 l/m 7,9 km/h (2 Bft) O-NO 76 0 min 0,000 mm 0,0 UV-I 0 W/m 15,5 C 18,1 C 9,7 km/h (2 Bft) 100,00 %
29.05.2018 02:18 18,8 C 23,3 C 81 % 1012,9 hPa 0,0 l/m 8,0 km/h (2 Bft) O-NO 75 0 min 0,000 mm 0,0 UV-I 0 W/m 15,5 C 18,1 C 11,3 km/h (2 Bft) 100,00 %
29.05.2018 02:19 18,8 C 23,3 C 81 % 1013,0 hPa 0,0 l/m 8,4 km/h (2 Bft) O 80 0 min 0,000 mm 0,0 UV-I 0 W/m 15,5 C 17,9 C 12,9 km/h (3 Bft) 95,65 %
29.05.2018 02:20 18,8 C 23,3 C 81 % 1012,9 hPa 0,0 l/m 9,2 km/h (2 Bft) O 94 0 min 0,000 mm 0,0 UV-I 0 W/m 15,5 C 17,6 C 14,5 km/h (3 Bft) 95,83 %
29.05.2018 02:21 18,8 C 23,3 C 80 % 1012,9 hPa 0,0 l/m 10,2 km/h (2 Bft) O 80 0 min 0,000 mm 0,0 UV-I 0 W/m 15,3 C 17,2 C 12,9 km/h (3 Bft) 100,00 %
29.05.2018 02:22 18,9 C 23,3 C 80 % 1012,9 hPa 0,0 l/m 9,5 km/h (2 Bft) O-NO 65 0 min 0,000 mm 0,0 UV-I 0 W/m 15,4 C 17,6 C 12,9 km/h (3 Bft) 100,00 %
29.05.2018 02:23 18,9 C 23,3 C 80 % 1012,9 hPa 0,0 l/m 9,2 km/h (2 Bft) O-NO 69 0 min 0,000 mm 0,0 UV-I 0 W/m 15,4 C 17,7 C 12,9 km/h (3 Bft) 100,00 %
29.05.2018 02:24 18,9 C 23,3 C 80 % 1012,9 hPa 0,0 l/m 11,4 km/h (2 Bft) O 88 0 min 0,000 mm 0,0 UV-I 0 W/m 15,4 C 17,0 C 14,5 km/h (3 Bft) 95,83 %
29.05.2018 02:25 18,9 C 23,3 C 80 % 1012,9 hPa 0,0 l/m 9,4 km/h (2 Bft) O-NO 64 0 min 0,000 mm 0,0 UV-I 0 W/m 15,4 C 17,6 C 12,9 km/h (3 Bft) 100,00 %
29.05.2018 02:26 18,9 C 23,3 C 80 % 1012,9 hPa 0,0 l/m 10,1 km/h (2 Bft) O 80 0 min 0,000 mm 0,0 UV-I 0 W/m 15,4 C 17,4 C 12,9 km/h (3 Bft) 100,00 %
29.05.2018 02:27 18,9 C 23,3 C 80 % 1012,9 hPa 0,0 l/m 11,1 km/h (2 Bft) O 80 0 min 0,000 mm 0,0 UV-I 0 W/m 15,4 C 17,0 C 14,5 km/h (3 Bft) 95,65 %
29.05.2018 02:28 18,8 C 23,3 C 80 % 1012,9 hPa 0,0 l/m 9,5 km/h (2 Bft) O 87 0 min 0,000 mm 0,0 UV-I 0 W/m 15,3 C 17,5 C 12,9 km/h (3 Bft) 100,00 %
29.05.2018 02:29 18,8 C 23,3 C 80 % 1012,9 hPa 0,0 l/m 9,0 km/h (2 Bft) O 82 0 min 0,000 mm 0,0 UV-I 0 W/m 15,3 C 17,7 C 12,9 km/h (3 Bft) 100,00 %
29.05.2018 02:30 18,8 C 23,3 C 80 % 1012,9 hPa 0,0 l/m 8,3 km/h (2 Bft) O 96 0 min 0,000 mm 0,0 UV-I 0 W/m 15,3 C 18,0 C 11,3 km/h (2 Bft) 100,00 %
29.05.2018 02:31 18,8 C 23,3 C 80 % 1012,9 hPa 0,0 l/m 8,9 km/h (2 Bft) O 91 0 min 0,000 mm 0,0 UV-I 0 W/m 15,3 C 17,7 C 12,9 km/h (3 Bft) 91,67 %
29.05.2018 02:32 18,8 C 23,3 C 80 % 1012,9 hPa 0,0 l/m 10,6 km/h (2 Bft) O-NO 63 0 min 0,000 mm 0,0 UV-I 0 W/m 15,3 C 17,1 C 12,9 km/h (3 Bft) 100,00 %
29.05.2018 02:33 18,8 C 23,3 C 80 % 1012,9 hPa 0,0 l/m 9,7 km/h (2 Bft) O 98 0 min 0,000 mm 0,0 UV-I 0 W/m 15,3 C 17,4 C 12,9 km/h (3 Bft) 100,00 %
29.05.2018 02:34 18,8 C 23,3 C 80 % 1012,8 hPa 0,0 l/m 9,6 km/h (2 Bft) O 88 0 min 0,000 mm 0,0 UV-I 0 W/m 15,3 C 17,5 C 12,9 km/h (3 Bft) 100,00 %
29.05.2018 02:35 18,8 C 23,3 C 80 % 1012,8 hPa 0,0 l/m 9,0 km/h (2 Bft) O 83 0 min 0,000 mm 0,0 UV-I 0 W/m 15,3 C 17,7 C 12,9 km/h (3 Bft) 100,00 %
29.05.2018 02:36 18,8 C 23,3 C 80 % 1012,8 hPa 0,0 l/m 9,3 km/h (2 Bft) O 88 0 min 0,000 mm 0,0 UV-I 0 W/m 15,3 C 17,6 C 12,9 km/h (3 Bft) 100,00 %
29.05.2018 02:37 18,8 C 23,3 C 80 % 1012,8 hPa 0,0 l/m 10,9 km/h (2 Bft) O-NO 78 0 min 0,000 mm 0,0 UV-I 0 W/m 15,3 C 17,0 C 14,5 km/h (3 Bft) 100,00 %
29.05.2018 02:38 18,8 C 23,3 C 80 % 1012,8 hPa 0,0 l/m 7,9 km/h (2 Bft) O 101 0 min 0,000 mm 0,0 UV-I 0 W/m 15,3 C 18,1 C 9,7 km/h (2 Bft) 100,00 %
29.05.2018 02:39 18,8 C 23,3 C 80 % 1012,8 hPa 0,0 l/m 7,0 km/h (2 Bft) O-NO 75 0 min 0,000 mm 0,0 UV-I 0 W/m 15,3 C 18,5 C 9,7 km/h (2 Bft) 100,00 %
29.05.2018 02:40 18,8 C 23,3 C 80 % 1012,7 hPa 0,0 l/m 6,4 km/h (2 Bft) O 82 0 min 0,000 mm 0,0 UV-I 0 W/m 15,3 C 18,8 C 8,0 km/h (2 Bft) 100,00 %
29.05.2018 02:41 18,8 C 23,3 C 81 % 1012,8 hPa 0,0 l/m 6,4 km/h (2 Bft) O-NO 65 0 min 0,000 mm 0,0 UV-I 0 W/m 15,5 C 18,8 C 8,0 km/h (2 Bft) 100,00 %
29.05.2018 02:42 18,8 C 23,3 C 80 % 1012,8 hPa 0,0 l/m 7,8 km/h (2 Bft) O-NO 76 0 min 0,000 mm 0,0 UV-I 0 W/m 15,3 C 18,2 C 11,3 km/h (2 Bft) 100,00 %
29.05.2018 02:43 18,8 C 23,3 C 80 % 1012,8 hPa 0,0 l/m 8,1 km/h (2 Bft) O 94 0 min 0,000 mm 0,0 UV-I 0 W/m 15,3 C 18,0 C 12,9 km/h (3 Bft) 100,00 %
29.05.2018 02:44 18,8 C 23,3 C 80 % 1012,8 hPa 0,0 l/m 8,9 km/h (2 Bft) O-NO 70 0 min 0,000 mm 0,0 UV-I 0 W/m 15,3 C 17,7 C 11,3 km/h (2 Bft) 100,00 %
29.05.2018 02:45 18,8 C 23,3 C 80 % 1012,8 hPa 0,0 l/m 8,0 km/h (2 Bft) O 87 0 min 0,000 mm 0,0 UV-I 0 W/m 15,3 C 18,1 C 9,7 km/h (2 Bft) 100,00 %
29.05.2018 02:46 18,8 C 23,3 C 81 % 1012,8 hPa 0,0 l/m 9,2 km/h (2 Bft) O-SO 104 0 min 0,000 mm 0,0 UV-I 0 W/m 15,5 C 17,6 C 12,9 km/h (3 Bft) 100,00 %
29.05.2018 02:47 18,8 C 23,3 C 80 % 1012,8 hPa 0,0 l/m 8,7 km/h (2 Bft) O-SO 107 0 min 0,000 mm 0,0 UV-I 0 W/m 15,3 C 17,8 C 12,9 km/h (3 Bft) 100,00 %
29.05.2018 02:48 18,8 C 23,3 C 81 % 1012,9 hPa 0,0 l/m 8,9 km/h (2 Bft) O 86 0 min 0,000 mm 0,0 UV-I 0 W/m 15,5 C 17,7 C 12,9 km/h (3 Bft) 100,00 %
29.05.2018 02:49 18,8 C 23,3 C 81 % 1012,9 hPa 0,0 l/m 10,3 km/h (2 Bft) O 96 0 min 0,000 mm 0,0 UV-I 0 W/m 15,5 C 17,2 C 14,5 km/h (3 Bft) 100,00 %
29.05.2018 02:50 18,8 C 23,3 C 81 % 1012,9 hPa 0,0 l/m 11,1 km/h (2 Bft) O 97 0 min 0,000 mm 0,0 UV-I 0 W/m 15,5 C 16,9 C 14,5 km/h (3 Bft) 100,00 %
29.05.2018 02:51 18,8 C 23,3 C 81 % 1012,8 hPa 0,0 l/m 12,7 km/h (3 Bft) O 96 0 min 0,000 mm 0,0 UV-I 0 W/m 15,5 C 16,4 C 16,1 km/h (3 Bft) 100,00 %
29.05.2018 02:52 18,8 C 23,3 C 80 % 1012,8 hPa 0,0 l/m 10,6 km/h (2 Bft) O-NO 71 0 min 0,000 mm 0,0 UV-I 0 W/m 15,3 C 17,1 C 14,5 km/h (3 Bft) 100,00 %
29.05.2018 02:53 18,8 C 23,3 C 80 % 1012,8 hPa 0,0 l/m 12,0 km/h (2 Bft) O 99 0 min 0,000 mm 0,0 UV-I 0 W/m 15,3 C 16,6 C 14,5 km/h (3 Bft) 100,00 %
29.05.2018 02:54 18,9 C 23,3 C 80 % 1012,8 hPa 0,0 l/m 11,6 km/h (2 Bft) O 82 0 min 0,000 mm 0,0 UV-I 0 W/m 15,4 C 16,9 C 14,5 km/h (3 Bft) 100,00 %
29.05.2018 02:55 18,9 C 23,3 C 80 % 1012,8 hPa 0,0 l/m 13,0 km/h (3 Bft) O 99 0 min 0,000 mm 0,0 UV-I 0 W/m 15,4 C 16,5 C 17,7 km/h (3 Bft) 95,65 %
29.05.2018 02:56 18,9 C 23,3 C 80 % 1012,8 hPa 0,0 l/m 12,6 km/h (3 Bft) O 92 0 min 0,000 mm 0,0 UV-I 0 W/m 15,4 C 16,6 C 16,1 km/h (3 Bft) 100,00 %
29.05.2018 02:57 18,9 C 23,3 C 80 % 1012,8 hPa 0,0 l/m 11,5 km/h (2 Bft) O 95 0 min 0,000 mm 0,0 UV-I 0 W/m 15,4 C 16,9 C 14,5 km/h (3 Bft) 100,00 %
29.05.2018 02:58 18,9 C 23,3 C 80 % 1012,8 hPa 0,0 l/m 11,8 km/h (2 Bft) O 101 0 min 0,000 mm 0,0 UV-I 0 W/m 15,4 C 16,8 C 14,5 km/h (3 Bft) 100,00 %
29.05.2018 02:59 18,9 C 23,3 C 80 % 1012,8 hPa 0,0 l/m 10,4 km/h (2 Bft) O 89 0 min 0,000 mm 0,0 UV-I 0 W/m 15,4 C 17,3 C 12,9 km/h (3 Bft) 95,65 %
29.05.2018 03:00 18,9 C 23,3 C 80 % 1012,8 hPa 0,0 l/m 10,8 km/h (2 Bft) O 93 0 min 0,025 mm 0,0 UV-I 0 W/m 15,4 C 17,1 C 12,9 km/h (3 Bft) 100,00 %
29.05.2018 03:01 18,9 C 23,3 C 80 % 1012,8 hPa 0,0 l/m 11,0 km/h (2 Bft) O-SO 106 0 min 0,000 mm 0,0 UV-I 0 W/m 15,4 C 17,1 C 14,5 km/h (3 Bft) 100,00 %
29.05.2018 03:03 18,9 C 23,3 C 80 % 1012,8 hPa 0,0 l/m 10,1 km/h (2 Bft) O-NO 71 0 min 0,000 mm 0,0 UV-I 0 W/m 15,4 C 17,4 C 12,9 km/h (3 Bft) 100,00 %
29.05.2018 03:04 18,9 C 23,3 C 80 % 1012,7 hPa 0,0 l/m 8,4 km/h (2 Bft) O-NO 74 0 min 0,000 mm 0,0 UV-I 0 W/m 15,4 C 18,0 C 11,3 km/h (2 Bft) 100,00 %
29.05.2018 03:05 18,9 C 23,3 C 80 % 1012,7 hPa 0,0 l/m 8,3 km/h (2 Bft) O 94 0 min 0,000 mm 0,0 UV-I 0 W/m 15,4 C 18,1 C 11,3 km/h (2 Bft) 95,65 %
29.05.2018 03:06 18,9 C 23,3 C 80 % 1012,7 hPa 0,0 l/m 10,3 km/h (2 Bft) O-NO 67 0 min 0,000 mm 0,0 UV-I 0 W/m 15,4 C 17,3 C 11,3 km/h (2 Bft) 100,00 %
29.05.2018 03:07 18,9 C 23,3 C 80 % 1012,7 hPa 0,0 l/m 9,1 km/h (2 Bft) O 94 0 min 0,000 mm 0,0 UV-I 0 W/m 15,4 C 17,8 C 11,3 km/h (2 Bft) 100,00 %
29.05.2018 03:08 18,9 C 23,3 C 80 % 1012,7 hPa 0,0 l/m 7,5 km/h (2 Bft) O-NO 67 0 min 0,000 mm 0,0 UV-I 0 W/m 15,4 C 18,4 C 11,3 km/h (2 Bft) 100,00 %
29.05.2018 03:09 18,9 C 23,3 C 80 % 1012,7 hPa 0,0 l/m 6,6 km/h (2 Bft) O-NO 78 0 min 0,000 mm 0,0 UV-I 0 W/m 15,4 C 18,8 C 9,7 km/h (2 Bft) 100,00 %
29.05.2018 03:10 18,8 C 23,3 C 80 % 1012,7 hPa 0,0 l/m 7,4 km/h (2 Bft) O 94 0 min 0,000 mm 0,0 UV-I 0 W/m 15,3 C 18,4 C 11,3 km/h (2 Bft) 100,00 %
29.05.2018 03:11 18,8 C 23,3 C 80 % 1012,7 hPa 0,0 l/m 8,6 km/h (2 Bft) O 85 0 min 0,000 mm 0,0 UV-I 0 W/m 15,3 C 17,8 C 11,3 km/h (2 Bft) 100,00 %
29.05.2018 03:12 18,8 C 23,3 C 80 % 1012,7 hPa 0,0 l/m 8,2 km/h (2 Bft) O-NO 68 0 min 0,000 mm 0,0 UV-I 0 W/m 15,3 C 18,0 C 11,3 km/h (2 Bft) 100,00 %
29.05.2018 03:13 18,8 C 23,3 C 81 % 1012,7 hPa 0,0 l/m 8,2 km/h (2 Bft) O-NO 78 0 min 0,000 mm 0,0 UV-I 0 W/m 15,5 C 18,0 C 11,3 km/h (2 Bft) 100,00 %
29.05.2018 03:14 18,8 C 23,3 C 81 % 1012,7 hPa 0,0 l/m 7,5 km/h (2 Bft) O-NO 70 0 min 0,000 mm 0,0 UV-I 0 W/m 15,5 C 18,3 C 9,7 km/h (2 Bft) 100,00 %
29.05.2018 03:15 18,7 C 23,3 C 81 % 1012,7 hPa 0,0 l/m 7,4 km/h (2 Bft) O 92 0 min 0,000 mm 0,0 UV-I 0 W/m 15,4 C 18,2 C 11,3 km/h (2 Bft) 100,00 %
29.05.2018 03:16 18,7 C 23,3 C 81 % 1012,7 hPa 0,0 l/m 6,9 km/h (2 Bft) O 82 0 min 0,000 mm 0,0 UV-I 0 W/m 15,4 C 18,5 C 8,0 km/h (2 Bft) 100,00 %
29.05.2018 03:17 18,7 C 23,3 C 81 % 1012,7 hPa 0,0 l/m 6,6 km/h (2 Bft) O-NO 78 0 min 0,000 mm 0,0 UV-I 0 W/m 15,4 C 18,6 C 8,0 km/h (2 Bft) 100,00 %
29.05.2018 03:18 18,7 C 23,3 C 81 % 1012,7 hPa 0,0 l/m 5,2 km/h (1 Bft) O-NO 67 0 min 0,000 mm 0,0 UV-I 0 W/m 15,4 C 18,7 C 6,4 km/h (2 Bft) 100,00 %
29.05.2018 03:19 18,7 C 23,3 C 81 % 1012,7 hPa 0,0 l/m 4,7 km/h (1 Bft) O-NO 67 0 min 0,000 mm 0,0 UV-I 0 W/m 15,4 C 18,7 C 4,8 km/h (1 Bft) 100,00 %
29.05.2018 03:20 18,6 C 23,3 C 81 % 1012,7 hPa 0,0 l/m 4,8 km/h (1 Bft) O-NO 71 0 min 0,000 mm 0,0 UV-I 0 W/m 15,3 C 18,6 C 6,4 km/h (2 Bft) 100,00 %
29.05.2018 03:21 18,5 C 23,3 C 81 % 1012,8 hPa 0,0 l/m 5,2 km/h (1 Bft) O-NO 70 0 min 0,000 mm 0,0 UV-I 0 W/m 15,2 C 18,5 C 8,0 km/h (2 Bft) 95,83 %
29.05.2018 03:22 18,4 C 23,3 C 82 % 1012,8 hPa 0,0 l/m 5,6 km/h (1 Bft) NO 55 0 min 0,000 mm 0,0 UV-I 0 W/m 15,3 C 18,4 C 6,4 km/h (2 Bft) 100,00 %
29.05.2018 03:23 18,3 C 23,3 C 82 % 1012,8 hPa 0,0 l/m 5,8 km/h (2 Bft) O-NO 67 0 min 0,000 mm 0,0 UV-I 0 W/m 15,2 C 18,3 C 8,0 km/h (2 Bft) 100,00 %
29.05.2018 03:24 18,2 C 23,3 C 83 % 1012,8 hPa 0,0 l/m 5,7 km/h (1 Bft) O-NO 63 0 min 0,000 mm 0,0 UV-I 0 W/m 15,3 C 18,2 C 8,0 km/h (2 Bft) 100,00 %
29.05.2018 03:25 18,2 C 23,3 C 83 % 1012,8 hPa 0,0 l/m 5,1 km/h (1 Bft) O-NO 67 0 min 0,000 mm 0,0 UV-I 0 W/m 15,3 C 18,2 C 6,4 km/h (2 Bft) 100,00 %
29.05.2018 03:26 18,2 C 23,3 C 83 % 1012,7 hPa 0,0 l/m 4,2 km/h (1 Bft) O-NO 68 0 min 0,000 mm 0,0 UV-I 0 W/m 15,3 C 18,2 C 6,4 km/h (2 Bft) 100,00 %
29.05.2018 03:27 18,1 C 23,3 C 83 % 1012,7 hPa 0,0 l/m 5,3 km/h (1 Bft) O-NO 65 0 min 0,000 mm 0,0 UV-I 0 W/m 15,2 C 18,1 C 6,4 km/h (2 Bft) 100,00 %
29.05.2018 03:28 17,9 C 23,3 C 83 % 1012,7 hPa 0,0 l/m 5,7 km/h (1 Bft) NO 55 0 min 0,000 mm 0,0 UV-I 0 W/m 15,0 C 17,9 C 6,4 km/h (2 Bft) 95,65 %
29.05.2018 03:29 17,8 C 23,3 C 83 % 1012,7 hPa 0,0 l/m 5,3 km/h (1 Bft) NO 55 0 min 0,000 mm 0,0 UV-I 0 W/m 14,9 C 17,8 C 6,4 km/h (2 Bft) 100,00 %
29.05.2018 03:30 17,7 C 23,3 C 84 % 1012,6 hPa 0,0 l/m 5,4 km/h (1 Bft) O-NO 57 0 min 0,000 mm 0,0 UV-I 0 W/m 15,0 C 17,7 C 6,4 km/h (2 Bft) 100,00 %
29.05.2018 03:31 17,7 C 23,3 C 84 % 1012,7 hPa 0,0 l/m 5,6 km/h (1 Bft) O-NO 60 0 min 0,000 mm 0,0 UV-I 0 W/m 15,0 C 17,7 C 6,4 km/h (2 Bft) 100,00 %
29.05.2018 03:32 17,7 C 23,3 C 84 % 1012,7 hPa 0,0 l/m 5,4 km/h (1 Bft) O-NO 59 0 min 0,000 mm 0,0 UV-I 0 W/m 15,0 C 17,7 C 6,4 km/h (2 Bft) 100,00 %
29.05.2018 03:33 17,8 C 23,3 C 85 % 1012,6 hPa 0,0 l/m 4,8 km/h (1 Bft) O-NO 59 0 min 0,000 mm 0,0 UV-I 0 W/m 15,2 C 17,8 C 6,4 km/h (2 Bft) 100,00 %
29.05.2018 03:34 17,8 C 23,3 C 84 % 1012,6 hPa 0,0 l/m 5,3 km/h (1 Bft) O-NO 59 0 min 0,000 mm 0,0 UV-I 0 W/m 15,1 C 17,8 C 6,4 km/h (2 Bft) 91,67 %
29.05.2018 03:35 17,7 C 23,3 C 84 % 1012,6 hPa 0,0 l/m 6,3 km/h (2 Bft) O-NO 58 0 min 0,000 mm 0,0 UV-I 0 W/m 15,0 C 17,7 C 8,0 km/h (2 Bft) 100,00 %
29.05.2018 03:36 17,7 C 23,3 C 85 % 1012,6 hPa 0,0 l/m 6,1 km/h (2 Bft) NO 53 0 min 0,000 mm 0,0 UV-I 0 W/m 15,1 C 17,7 C 6,4 km/h (2 Bft) 100,00 %
29.05.2018 03:37 17,6 C 23,3 C 85 % 1012,6 hPa 0,0 l/m 6,2 km/h (2 Bft) NO 44 0 min 0,000 mm 0,0 UV-I 0 W/m 15,0 C 17,6 C 6,4 km/h (2 Bft) 95,65 %
29.05.2018 03:38 17,6 C 23,3 C 85 % 1012,6 hPa 0,0 l/m 6,2 km/h (2 Bft) O-NO 70 0 min 0,000 mm 0,0 UV-I 0 W/m 15,0 C 17,6 C 8,0 km/h (2 Bft) 95,83 %
29.05.2018 03:39 17,6 C 23,3 C 85 % 1012,6 hPa 0,0 l/m 5,9 km/h (2 Bft) O-NO 67 0 min 0,000 mm 0,0 UV-I 0 W/m 15,0 C 17,6 C 8,0 km/h (2 Bft) 95,65 %
29.05.2018 03:40 17,6 C 23,3 C 85 % 1012,6 hPa 0,0 l/m 5,8 km/h (2 Bft) O-NO 73 0 min 0,000 mm 0,0 UV-I 0 W/m 15,0 C 17,6 C 8,0 km/h (2 Bft) 95,83 %
29.05.2018 03:41 17,7 C 23,3 C 85 % 1012,6 hPa 0,0 l/m 5,7 km/h (1 Bft) O-NO 69 0 min 0,000 mm 0,0 UV-I 0 W/m 15,1 C 17,7 C 6,4 km/h (2 Bft) 100,00 %
29.05.2018 03:42 17,7 C 23,3 C 85 % 1012,6 hPa 0,0 l/m 6,7 km/h (2 Bft) O-NO 73 0 min 0,000 mm 0,0 UV-I 0 W/m 15,1 C 17,6 C 9,7 km/h (2 Bft) 95,83 %
29.05.2018 03:43 17,8 C 23,3 C 85 % 1012,6 hPa 0,0 l/m 5,9 km/h (2 Bft) O-NO 68 0 min 0,000 mm 0,0 UV-I 0 W/m 15,2 C 17,8 C 8,0 km/h (2 Bft) 100,00 %
29.05.2018 03:44 17,9 C 23,3 C 85 % 1012,6 hPa 0,0 l/m 5,6 km/h (1 Bft) O 83 0 min 0,000 mm 0,0 UV-I 0 W/m 15,3 C 17,9 C 8,0 km/h (2 Bft) 91,30 %
29.05.2018 03:45 18,0 C 23,3 C 85 % 1012,5 hPa 0,0 l/m 5,6 km/h (1 Bft) O-NO 74 0 min 0,000 mm 0,0 UV-I 0 W/m 15,4 C 18,0 C 8,0 km/h (2 Bft) 100,00 %
29.05.2018 03:46 18,1 C 23,3 C 84 % 1012,5 hPa 0,0 l/m 5,2 km/h (1 Bft) O-NO 71 0 min 0,000 mm 0,0 UV-I 0 W/m 15,4 C 18,1 C 6,4 km/h (2 Bft) 91,30 %
29.05.2018 03:47 18,2 C 23,3 C 84 % 1012,5 hPa 0,0 l/m 5,2 km/h (1 Bft) O 85 0 min 0,000 mm 0,0 UV-I 0 W/m 15,4 C 18,2 C 6,4 km/h (2 Bft) 100,00 %
29.05.2018 03:48 18,2 C 23,3 C 84 % 1012,5 hPa 0,0 l/m 4,6 km/h (1 Bft) O 82 0 min 0,000 mm 0,0 UV-I 0 W/m 15,4 C 18,2 C 6,4 km/h (2 Bft) 91,30 %
29.05.2018 03:49 18,2 C 23,3 C 83 % 1012,5 hPa 0,0 l/m 5,5 km/h (1 Bft) O-NO 66 0 min 0,000 mm 0,0 UV-I 0 W/m 15,3 C 18,2 C 8,0 km/h (2 Bft) 100,00 %
29.05.2018 03:50 18,3 C 23,3 C 83 % 1012,5 hPa 0,0 l/m 5,2 km/h (1 Bft) O-NO 78 0 min 0,000 mm 0,0 UV-I 0 W/m 15,4 C 18,3 C 6,4 km/h (2 Bft) 95,65 %
29.05.2018 03:51 18,3 C 23,3 C 83 % 1012,5 hPa 0,0 l/m 4,6 km/h (1 Bft) O-NO 74 0 min 0,000 mm 0,0 UV-I 0 W/m 15,4 C 18,3 C 6,4 km/h (2 Bft) 95,83 %
29.05.2018 03:52 18,3 C 23,3 C 83 % 1012,6 hPa 0,0 l/m 4,6 km/h (1 Bft) O-NO 73 0 min 0,000 mm 0,0 UV-I 0 W/m 15,4 C 18,3 C 6,4 km/h (2 Bft) 100,00 %
29.05.2018 03:53 18,3 C 23,3 C 83 % 1012,6 hPa 0,0 l/m 4,4 km/h (1 Bft) O-SO 104 0 min 0,000 mm 0,0 UV-I 0 W/m 15,4 C 18,3 C 6,4 km/h (2 Bft) 91,67 %
29.05.2018 03:54 18,3 C 23,3 C 83 % 1012,5 hPa 0,0 l/m 3,7 km/h (1 Bft) O-SO 102 0 min 0,000 mm 0,0 UV-I 0 W/m 15,4 C 18,3 C 4,8 km/h (1 Bft) 95,65 %
29.05.2018 03:55 18,3 C 23,3 C 83 % 1012,5 hPa 0,0 l/m 3,6 km/h (1 Bft) O-NO 76 0 min 0,000 mm 0,0 UV-I 0 W/m 15,4 C 18,3 C 4,8 km/h (1 Bft) 95,83 %
29.05.2018 03:56 18,2 C 23,3 C 83 % 1012,5 hPa 0,0 l/m 2,3 km/h (1 Bft) O-NO 76 0 min 0,000 mm 0,0 UV-I 0 W/m 15,3 C 18,2 C 3,2 km/h (1 Bft) 95,65 %
29.05.2018 03:57 18,1 C 23,3 C 83 % 1012,5 hPa 0,0 l/m 3,9 km/h (1 Bft) O-NO 76 0 min 0,000 mm 0,0 UV-I 0 W/m 15,2 C 18,1 C 4,8 km/h (1 Bft) 95,83 %
29.05.2018 03:58 18,0 C 23,3 C 84 % 1012,5 hPa 0,0 l/m 4,0 km/h (1 Bft) O-NO 72 0 min 0,000 mm 0,0 UV-I 0 W/m 15,3 C 18,0 C 6,4 km/h (2 Bft) 95,65 %
29.05.2018 03:59 17,9 C 23,3 C 84 % 1012,5 hPa 0,0 l/m 2,5 km/h (1 Bft) O-NO 72 0 min 0,000 mm 0,0 UV-I 0 W/m 15,2 C 17,9 C 3,2 km/h (1 Bft) 100,00 %
29.05.2018 04:00 17,9 C 23,3 C 84 % 1012,5 hPa 0,0 l/m 2,0 km/h (1 Bft) O-NO 73 0 min 0,000 mm 0,0 UV-I 0 W/m 15,2 C 17,9 C 4,8 km/h (1 Bft) 95,65 %
29.05.2018 04:01 17,9 C 23,3 C 84 % 1012,5 hPa 0,0 l/m 2,3 km/h (1 Bft) O-NO 72 0 min 0,026 mm 0,0 UV-I 0 W/m 15,2 C 17,9 C 3,2 km/h (1 Bft) 100,00 %
29.05.2018 04:02 17,8 C 23,3 C 84 % 1012,5 hPa 0,0 l/m 2,7 km/h (1 Bft) O-NO 72 0 min 0,000 mm 0,0 UV-I 0 W/m 15,1 C 17,8 C 3,2 km/h (1 Bft) 91,30 %
29.05.2018 04:03 17,7 C 23,3 C 84 % 1012,5 hPa 0,0 l/m 3,4 km/h (1 Bft) O-NO 72 0 min 0,000 mm 0,0 UV-I 0 W/m 15,0 C 17,7 C 4,8 km/h (1 Bft) 95,83 %
29.05.2018 04:04 17,6 C 23,3 C 85 % 1012,5 hPa 0,0 l/m 4,8 km/h (1 Bft) O-NO 72 0 min 0,000 mm 0,0 UV-I 0 W/m 15,0 C 17,6 C 4,8 km/h (1 Bft) 95,65 %
29.05.2018 04:05 17,6 C 23,3 C 85 % 1012,5 hPa 0,0 l/m 4,6 km/h (1 Bft) O-NO 71 0 min 0,000 mm 0,0 UV-I 0 W/m 15,0 C 17,6 C 4,8 km/h (1 Bft) 100,00 %
29.05.2018 04:06 17,5 C 23,3 C 85 % 1012,4 hPa 0,0 l/m 5,6 km/h (1 Bft) NO 45 0 min 0,000 mm 0,0 UV-I 0 W/m 14,9 C 17,5 C 6,4 km/h (2 Bft) 91,30 %
29.05.2018 04:07 17,4 C 23,3 C 86 % 1012,5 hPa 0,0 l/m 5,9 km/h (2 Bft) O-NO 59 0 min 0,000 mm 0,0 UV-I 0 W/m 15,0 C 17,4 C 8,0 km/h (2 Bft) 95,83 %
29.05.2018 04:08 17,5 C 23,3 C 86 % 1012,5 hPa 0,0 l/m 5,4 km/h (1 Bft) O-NO 64 0 min 0,000 mm 0,0 UV-I 0 W/m 15,1 C 17,5 C 6,4 km/h (2 Bft) 95,83 %
29.05.2018 04:09 17,6 C 23,3 C 86 % 1012,5 hPa 0,0 l/m 5,3 km/h (1 Bft) O-NO 67 0 min 0,000 mm 0,0 UV-I 0 W/m 15,2 C 17,6 C 6,4 km/h (2 Bft) 95,65 %
29.05.2018 04:10 17,6 C 23,3 C 86 % 1012,5 hPa 0,0 l/m 5,4 km/h (1 Bft) O-NO 66 0 min 0,000 mm 0,0 UV-I 0 W/m 15,2 C 17,6 C 6,4 km/h (2 Bft) 95,83 %
29.05.2018 04:11 17,7 C 23,3 C 85 % 1012,4 hPa 0,0 l/m 6,2 km/h (2 Bft) O-NO 59 0 min 0,000 mm 0,0 UV-I 0 W/m 15,1 C 17,7 C 8,0 km/h (2 Bft) 95,65 %
29.05.2018 04:12 17,8 C 23,3 C 85 % 1012,4 hPa 0,0 l/m 4,9 km/h (1 Bft) NO 54 0 min 0,000 mm 0,0 UV-I 0 W/m 15,2 C 17,8 C 6,4 km/h (2 Bft) 95,83 %
29.05.2018 04:13 17,8 C 23,3 C 85 % 1012,4 hPa 0,0 l/m 4,8 km/h (1 Bft) O-NO 75 0 min 0,000 mm 0,0 UV-I 0 W/m 15,2 C 17,8 C 6,4 km/h (2 Bft) 95,65 %
29.05.2018 04:14 17,8 C 23,3 C 85 % 1012,4 hPa 0,0 l/m 5,2 km/h (1 Bft) O-NO 68 0 min 0,000 mm 0,0 UV-I 0 W/m 15,2 C 17,8 C 6,4 km/h (2 Bft) 100,00 %
29.05.2018 04:15 17,8 C 23,3 C 84 % 1012,4 hPa 0,0 l/m 3,7 km/h (1 Bft) O-NO 68 0 min 0,000 mm 0,0 UV-I 0 W/m 15,1 C 17,8 C 4,8 km/h (1 Bft) 91,30 %
29.05.2018 04:16 17,9 C 23,3 C 85 % 1012,4 hPa 0,0 l/m 5,4 km/h (1 Bft) O 86 0 min 0,000 mm 0,0 UV-I 0 W/m 15,3 C 17,9 C 6,4 km/h (2 Bft) 95,83 %
29.05.2018 04:17 17,9 C 23,3 C 84 % 1012,4 hPa 0,0 l/m 5,3 km/h (1 Bft) O-NO 74 0 min 0,000 mm 0,0 UV-I 0 W/m 15,2 C 17,9 C 6,4 km/h (2 Bft) 91,30 %
29.05.2018 04:18 17,9 C 23,3 C 84 % 1012,4 hPa 0,0 l/m 4,3 km/h (1 Bft) O-NO 78 0 min 0,000 mm 0,0 UV-I 0 W/m 15,2 C 17,9 C 6,4 km/h (2 Bft) 100,00 %
29.05.2018 04:19 17,9 C 23,3 C 84 % 1012,4 hPa 0,0 l/m 4,3 km/h (1 Bft) O-NO 78 0 min 0,000 mm 0,0 UV-I 0 W/m 15,2 C 17,9 C 4,8 km/h (1 Bft) 95,65 %
29.05.2018 04:20 17,9 C 23,3 C 84 % 1012,4 hPa 0,0 l/m 5,1 km/h (1 Bft) O-NO 75 0 min 0,000 mm 0,0 UV-I 0 W/m 15,2 C 17,9 C 6,4 km/h (2 Bft) 100,00 %
29.05.2018 04:21 18,0 C 23,3 C 84 % 1012,4 hPa 0,0 l/m 5,1 km/h (1 Bft) O 92 0 min 0,000 mm 0,0 UV-I 0 W/m 15,3 C 18,0 C 6,4 km/h (2 Bft) 91,30 %
29.05.2018 04:22 17,9 C 23,3 C 84 % 1012,4 hPa 0,0 l/m 3,6 km/h (1 Bft) O-NO 78 0 min 0,000 mm 0,0 UV-I 0 W/m 15,2 C 17,9 C 4,8 km/h (1 Bft) 95,83 %
29.05.2018 04:23 17,9 C 23,3 C 84 % 1012,4 hPa 0,0 l/m 4,7 km/h (1 Bft) O 80 0 min 0,000 mm 0,0 UV-I 0 W/m 15,2 C 17,9 C 6,4 km/h (2 Bft) 95,65 %
29.05.2018 04:24 17,9 C 23,3 C 84 % 1012,4 hPa 0,0 l/m 4,1 km/h (1 Bft) O-NO 78 0 min 0,000 mm 0,0 UV-I 0 W/m 15,2 C 17,9 C 6,4 km/h (2 Bft) 95,83 %
29.05.2018 04:25 17,9 C 23,3 C 84 % 1012,4 hPa 0,0 l/m 4,8 km/h (1 Bft) O 90 0 min 0,000 mm 0,0 UV-I 0 W/m 15,2 C 17,9 C 6,4 km/h (2 Bft) 95,65 %
29.05.2018 04:26 17,9 C 23,3 C 84 % 1012,4 hPa 0,0 l/m 6,3 km/h (2 Bft) O-NO 69 0 min 0,000 mm 0,0 UV-I 0 W/m 15,2 C 17,9 C 9,7 km/h (2 Bft) 95,83 %
29.05.2018 04:27 17,9 C 23,3 C 84 % 1012,3 hPa 0,0 l/m 6,9 km/h (2 Bft) O-NO 74 0 min 0,000 mm 0,0 UV-I 0 W/m 15,2 C 17,7 C 8,0 km/h (2 Bft) 100,00 %
29.05.2018 04:28 17,9 C 23,3 C 84 % 1012,3 hPa 0,0 l/m 6,4 km/h (2 Bft) O-NO 77 0 min 0,000 mm 0,0 UV-I 0 W/m 15,2 C 17,9 C 8,0 km/h (2 Bft) 95,83 %
29.05.2018 04:29 17,9 C 23,3 C 84 % 1012,3 hPa 0,0 l/m 5,6 km/h (1 Bft) O-NO 76 0 min 0,000 mm 0,0 UV-I 0 W/m 15,2 C 17,9 C 9,7 km/h (2 Bft) 100,00 %
29.05.2018 04:30 17,9 C 23,3 C 84 % 1012,3 hPa 0,0 l/m 5,8 km/h (2 Bft) O-NO 70 0 min 0,000 mm 0,0 UV-I 0 W/m 15,2 C 17,9 C 9,7 km/h (2 Bft) 95,65 %
29.05.2018 04:31 17,9 C 23,3 C 84 % 1012,3 hPa 0,0 l/m 5,2 km/h (1 Bft) O 96 0 min 0,000 mm 0,0 UV-I 0 W/m 15,2 C 17,9 C 6,4 km/h (2 Bft) 95,83 %
29.05.2018 04:32 17,8 C 23,3 C 84 % 1012,3 hPa 0,0 l/m 5,0 km/h (1 Bft) NO 56 0 min 0,000 mm 0,0 UV-I 0 W/m 15,1 C 17,8 C 6,4 km/h (2 Bft) 92,86 %
29.05.2018 04:33 17,8 C 23,3 C 84 % 1012,2 hPa 0,0 l/m 5,2 km/h (1 Bft) O-NO 71 0 min 0,000 mm 0,0 UV-I 0 W/m 15,1 C 17,8 C 6,4 km/h (2 Bft) 100,00 %
29.05.2018 04:34 17,7 C 23,3 C 84 % 1012,2 hPa 0,0 l/m 5,9 km/h (2 Bft) O 86 0 min 0,000 mm 0,0 UV-I 0 W/m 15,0 C 17,7 C 8,0 km/h (2 Bft) 95,65 %
29.05.2018 04:35 17,7 C 23,3 C 84 % 1012,2 hPa 0,0 l/m 7,1 km/h (2 Bft) O 84 0 min 0,000 mm 0,0 UV-I 0 W/m 15,0 C 17,4 C 11,3 km/h (2 Bft) 95,83 %
29.05.2018 04:36 17,7 C 23,3 C 84 % 1012,2 hPa 0,0 l/m 6,7 km/h (2 Bft) O-SO 103 0 min 0,000 mm 0,0 UV-I 0 W/m 15,0 C 17,6 C 9,7 km/h (2 Bft) 95,65 %
29.05.2018 04:37 17,6 C 23,3 C 84 % 1012,2 hPa 0,0 l/m 7,1 km/h (2 Bft) O-NO 71 0 min 0,000 mm 0,0 UV-I 0 W/m 14,9 C 17,3 C 9,7 km/h (2 Bft) 95,83 %
29.05.2018 04:38 17,7 C 23,3 C 85 % 1012,2 hPa 0,0 l/m 7,6 km/h (2 Bft) O-NO 62 0 min 0,000 mm 0,0 UV-I 0 W/m 15,1 C 17,1 C 11,3 km/h (2 Bft) 95,65 %
29.05.2018 04:39 17,6 C 23,3 C 85 % 1012,2 hPa 0,0 l/m 7,9 km/h (2 Bft) O 88 0 min 0,000 mm 0,0 UV-I 0 W/m 15,0 C 16,9 C 11,3 km/h (2 Bft) 95,83 %
29.05.2018 04:40 17,7 C 23,3 C 85 % 1012,1 hPa 0,0 l/m 7,2 km/h (2 Bft) O 80 0 min 0,000 mm 0,0 UV-I 0 W/m 15,1 C 17,3 C 12,9 km/h (3 Bft) 100,00 %
29.05.2018 04:41 17,7 C 23,3 C 85 % 1012,2 hPa 0,0 l/m 8,2 km/h (2 Bft) O 93 0 min 0,000 mm 0,0 UV-I 0 W/m 15,1 C 16,8 C 12,9 km/h (3 Bft) 95,83 %
29.05.2018 04:42 17,7 C 23,3 C 84 % 1012,2 hPa 0,0 l/m 10,7 km/h (2 Bft) O-SO 113 0 min 0,000 mm 0,0 UV-I 0 W/m 15,0 C 15,8 C 12,9 km/h (3 Bft) 100,00 %
29.05.2018 04:43 17,8 C 23,3 C 84 % 1012,2 hPa 0,0 l/m 10,8 km/h (2 Bft) O 97 0 min 0,000 mm 0,0 UV-I 0 W/m 15,1 C 15,9 C 12,9 km/h (3 Bft) 91,67 %
29.05.2018 04:44 17,8 C 23,3 C 84 % 1012,2 hPa 0,0 l/m 10,4 km/h (2 Bft) O-SO 120 0 min 0,000 mm 0,0 UV-I 0 W/m 15,1 C 16,1 C 14,5 km/h (3 Bft) 92,31 %
29.05.2018 04:45 17,9 C 23,3 C 84 % 1012,2 hPa 0,0 l/m 12,8 km/h (3 Bft) O 92 0 min 0,000 mm 0,0 UV-I 0 W/m 15,2 C 15,4 C 14,5 km/h (3 Bft) 93,33 %
29.05.2018 04:46 17,9 C 23,3 C 84 % 1012,2 hPa 0,0 l/m 11,3 km/h (2 Bft) O 89 0 min 0,000 mm 0,0 UV-I 0 W/m 15,2 C 15,8 C 14,5 km/h (3 Bft) 100,00 %
29.05.2018 04:47 18,1 C 23,3 C 83 % 1012,3 hPa 0,0 l/m 10,8 km/h (2 Bft) O 90 0 min 0,000 mm 0,0 UV-I 0 W/m 15,2 C 16,3 C 12,9 km/h (3 Bft) 96,55 %
29.05.2018 04:48 18,1 C 23,3 C 83 % 1012,3 hPa 0,0 l/m 12,9 km/h (3 Bft) O-SO 105 0 min 0,000 mm 0,0 UV-I 0 W/m 15,2 C 15,6 C 17,7 km/h (3 Bft) 95,83 %
29.05.2018 04:49 18,2 C 23,3 C 82 % 1012,2 hPa 0,0 l/m 8,0 km/h (2 Bft) O 81 0 min 0,000 mm 0,0 UV-I 0 W/m 15,1 C 17,5 C 11,3 km/h (2 Bft) 95,65 %
29.05.2018 04:50 18,2 C 23,3 C 82 % 1012,2 hPa 0,0 l/m 10,8 km/h (2 Bft) O 94 0 min 0,000 mm 0,0 UV-I 0 W/m 15,1 C 16,4 C 16,1 km/h (3 Bft) 95,83 %
29.05.2018 04:51 18,2 C 23,3 C 82 % 1012,2 hPa 0,0 l/m 9,8 km/h (2 Bft) O 98 0 min 0,000 mm 0,0 UV-I 0 W/m 15,1 C 16,7 C 14,5 km/h (3 Bft) 100,00 %
29.05.2018 04:52 18,2 C 23,3 C 82 % 1012,2 hPa 0,0 l/m 9,3 km/h (2 Bft) O-SO 111 0 min 0,000 mm 0,0 UV-I 0 W/m 15,1 C 16,9 C 14,5 km/h (3 Bft) 95,83 %
29.05.2018 04:53 18,2 C 23,3 C 82 % 1012,3 hPa 0,0 l/m 6,0 km/h (2 Bft) O 80 0 min 0,000 mm 0,0 UV-I 4 W/m 15,1 C 18,2 C 9,7 km/h (2 Bft) 95,65 %
29.05.2018 04:54 18,2 C 23,3 C 82 % 1012,3 hPa 0,0 l/m 10,4 km/h (2 Bft) O 94 0 min 0,000 mm 0,0 UV-I 5 W/m 15,1 C 16,5 C 14,5 km/h (3 Bft) 95,83 %
29.05.2018 04:55 18,2 C 23,3 C 82 % 1012,2 hPa 0,0 l/m 12,4 km/h (3 Bft) O 98 0 min 0,000 mm 0,0 UV-I 5 W/m 15,1 C 15,8 C 16,1 km/h (3 Bft) 96,00 %
29.05.2018 04:56 18,2 C 23,3 C 82 % 1012,3 hPa 0,0 l/m 10,3 km/h (2 Bft) O-SO 116 0 min 0,000 mm 0,0 UV-I 5 W/m 15,1 C 16,5 C 14,5 km/h (3 Bft) 95,83 %
29.05.2018 04:57 18,3 C 23,3 C 82 % 1012,2 hPa 0,0 l/m 10,1 km/h (2 Bft) O 94 0 min 0,000 mm 0,0 UV-I 5 W/m 15,2 C 16,7 C 16,1 km/h (3 Bft) 100,00 %
29.05.2018 04:58 18,3 C 23,3 C 82 % 1012,1 hPa 0,0 l/m 12,6 km/h (3 Bft) O-SO 111 0 min 0,000 mm 0,0 UV-I 5 W/m 15,2 C 15,9 C 16,1 km/h (3 Bft) 91,67 %
29.05.2018 04:59 18,3 C 23,3 C 82 % 1012,2 hPa 0,0 l/m 12,5 km/h (3 Bft) O-SO 113 0 min 0,000 mm 0,0 UV-I 5 W/m 15,2 C 15,9 C 14,5 km/h (3 Bft) 100,00 %
29.05.2018 05:00 18,3 C 23,3 C 82 % 1012,2 hPa 0,0 l/m 13,0 km/h (3 Bft) O 83 0 min 0,025 mm 0,0 UV-I 5 W/m 15,2 C 15,8 C 19,3 km/h (3 Bft) 96,15 %
29.05.2018 05:01 18,3 C 23,3 C 81 % 1012,2 hPa 0,0 l/m 11,3 km/h (2 Bft) O-SO 108 0 min 0,000 mm 0,0 UV-I 5 W/m 15,0 C 16,3 C 14,5 km/h (3 Bft) 95,65 %
29.05.2018 05:02 18,3 C 23,3 C 81 % 1012,2 hPa 0,0 l/m 10,9 km/h (2 Bft) O 99 0 min 0,000 mm 0,0 UV-I 5 W/m 15,0 C 16,4 C 14,5 km/h (3 Bft) 100,00 %
29.05.2018 05:03 18,3 C 23,3 C 81 % 1012,3 hPa 0,0 l/m 10,3 km/h (2 Bft) O-SO 109 0 min 0,000 mm 0,0 UV-I 6 W/m 15,0 C 16,7 C 17,7 km/h (3 Bft) 95,83 %
29.05.2018 05:04 18,3 C 23,3 C 81 % 1012,2 hPa 0,0 l/m 11,6 km/h (2 Bft) O 80 0 min 0,000 mm 0,0 UV-I 7 W/m 15,0 C 16,2 C 14,5 km/h (3 Bft) 95,65 %
29.05.2018 05:05 18,3 C 23,3 C 81 % 1012,2 hPa 0,0 l/m 6,6 km/h (2 Bft) O-NO 70 0 min 0,000 mm 0,0 UV-I 7 W/m 15,0 C 18,2 C 9,7 km/h (2 Bft) 100,00 %
29.05.2018 05:06 18,3 C 23,3 C 81 % 1012,2 hPa 0,0 l/m 6,8 km/h (2 Bft) O-NO 70 0 min 0,000 mm 0,0 UV-I 7 W/m 15,0 C 18,1 C 11,3 km/h (2 Bft) 95,65 %
29.05.2018 05:07 18,2 C 23,3 C 81 % 1012,3 hPa 0,0 l/m 6,7 km/h (2 Bft) O-SO 103 0 min 0,000 mm 0,0 UV-I 7 W/m 14,9 C 18,1 C 9,7 km/h (2 Bft) 100,00 %
29.05.2018 05:08 18,2 C 23,3 C 81 % 1012,2 hPa 0,0 l/m 7,1 km/h (2 Bft) O 94 0 min 0,000 mm 0,0 UV-I 7 W/m 14,9 C 17,9 C 11,3 km/h (2 Bft) 100,00 %
29.05.2018 05:09 18,2 C 23,3 C 81 % 1012,2 hPa 0,0 l/m 6,8 km/h (2 Bft) O 94 0 min 0,000 mm 0,0 UV-I 8 W/m 14,9 C 18,0 C 12,9 km/h (3 Bft) 100,00 %
29.05.2018 05:10 18,1 C 23,3 C 82 % 1012,2 hPa 0,0 l/m 5,4 km/h (1 Bft) O-NO 68 0 min 0,000 mm 0,0 UV-I 9 W/m 15,0 C 18,1 C 9,7 km/h (2 Bft) 95,65 %
29.05.2018 05:11 18,1 C 23,3 C 82 % 1012,3 hPa 0,0 l/m 5,2 km/h (1 Bft) O 82 0 min 0,000 mm 0,0 UV-I 9 W/m 15,0 C 18,1 C 8,0 km/h (2 Bft) 100,00 %
29.05.2018 05:12 18,0 C 23,3 C 82 % 1012,3 hPa 0,0 l/m 6,4 km/h (2 Bft) O-NO 76 0 min 0,000 mm 0,0 UV-I 9 W/m 14,9 C 18,0 C 8,0 km/h (2 Bft) 95,65 %
29.05.2018 05:13 17,9 C 23,3 C 82 % 1012,3 hPa 0,0 l/m 7,1 km/h (2 Bft) O-SO 107 0 min 0,000 mm 0,0 UV-I 10 W/m 14,8 C 17,6 C 9,7 km/h (2 Bft) 100,00 %
29.05.2018 05:14 17,9 C 23,3 C 82 % 1012,3 hPa 0,0 l/m 7,5 km/h (2 Bft) O 80 0 min 0,000 mm 0,0 UV-I 11 W/m 14,8 C 17,4 C 11,3 km/h (2 Bft) 95,65 %
29.05.2018 05:15 17,8 C 23,3 C 83 % 1012,3 hPa 0,0 l/m 6,0 km/h (2 Bft) O 82 0 min 0,000 mm 0,0 UV-I 11 W/m 14,9 C 17,8 C 9,7 km/h (2 Bft) 100,00 %
29.05.2018 05:16 17,7 C 23,3 C 83 % 1012,3 hPa 0,0 l/m 5,3 km/h (1 Bft) O 83 0 min 0,000 mm 0,0 UV-I 11 W/m 14,8 C 17,7 C 6,4 km/h (2 Bft) 100,00 %
29.05.2018 05:17 17,6 C 23,3 C 83 % 1012,4 hPa 0,0 l/m 5,7 km/h (1 Bft) O-NO 76 0 min 0,000 mm 0,0 UV-I 12 W/m 14,7 C 17,6 C 8,0 km/h (2 Bft) 100,00 %
29.05.2018 05:18 17,4 C 23,3 C 83 % 1012,3 hPa 0,0 l/m 4,8 km/h (1 Bft) O-NO 68 0 min 0,000 mm 0,0 UV-I 12 W/m 14,5 C 17,4 C 6,4 km/h (2 Bft) 95,65 %
29.05.2018 05:19 17,2 C 23,3 C 83 % 1012,3 hPa 0,0 l/m 5,5 km/h (1 Bft) O-NO 70 0 min 0,000 mm 0,0 UV-I 12 W/m 14,3 C 17,2 C 6,4 km/h (2 Bft) 95,83 %
29.05.2018 05:20 17,1 C 23,3 C 84 % 1012,3 hPa 0,0 l/m 5,7 km/h (1 Bft) O-NO 69 0 min 0,000 mm 0,0 UV-I 13 W/m 14,4 C 17,1 C 6,4 km/h (2 Bft) 95,65 %
29.05.2018 05:21 16,9 C 23,3 C 85 % 1012,3 hPa 0,0 l/m 6,4 km/h (2 Bft) O-NO 65 0 min 0,000 mm 0,0 UV-I 14 W/m 14,4 C 16,9 C 8,0 km/h (2 Bft) 100,00 %
29.05.2018 05:22 16,8 C 23,3 C 86 % 1012,3 hPa 0,0 l/m 5,6 km/h (1 Bft) O-NO 65 0 min 0,000 mm 0,0 UV-I 14 W/m 14,4 C 16,8 C 6,4 km/h (2 Bft) 95,65 %
29.05.2018 05:23 16,8 C 23,3 C 86 % 1012,3 hPa 0,0 l/m 4,5 km/h (1 Bft) O 84 1 min 0,000 mm 0,0 UV-I 14 W/m 14,4 C 16,8 C 6,4 km/h (2 Bft) 100,00 %
29.05.2018 05:24 16,8 C 23,3 C 86 % 1012,3 hPa 0,0 l/m 4,8 km/h (1 Bft) O 85 1 min 0,000 mm 0,0 UV-I 16 W/m 14,4 C 16,8 C 6,4 km/h (2 Bft) 91,30 %
29.05.2018 05:25 16,9 C 23,3 C 86 % 1012,3 hPa 0,0 l/m 5,8 km/h (2 Bft) O-NO 77 1 min 0,000 mm 0,0 UV-I 16 W/m 14,5 C 16,9 C 8,0 km/h (2 Bft) 100,00 %
29.05.2018 05:26 17,0 C 23,3 C 86 % 1012,3 hPa 0,0 l/m 5,8 km/h (2 Bft) O-NO 74 1 min 0,000 mm 0,0 UV-I 17 W/m 14,6 C 17,0 C 6,4 km/h (2 Bft) 100,00 %
29.05.2018 05:27 17,1 C 23,3 C 86 % 1012,3 hPa 0,0 l/m 4,1 km/h (1 Bft) O-NO 76 1 min 0,000 mm 0,0 UV-I 18 W/m 14,7 C 17,1 C 4,8 km/h (1 Bft) 95,65 %
29.05.2018 05:28 17,2 C 23,3 C 86 % 1012,3 hPa 0,0 l/m 4,2 km/h (1 Bft) O-NO 68 1 min 0,000 mm 0,0 UV-I 18 W/m 14,8 C 17,2 C 6,4 km/h (2 Bft) 100,00 %
29.05.2018 05:29 17,2 C 23,3 C 85 % 1012,3 hPa 0,0 l/m 4,0 km/h (1 Bft) O 98 1 min 0,000 mm 0,0 UV-I 19 W/m 14,7 C 17,2 C 6,4 km/h (2 Bft) 100,00 %
29.05.2018 05:30 17,3 C 23,3 C 85 % 1012,3 hPa 0,0 l/m 4,0 km/h (1 Bft) O-NO 67 1 min 0,000 mm 0,0 UV-I 21 W/m 14,8 C 17,3 C 6,4 km/h (2 Bft) 100,00 %
29.05.2018 05:31 17,3 C 23,3 C 85 % 1012,3 hPa 0,0 l/m 4,8 km/h (1 Bft) O 84 1 min 0,000 mm 0,0 UV-I 24 W/m 14,8 C 17,3 C 6,4 km/h (2 Bft) 95,65 %
29.05.2018 05:32 17,3 C 23,3 C 85 % 1012,3 hPa 0,0 l/m 5,2 km/h (1 Bft) O-NO 78 1 min 0,000 mm 0,0 UV-I 25 W/m 14,8 C 17,3 C 6,4 km/h (2 Bft) 100,00 %
29.05.2018 05:33 17,4 C 23,3 C 84 % 1012,3 hPa 0,0 l/m 5,1 km/h (1 Bft) O 97 1 min 0,000 mm 0,0 UV-I 26 W/m 14,7 C 17,4 C 9,7 km/h (2 Bft) 100,00 %
29.05.2018 05:34 17,4 C 23,3 C 84 % 1012,2 hPa 0,0 l/m 6,2 km/h (2 Bft) O 96 1 min 0,000 mm 0,0 UV-I 26 W/m 14,7 C 17,4 C 9,7 km/h (2 Bft) 100,00 %
29.05.2018 05:35 17,4 C 23,3 C 84 % 1012,2 hPa 0,0 l/m 7,1 km/h (2 Bft) O 87 1 min 0,000 mm 0,0 UV-I 28 W/m 14,7 C 17,1 C 9,7 km/h (2 Bft) 100,00 %
29.05.2018 05:36 17,4 C 23,3 C 84 % 1012,2 hPa 0,0 l/m 5,4 km/h (1 Bft) O 92 1 min 0,000 mm 0,0 UV-I 30 W/m 14,7 C 17,4 C 6,4 km/h (2 Bft) 95,83 %
29.05.2018 05:37 17,4 C 23,3 C 84 % 1012,2 hPa 0,0 l/m 8,0 km/h (2 Bft) O-SO 105 1 min 0,000 mm 0,0 UV-I 31 W/m 14,7 C 16,6 C 11,3 km/h (2 Bft) 95,65 %
29.05.2018 05:38 17,4 C 23,3 C 84 % 1012,2 hPa 0,0 l/m 6,6 km/h (2 Bft) O 100 1 min 0,000 mm 0,0 UV-I 32 W/m 14,7 C 17,3 C 9,7 km/h (2 Bft) 100,00 %
29.05.2018 05:39 17,4 C 23,3 C 84 % 1012,2 hPa 0,0 l/m 8,2 km/h (2 Bft) O 92 1 min 0,000 mm 0,0 UV-I 34 W/m 14,7 C 16,5 C 11,3 km/h (2 Bft) 91,30 %
29.05.2018 05:40 17,5 C 23,3 C 84 % 1012,3 hPa 0,0 l/m 8,5 km/h (2 Bft) O 86 1 min 0,000 mm 0,0 UV-I 36 W/m 14,8 C 16,5 C 11,3 km/h (2 Bft) 100,00 %
29.05.2018 05:41 17,5 C 23,3 C 84 % 1012,2 hPa 0,0 l/m 6,8 km/h (2 Bft) O 94 1 min 0,000 mm 0,0 UV-I 37 W/m 14,8 C 17,3 C 9,7 km/h (2 Bft) 96,15 %
29.05.2018 05:42 17,6 C 23,3 C 84 % 1012,2 hPa 0,0 l/m 7,5 km/h (2 Bft) O-SO 113 1 min 0,000 mm 0,0 UV-I 39 W/m 14,9 C 17,1 C 12,9 km/h (3 Bft) 95,83 %
29.05.2018 05:43 17,6 C 23,3 C 84 % 1012,3 hPa 0,0 l/m 9,2 km/h (2 Bft) O 84 1 min 0,000 mm 0,0 UV-I 37 W/m 14,9 C 16,3 C 12,9 km/h (3 Bft) 100,00 %
29.05.2018 05:44 17,7 C 23,3 C 84 % 1012,2 hPa 0,0 l/m 9,2 km/h (2 Bft) O 91 0 min 0,000 mm 0,0 UV-I 36 W/m 15,0 C 16,4 C 14,5 km/h (3 Bft) 95,83 %
29.05.2018 05:45 17,7 C 23,3 C 83 % 1012,2 hPa 0,0 l/m 8,6 km/h (2 Bft) O-SO 102 0 min 0,000 mm 0,0 UV-I 36 W/m 14,8 C 16,7 C 12,9 km/h (3 Bft) 100,00 %
29.05.2018 05:46 17,7 C 23,3 C 83 % 1012,2 hPa 0,0 l/m 8,9 km/h (2 Bft) O 90 1 min 0,000 mm 0,0 UV-I 41 W/m 14,8 C 16,5 C 11,3 km/h (2 Bft) 95,65 %
29.05.2018 05:47 17,7 C 23,3 C 83 % 1012,1 hPa 0,0 l/m 8,2 km/h (2 Bft) O 81 1 min 0,000 mm 0,0 UV-I 47 W/m 14,8 C 16,8 C 12,9 km/h (3 Bft) 100,00 %
29.05.2018 05:48 17,7 C 23,3 C 83 % 1012,1 hPa 0,0 l/m 6,5 km/h (2 Bft) O-NO 76 1 min 0,000 mm 0,0 UV-I 50 W/m 14,8 C 17,7 C 9,7 km/h (2 Bft) 91,30 %
29.05.2018 05:49 17,7 C 23,3 C 83 % 1012,2 hPa 0,0 l/m 6,9 km/h (2 Bft) O 87 1 min 0,000 mm 0,0 UV-I 53 W/m 14,8 C 17,5 C 9,7 km/h (2 Bft) 96,15 %
29.05.2018 05:50 17,7 C 23,3 C 83 % 1012,2 hPa 0,0 l/m 6,4 km/h (2 Bft) O-NO 59 1 min 0,000 mm 0,0 UV-I 54 W/m 14,8 C 17,7 C 8,0 km/h (2 Bft) 100,00 %
29.05.2018 05:51 17,7 C 23,3 C 83 % 1012,1 hPa 0,0 l/m 8,3 km/h (2 Bft) O-NO 73 1 min 0,000 mm 0,0 UV-I 55 W/m 14,8 C 16,8 C 11,3 km/h (2 Bft) 100,00 %
29.05.2018 05:52 17,6 C 23,3 C 83 % 1012,2 hPa 0,0 l/m 7,2 km/h (2 Bft) O-NO 60 1 min 0,000 mm 0,0 UV-I 58 W/m 14,7 C 17,2 C 11,3 km/h (2 Bft) 95,65 %
29.05.2018 05:53 17,6 C 23,3 C 84 % 1012,2 hPa 0,0 l/m 6,7 km/h (2 Bft) O-SO 105 1 min 0,000 mm 0,0 UV-I 54 W/m 14,9 C 17,5 C 9,7 km/h (2 Bft) 96,30 %
29.05.2018 05:54 17,6 C 23,3 C 84 % 1012,1 hPa 0,0 l/m 6,9 km/h (2 Bft) O-NO 78 1 min 0,000 mm 0,0 UV-I 62 W/m 14,9 C 17,4 C 11,3 km/h (2 Bft) 100,00 %
29.05.2018 05:55 17,5 C 23,3 C 84 % 1012,2 hPa 0,0 l/m 6,9 km/h (2 Bft) O-NO 66 1 min 0,000 mm 0,0 UV-I 62 W/m 14,8 C 17,3 C 8,0 km/h (2 Bft) 95,83 %
29.05.2018 05:56 17,5 C 23,3 C 84 % 1012,2 hPa 0,0 l/m 5,7 km/h (1 Bft) O 86 1 min 0,000 mm 0,0 UV-I 63 W/m 14,8 C 17,5 C 8,0 km/h (2 Bft) 100,00 %
29.05.2018 05:57 17,5 C 23,3 C 84 % 1012,1 hPa 0,0 l/m 6,7 km/h (2 Bft) O-NO 77 1 min 0,000 mm 0,0 UV-I 64 W/m 14,8 C 17,4 C 8,0 km/h (2 Bft) 95,83 %
29.05.2018 05:58 17,4 C 23,3 C 84 % 1012,1 hPa 0,0 l/m 5,9 km/h (2 Bft) O-NO 74 1 min 0,000 mm 0,0 UV-I 68 W/m 14,7 C 17,4 C 8,0 km/h (2 Bft) 95,65 %
29.05.2018 05:59 17,4 C 23,3 C 84 % 1012,2 hPa 0,0 l/m 5,2 km/h (1 Bft) O-NO 69 1 min 0,000 mm 0,0 UV-I 70 W/m 14,7 C 17,4 C 6,4 km/h (2 Bft) 92,31 %
29.05.2018 06:00 17,4 C 23,3 C 84 % 1012,2 hPa 0,0 l/m 4,6 km/h (1 Bft) O-NO 76 1 min 0,025 mm 0,0 UV-I 72 W/m 14,7 C 17,4 C 6,4 km/h (2 Bft) 95,65 %
29.05.2018 06:02 17,5 C 23,3 C 84 % 1012,2 hPa 0,0 l/m 4,6 km/h (1 Bft) O-NO 76 2 min 0,000 mm 0,0 UV-I 76 W/m 14,8 C 17,5 C 6,4 km/h (2 Bft) 97,87 %
29.05.2018 06:03 17,6 C 23,3 C 84 % 1012,1 hPa 0,0 l/m 5,1 km/h (1 Bft) O 81 1 min 0,000 mm 0,0 UV-I 77 W/m 14,9 C 17,6 C 8,0 km/h (2 Bft) 100,00 %
29.05.2018 06:04 17,6 C 23,3 C 84 % 1012,2 hPa 0,0 l/m 5,5 km/h (1 Bft) O 80 1 min 0,000 mm 0,0 UV-I 79 W/m 14,9 C 17,6 C 8,0 km/h (2 Bft) 91,67 %
29.05.2018 06:05 17,6 C 23,3 C 84 % 1012,2 hPa 0,0 l/m 6,0 km/h (2 Bft) O 80 1 min 0,000 mm 0,0 UV-I 81 W/m 14,9 C 17,6 C 8,0 km/h (2 Bft) 100,00 %
29.05.2018 06:06 17,6 C 23,3 C 84 % 1012,2 hPa 0,0 l/m 5,7 km/h (1 Bft) O-SO 108 1 min 0,000 mm 0,0 UV-I 83 W/m 14,9 C 17,6 C 9,7 km/h (2 Bft) 95,83 %
29.05.2018 06:07 17,6 C 23,3 C 84 % 1012,2 hPa 0,0 l/m 6,7 km/h (2 Bft) O 96 1 min 0,000 mm 0,0 UV-I 85 W/m 14,9 C 17,5 C 9,7 km/h (2 Bft) 96,90 %
29.05.2018 06:08 17,6 C 23,3 C 84 % 1012,2 hPa 0,0 l/m 7,0 km/h (2 Bft) NO 51 1 min 0,000 mm 0,0 UV-I 87 W/m 14,9 C 17,3 C 11,3 km/h (2 Bft) 97,37 %
29.05.2018 06:09 17,6 C 23,3 C 84 % 1012,2 hPa 0,0 l/m 6,0 km/h (2 Bft) O-SO 111 1 min 0,000 mm 0,0 UV-I 89 W/m 14,9 C 17,6 C 9,7 km/h (2 Bft) 95,65 %
29.05.2018 06:10 17,7 C 23,3 C 84 % 1012,2 hPa 0,0 l/m 5,2 km/h (1 Bft) O 82 1 min 0,000 mm 0,0 UV-I 91 W/m 15,0 C 17,7 C 9,7 km/h (2 Bft) 95,83 %
29.05.2018 06:11 17,7 C 23,3 C 84 % 1012,2 hPa 0,0 l/m 5,4 km/h (1 Bft) O 96 1 min 0,000 mm 0,0 UV-I 93 W/m 15,0 C 17,7 C 9,7 km/h (2 Bft) 96,15 %
29.05.2018 06:12 17,7 C 23,3 C 84 % 1012,2 hPa 0,0 l/m 6,4 km/h (2 Bft) O 92 1 min 0,000 mm 0,0 UV-I 96 W/m 15,0 C 17,7 C 12,9 km/h (3 Bft) 100,00 %
29.05.2018 06:13 17,7 C 23,3 C 84 % 1012,2 hPa 0,0 l/m 7,7 km/h (2 Bft) O-SO 113 1 min 0,000 mm 0,0 UV-I 97 W/m 15,0 C 17,1 C 11,3 km/h (2 Bft) 100,00 %
29.05.2018 06:14 17,7 C 23,3 C 84 % 1012,2 hPa 0,0 l/m 8,5 km/h (2 Bft) O 87 1 min 0,000 mm 0,0 UV-I 98 W/m 15,0 C 16,7 C 12,9 km/h (3 Bft) 100,00 %
29.05.2018 06:15 17,7 C 23,3 C 84 % 1012,2 hPa 0,0 l/m 7,8 km/h (2 Bft) O 86 1 min 0,000 mm 0,0 UV-I 101 W/m 15,0 C 17,0 C 11,3 km/h (2 Bft) 100,00 %
29.05.2018 06:16 17,8 C 23,3 C 84 % 1012,2 hPa 0,0 l/m 8,3 km/h (2 Bft) O 84 1 min 0,000 mm 0,0 UV-I 104 W/m 15,1 C 16,9 C 12,9 km/h (3 Bft) 100,00 %
29.05.2018 06:17 17,8 C 23,3 C 83 % 1012,3 hPa 0,0 l/m 8,2 km/h (2 Bft) O 85 1 min 0,000 mm 0,0 UV-I 106 W/m 14,9 C 17,0 C 12,9 km/h (3 Bft) 100,00 %
29.05.2018 06:18 17,8 C 23,3 C 83 % 1012,2 hPa 0,0 l/m 9,3 km/h (2 Bft) O 88 1 min 0,000 mm 0,0 UV-I 110 W/m 14,9 C 16,5 C 12,9 km/h (3 Bft) 95,83 %
29.05.2018 06:19 17,9 C 23,3 C 83 % 1012,2 hPa 0,0 l/m 9,0 km/h (2 Bft) O 82 1 min 0,000 mm 0,0 UV-I 112 W/m 15,0 C 16,7 C 12,9 km/h (3 Bft) 96,15 %
29.05.2018 06:20 17,9 C 23,3 C 83 % 1012,2 hPa 0,0 l/m 7,4 km/h (2 Bft) O-NO 71 1 min 0,000 mm 0,0 UV-I 114 W/m 15,0 C 17,4 C 11,3 km/h (2 Bft) 100,00 %
29.05.2018 06:21 17,9 C 23,3 C 83 % 1012,2 hPa 0,0 l/m 8,8 km/h (2 Bft) O-NO 71 1 min 0,000 mm 0,0 UV-I 116 W/m 15,0 C 16,8 C 12,9 km/h (3 Bft) 100,00 %
29.05.2018 06:22 17,9 C 23,3 C 83 % 1012,2 hPa 0,0 l/m 8,6 km/h (2 Bft) O 84 1 min 0,000 mm 0,0 UV-I 120 W/m 15,0 C 16,9 C 12,9 km/h (3 Bft) 95,83 %
29.05.2018 06:23 17,9 C 23,3 C 83 % 1012,2 hPa 0,0 l/m 4,9 km/h (1 Bft) O-NO 78 1 min 0,000 mm 0,0 UV-I 122 W/m 15,0 C 17,9 C 6,4 km/h (2 Bft) 100,00 %
29.05.2018 06:24 17,9 C 23,3 C 83 % 1012,2 hPa 0,0 l/m 3,8 km/h (1 Bft) NO 53 1 min 0,000 mm 0,0 UV-I 124 W/m 15,0 C 17,9 C 4,8 km/h (1 Bft) 100,00 %
29.05.2018 06:25 17,8 C 23,3 C 83 % 1012,2 hPa 0,0 l/m 5,0 km/h (1 Bft) O-NO 74 1 min 0,000 mm 0,0 UV-I 126 W/m 14,9 C 17,8 C 8,0 km/h (2 Bft) 100,00 %
29.05.2018 06:26 17,8 C 23,3 C 84 % 1012,2 hPa 0,0 l/m 5,1 km/h (1 Bft) O 82 1 min 0,000 mm 0,0 UV-I 129 W/m 15,1 C 17,8 C 6,4 km/h (2 Bft) 95,65 %
29.05.2018 06:27 17,8 C 23,3 C 84 % 1012,2 hPa 0,0 l/m 5,6 km/h (1 Bft) O-NO 71 1 min 0,000 mm 0,0 UV-I 132 W/m 15,1 C 17,8 C 8,0 km/h (2 Bft) 95,83 %
29.05.2018 06:28 17,8 C 23,3 C 84 % 1012,2 hPa 0,0 l/m 6,6 km/h (2 Bft) O 79 1 min 0,000 mm 0,0 UV-I 134 W/m 15,1 C 17,7 C 8,0 km/h (2 Bft) 100,00 %
29.05.2018 06:29 17,8 C 23,3 C 84 % 1012,2 hPa 0,0 l/m 5,5 km/h (1 Bft) O-NO 57 1 min 0,000 mm 0,0 UV-I 138 W/m 15,1 C 17,8 C 8,0 km/h (2 Bft) 95,83 %
29.05.2018 06:30 17,8 C 23,3 C 84 % 1012,2 hPa 0,0 l/m 4,5 km/h (1 Bft) O-NO 62 1 min 0,000 mm 0,0 UV-I 140 W/m 15,1 C 17,8 C 6,4 km/h (2 Bft) 100,00 %
29.05.2018 06:31 17,8 C 23,3 C 84 % 1012,2 hPa 0,0 l/m 4,2 km/h (1 Bft) O-NO 62 1 min 0,000 mm 0,0 UV-I 142 W/m 15,1 C 17,8 C 6,4 km/h (2 Bft) 100,00 %
29.05.2018 06:32 17,8 C 23,3 C 85 % 1012,2 hPa 0,0 l/m 4,4 km/h (1 Bft) O-NO 68 1 min 0,000 mm 0,0 UV-I 143 W/m 15,2 C 17,8 C 4,8 km/h (1 Bft) 100,00 %
29.05.2018 06:33 17,8 C 23,3 C 85 % 1012,2 hPa 0,0 l/m 3,8 km/h (1 Bft) O 101 1 min 0,000 mm 0,0 UV-I 146 W/m 15,2 C 17,8 C 6,4 km/h (2 Bft) 100,00 %
29.05.2018 06:34 17,8 C 23,3 C 85 % 1012,3 hPa 0,0 l/m 4,2 km/h (1 Bft) O 101 1 min 0,000 mm 0,0 UV-I 146 W/m 15,2 C 17,8 C 6,4 km/h (2 Bft) 100,00 %
29.05.2018 06:35 17,9 C 23,3 C 85 % 1012,2 hPa 0,0 l/m 3,8 km/h (1 Bft) NO 55 1 min 0,000 mm 0,0 UV-I 148 W/m 15,3 C 17,9 C 6,4 km/h (2 Bft) 100,00 %
29.05.2018 06:36 17,9 C 23,3 C 85 % 1012,2 hPa 0,0 l/m 5,2 km/h (1 Bft) O-NO 62 1 min 0,000 mm 0,0 UV-I 150 W/m 15,3 C 17,9 C 6,4 km/h (2 Bft) 100,00 %
29.05.2018 06:37 17,9 C 23,3 C 85 % 1012,2 hPa 0,0 l/m 5,0 km/h (1 Bft) O-NO 64 1 min 0,000 mm 0,0 UV-I 152 W/m 15,3 C 17,9 C 6,4 km/h (2 Bft) 100,00 %
29.05.2018 06:38 17,9 C 23,3 C 85 % 1012,3 hPa 0,0 l/m 4,2 km/h (1 Bft) O-NO 71 1 min 0,000 mm 0,0 UV-I 154 W/m 15,3 C 17,9 C 6,4 km/h (2 Bft) 100,00 %
29.05.2018 06:39 17,9 C 23,3 C 85 % 1012,2 hPa 0,0 l/m 5,2 km/h (1 Bft) O-NO 70 1 min 0,000 mm 0,0 UV-I 156 W/m 15,3 C 17,9 C 6,4 km/h (2 Bft) 100,00 %
29.05.2018 06:40 18,0 C 23,3 C 84 % 1012,3 hPa 0,0 l/m 5,9 km/h (2 Bft) O-NO 76 1 min 0,000 mm 0,0 UV-I 158 W/m 15,3 C 18,0 C 6,4 km/h (2 Bft) 100,00 %
29.05.2018 06:41 18,1 C 23,3 C 84 % 1012,3 hPa 0,0 l/m 6,6 km/h (2 Bft) O-NO 71 1 min 0,000 mm 0,0 UV-I 161 W/m 15,4 C 18,0 C 8,0 km/h (2 Bft) 100,00 %
29.05.2018 06:42 18,1 C 23,3 C 84 % 1012,2 hPa 0,0 l/m 4,6 km/h (1 Bft) O 87 1 min 0,000 mm 0,0 UV-I 162 W/m 15,4 C 18,1 C 6,4 km/h (2 Bft) 100,00 %
29.05.2018 06:43 18,2 C 23,3 C 84 % 1012,3 hPa 0,0 l/m 5,9 km/h (2 Bft) O-NO 65 1 min 0,000 mm 0,0 UV-I 163 W/m 15,4 C 18,2 C 9,7 km/h (2 Bft) 95,65 %
29.05.2018 06:44 18,2 C 23,3 C 84 % 1012,3 hPa 0,0 l/m 5,5 km/h (1 Bft) O-NO 57 1 min 0,000 mm 0,0 UV-I 164 W/m 15,4 C 18,2 C 8,0 km/h (2 Bft) 100,00 %
29.05.2018 06:45 18,2 C 23,3 C 84 % 1012,2 hPa 0,0 l/m 6,4 km/h (2 Bft) O-NO 60 1 min 0,000 mm 0,0 UV-I 167 W/m 15,4 C 18,2 C 8,0 km/h (2 Bft) 91,30 %
29.05.2018 06:46 18,3 C 23,3 C 85 % 1012,3 hPa 0,0 l/m 5,8 km/h (2 Bft) O-NO 62 1 min 0,000 mm 0,0 UV-I 170 W/m 15,7 C 18,3 C 6,4 km/h (2 Bft) 100,00 %
29.05.2018 06:47 18,3 C 23,3 C 84 % 1012,3 hPa 0,0 l/m 4,2 km/h (1 Bft) O 89 1 min 0,000 mm 0,0 UV-I 173 W/m 15,5 C 18,3 C 4,8 km/h (1 Bft) 100,00 %
29.05.2018 06:48 18,3 C 23,3 C 84 % 1012,3 hPa 0,0 l/m 5,0 km/h (1 Bft) O 81 1 min 0,000 mm 0,0 UV-I 175 W/m 15,5 C 18,3 C 6,4 km/h (2 Bft) 100,00 %
29.05.2018 06:49 18,3 C 23,3 C 83 % 1012,3 hPa 0,0 l/m 4,5 km/h (1 Bft) O 89 1 min 0,000 mm 0,0 UV-I 177 W/m 15,4 C 18,3 C 6,4 km/h (2 Bft) 95,65 %
29.05.2018 06:50 18,4 C 23,3 C 83 % 1012,3 hPa 0,0 l/m 4,8 km/h (1 Bft) O 80 1 min 0,000 mm 0,0 UV-I 179 W/m 15,5 C 18,4 C 6,4 km/h (2 Bft) 100,00 %
29.05.2018 06:51 18,4 C 23,3 C 83 % 1012,3 hPa 0,0 l/m 5,3 km/h (1 Bft) O-NO 71 1 min 0,000 mm 0,0 UV-I 181 W/m 15,5 C 18,4 C 6,4 km/h (2 Bft) 100,00 %
29.05.2018 06:52 18,5 C 23,3 C 83 % 1012,3 hPa 0,0 l/m 6,2 km/h (2 Bft) O 82 1 min 0,000 mm 0,0 UV-I 181 W/m 15,6 C 18,5 C 8,0 km/h (2 Bft) 100,00 %
29.05.2018 06:53 18,6 C 23,3 C 83 % 1012,3 hPa 0,0 l/m 7,4 km/h (2 Bft) O-NO 75 1 min 0,000 mm 0,0 UV-I 183 W/m 15,7 C 18,1 C 8,0 km/h (2 Bft) 100,00 %
29.05.2018 06:54 18,6 C 23,3 C 83 % 1012,3 hPa 0,0 l/m 6,8 km/h (2 Bft) O-NO 67 1 min 0,000 mm 0,0 UV-I 184 W/m 15,7 C 18,4 C 8,0 km/h (2 Bft) 100,00 %
29.05.2018 06:55 18,7 C 23,3 C 82 % 1012,3 hPa 0,0 l/m 7,7 km/h (2 Bft) O 88 1 min 0,000 mm 0,0 UV-I 187 W/m 15,6 C 18,1 C 11,3 km/h (2 Bft) 100,00 %
29.05.2018 06:56 18,7 C 23,3 C 81 % 1012,3 hPa 0,0 l/m 6,5 km/h (2 Bft) O-NO 74 1 min 0,000 mm 0,0 UV-I 191 W/m 15,4 C 18,7 C 8,0 km/h (2 Bft) 96,15 %
29.05.2018 06:57 18,8 C 22,8 C 82 % 1012,3 hPa 0,0 l/m 5,1 km/h (1 Bft) O 98 1 min 0,000 mm 0,0 UV-I 193 W/m 15,7 C 18,8 C 9,7 km/h (2 Bft) 96,55 %
29.05.2018 06:58 18,8 C 22,8 C 82 % 1012,3 hPa 0,0 l/m 6,9 km/h (2 Bft) O-NO 73 1 min 0,000 mm 0,0 UV-I 195 W/m 15,7 C 18,6 C 9,7 km/h (2 Bft) 100,00 %
29.05.2018 06:59 18,8 C 23,3 C 81 % 1012,3 hPa 0,0 l/m 6,6 km/h (2 Bft) O-NO 77 1 min 0,000 mm 0,0 UV-I 198 W/m 15,5 C 18,7 C 8,0 km/h (2 Bft) 95,83 %
29.05.2018 07:00 18,8 C 23,3 C 82 % 1012,3 hPa 0,0 l/m 5,3 km/h (1 Bft) O 84 1 min 0,102 mm 0,0 UV-I 201 W/m 15,7 C 18,8 C 11,3 km/h (2 Bft) 95,65 %
29.05.2018 07:02 18,9 C 23,3 C 81 % 1012,3 hPa 0,0 l/m 5,7 km/h (1 Bft) O 92 2 min 0,000 mm 0,0 UV-I 204 W/m 15,6 C 18,9 C 8,0 km/h (2 Bft) 100,00 %
29.05.2018 07:03 19,0 C 23,3 C 81 % 1012,3 hPa 0,0 l/m 4,4 km/h (1 Bft) O-NO 67 1 min 0,000 mm 0,0 UV-I 209 W/m 15,7 C 19,0 C 6,4 km/h (2 Bft) 100,00 %
29.05.2018 07:04 19,1 C 23,3 C 80 % 1012,3 hPa 0,0 l/m 5,7 km/h (1 Bft) O-NO 68 1 min 0,000 mm 0,0 UV-I 211 W/m 15,6 C 19,1 C 8,0 km/h (2 Bft) 100,00 %
29.05.2018 07:05 19,1 C 23,3 C 81 % 1012,2 hPa 0,0 l/m 5,8 km/h (2 Bft) O 79 1 min 0,000 mm 0,0 UV-I 213 W/m 15,8 C 19,1 C 8,0 km/h (2 Bft) 100,00 %
29.05.2018 07:06 19,1 C 23,3 C 81 % 1012,1 hPa 0,0 l/m 5,6 km/h (1 Bft) NO 45 1 min 0,000 mm 0,0 UV-I 216 W/m 15,8 C 19,1 C 8,0 km/h (2 Bft) 100,00 %
29.05.2018 07:07 19,2 C 23,3 C 81 % 1012,2 hPa 0,0 l/m 7,1 km/h (2 Bft) O 88 1 min 0,000 mm 0,0 UV-I 219 W/m 15,9 C 18,9 C 9,7 km/h (2 Bft) 100,00 %
29.05.2018 07:08 19,2 C 23,3 C 81 % 1012,2 hPa 0,0 l/m 8,4 km/h (2 Bft) NO 56 1 min 0,000 mm 0,0 UV-I 221 W/m 15,9 C 18,4 C 12,9 km/h (3 Bft) 100,00 %
29.05.2018 07:09 19,2 C 23,3 C 81 % 1012,2 hPa 0,0 l/m 7,7 km/h (2 Bft) O-NO 66 1 min 0,000 mm 0,0 UV-I 223 W/m 15,9 C 18,6 C 9,7 km/h (2 Bft) 100,00 %
29.05.2018 07:10 19,3 C 23,3 C 80 % 1012,2 hPa 0,0 l/m 6,9 km/h (2 Bft) NO 49 1 min 0,000 mm 0,0 UV-I 228 W/m 15,8 C 19,1 C 11,3 km/h (2 Bft) 100,00 %
29.05.2018 07:11 19,3 C 23,3 C 80 % 1012,2 hPa 0,0 l/m 6,2 km/h (2 Bft) O 82 1 min 0,000 mm 0,0 UV-I 230 W/m 15,8 C 19,3 C 9,7 km/h (2 Bft) 100,00 %
29.05.2018 07:12 19,3 C 23,3 C 80 % 1012,2 hPa 0,0 l/m 4,4 km/h (1 Bft) O-NO 68 1 min 0,000 mm 0,0 UV-I 230 W/m 15,8 C 19,3 C 6,4 km/h (2 Bft) 95,65 %
29.05.2018 07:13 19,3 C 22,8 C 80 % 1012,1 hPa 0,0 l/m 6,8 km/h (2 Bft) O 81 1 min 0,000 mm 0,0 UV-I 219 W/m 15,8 C 19,1 C 9,7 km/h (2 Bft) 100,00 %
29.05.2018 07:14 19,4 C 22,8 C 79 % 1012,1 hPa 0,0 l/m 5,8 km/h (2 Bft) O 84 1 min 0,000 mm 0,0 UV-I 231 W/m 15,7 C 19,4 C 8,0 km/h (2 Bft) 95,65 %
29.05.2018 07:15 19,4 C 23,3 C 80 % 1012,1 hPa 0,0 l/m 6,6 km/h (2 Bft) O 94 1 min 0,000 mm 0,0 UV-I 236 W/m 15,9 C 19,3 C 8,0 km/h (2 Bft) 100,00 %
29.05.2018 07:16 19,4 C 23,3 C 79 % 1012,1 hPa 0,0 l/m 4,7 km/h (1 Bft) O 82 1 min 0,000 mm 0,0 UV-I 237 W/m 15,7 C 19,4 C 6,4 km/h (2 Bft) 95,83 %
29.05.2018 07:17 19,4 C 23,3 C 79 % 1012,1 hPa 0,0 l/m 6,4 km/h (2 Bft) O-NO 57 1 min 0,000 mm 0,0 UV-I 236 W/m 15,7 C 19,4 C 11,3 km/h (2 Bft) 100,00 %
29.05.2018 07:18 19,4 C 23,3 C 79 % 1012,1 hPa 0,0 l/m 8,3 km/h (2 Bft) O-NO 65 1 min 0,000 mm 0,0 UV-I 248 W/m 15,7 C 18,6 C 11,3 km/h (2 Bft) 100,00 %
29.05.2018 07:19 19,5 C 23,3 C 79 % 1012,2 hPa 0,0 l/m 6,7 km/h (2 Bft) O-NO 69 1 min 0,000 mm 0,0 UV-I 251 W/m 15,8 C 19,4 C 11,3 km/h (2 Bft) 96,15 %
29.05.2018 07:20 19,5 C 23,3 C 78 % 1012,1 hPa 0,0 l/m 9,1 km/h (2 Bft) O-NO 66 1 min 0,000 mm 0,0 UV-I 253 W/m 15,6 C 18,4 C 14,5 km/h (3 Bft) 100,00 %
29.05.2018 07:21 19,6 C 23,3 C 78 % 1012,1 hPa 0,0 l/m 10,4 km/h (2 Bft) O-NO 70 1 min 0,000 mm 0,0 UV-I 257 W/m 15,7 C 18,1 C 14,5 km/h (3 Bft) 100,00 %
29.05.2018 07:22 19,6 C 23,3 C 79 % 1012,2 hPa 0,0 l/m 9,7 km/h (2 Bft) O-NO 68 1 min 0,000 mm 0,0 UV-I 259 W/m 15,9 C 18,3 C 11,3 km/h (2 Bft) 95,83 %
29.05.2018 07:23 19,6 C 23,3 C 78 % 1012,1 hPa 0,0 l/m 8,1 km/h (2 Bft) O 84 1 min 0,000 mm 0,0 UV-I 261 W/m 15,7 C 18,9 C 11,3 km/h (2 Bft) 95,65 %
29.05.2018 07:24 19,7 C 23,3 C 78 % 1012,2 hPa 0,0 l/m 7,5 km/h (2 Bft) O-NO 59 1 min 0,000 mm 0,0 UV-I 263 W/m 15,8 C 19,2 C 11,3 km/h (2 Bft) 100,00 %
29.05.2018 07:25 19,7 C 23,3 C 77 % 1012,1 hPa 0,0 l/m 5,1 km/h (1 Bft) O-NO 73 1 min 0,000 mm 0,0 UV-I 266 W/m 15,5 C 19,7 C 8,0 km/h (2 Bft) 96,15 %
29.05.2018 07:26 19,7 C 23,3 C 77 % 1012,2 hPa 0,0 l/m 5,9 km/h (2 Bft) O 97 1 min 0,000 mm 0,0 UV-I 269 W/m 15,5 C 19,7 C 11,3 km/h (2 Bft) 100,00 %
29.05.2018 07:27 19,8 C 23,3 C 78 % 1012,2 hPa 0,0 l/m 9,3 km/h (2 Bft) O-NO 66 1 min 0,000 mm 0,0 UV-I 272 W/m 15,8 C 18,7 C 12,9 km/h (3 Bft) 100,00 %
29.05.2018 07:28 19,8 C 23,3 C 77 % 1012,2 hPa 0,0 l/m 10,5 km/h (2 Bft) O-NO 74 1 min 0,000 mm 0,0 UV-I 275 W/m 15,6 C 18,3 C 14,5 km/h (3 Bft) 100,00 %
29.05.2018 07:29 19,8 C 23,3 C 76 % 1012,2 hPa 0,0 l/m 8,7 km/h (2 Bft) NO 48 1 min 0,000 mm 0,0 UV-I 277 W/m 15,4 C 18,9 C 12,9 km/h (3 Bft) 100,00 %
29.05.2018 07:30 19,8 C 23,3 C 77 % 1012,2 hPa 0,0 l/m 8,6 km/h (2 Bft) O 80 1 min 0,000 mm 0,0 UV-I 279 W/m 15,6 C 18,9 C 12,9 km/h (3 Bft) 100,00 %
29.05.2018 07:31 19,9 C 23,3 C 77 % 1012,1 hPa 0,0 l/m 11,7 km/h (2 Bft) O-NO 71 1 min 0,000 mm 0,0 UV-I 280 W/m 15,7 C 18,0 C 14,5 km/h (3 Bft) 95,65 %
29.05.2018 07:32 19,9 C 23,3 C 76 % 1012,2 hPa 0,0 l/m 13,0 km/h (3 Bft) NO 47 1 min 0,000 mm 0,0 UV-I 285 W/m 15,5 C 17,6 C 14,5 km/h (3 Bft) 100,00 %
29.05.2018 07:33 19,9 C 23,3 C 76 % 1012,2 hPa 0,0 l/m 8,2 km/h (2 Bft) O-NO 65 1 min 0,000 mm 0,0 UV-I 287 W/m 15,5 C 19,2 C 12,9 km/h (3 Bft) 100,00 %
29.05.2018 07:34 19,9 C 23,3 C 76 % 1012,2 hPa 0,0 l/m 7,0 km/h (2 Bft) NO 49 1 min 0,000 mm 0,1 UV-I 289 W/m 15,5 C 19,7 C 11,3 km/h (2 Bft) 100,00 %
29.05.2018 07:35 20,0 C 23,3 C 76 % 1012,2 hPa 0,0 l/m 9,7 km/h (2 Bft) O-NO 64 1 min 0,000 mm 0,5 UV-I 291 W/m 15,6 C 18,7 C 14,5 km/h (3 Bft) 91,67 %
29.05.2018 07:36 20,1 C 23,3 C 76 % 1012,2 hPa 0,0 l/m 9,2 km/h (2 Bft) O-NO 69 1 min 0,000 mm 0,5 UV-I 293 W/m 15,7 C 19,0 C 12,9 km/h (3 Bft) 100,00 %
29.05.2018 07:37 20,1 C 23,3 C 76 % 1012,2 hPa 0,0 l/m 6,5 km/h (2 Bft) O 80 1 min 0,000 mm 0,5 UV-I 295 W/m 15,7 C 20,1 C 8,0 km/h (2 Bft) 95,83 %
29.05.2018 07:38 20,1 C 23,3 C 76 % 1012,2 hPa 0,0 l/m 8,0 km/h (2 Bft) O-NO 59 1 min 0,000 mm 0,5 UV-I 297 W/m 15,7 C 19,5 C 12,9 km/h (3 Bft) 100,00 %
29.05.2018 07:39 20,2 C 23,3 C 77 % 1012,2 hPa 0,0 l/m 7,4 km/h (2 Bft) O-NO 71 1 min 0,000 mm 0,5 UV-I 300 W/m 16,0 C 19,8 C 9,7 km/h (2 Bft) 95,83 %
29.05.2018 07:40 20,2 C 23,3 C 76 % 1012,2 hPa 0,0 l/m 6,4 km/h (2 Bft) NO 52 1 min 0,000 mm 0,5 UV-I 303 W/m 15,8 C 20,2 C 9,7 km/h (2 Bft) 95,65 %
29.05.2018 07:41 20,3 C 23,3 C 76 % 1012,2 hPa 0,0 l/m 9,4 km/h (2 Bft) O-NO 64 1 min 0,000 mm 0,5 UV-I 305 W/m 15,9 C 19,2 C 12,9 km/h (3 Bft) 95,83 %
29.05.2018 07:42 20,3 C 23,3 C 76 % 1012,2 hPa 0,0 l/m 10,9 km/h (2 Bft) O-NO 68 1 min 0,000 mm 0,5 UV-I 307 W/m 15,9 C 18,7 C 14,5 km/h (3 Bft) 92,31 %
29.05.2018 07:43 20,4 C 23,3 C 75 % 1012,2 hPa 0,0 l/m 9,0 km/h (2 Bft) O-NO 78 1 min 0,000 mm 0,5 UV-I 309 W/m 15,8 C 19,4 C 12,9 km/h (3 Bft) 100,00 %
29.05.2018 07:44 20,4 C 23,3 C 75 % 1012,2 hPa 0,0 l/m 6,3 km/h (2 Bft) O-NO 71 1 min 0,000 mm 0,5 UV-I 311 W/m 15,8 C 20,4 C 11,3 km/h (2 Bft) 92,31 %
29.05.2018 07:45 20,4 C 23,3 C 75 % 1012,2 hPa 0,0 l/m 10,2 km/h (2 Bft) NO 46 1 min 0,000 mm 0,5 UV-I 313 W/m 15,8 C 19,0 C 16,1 km/h (3 Bft) 95,83 %
29.05.2018 07:46 20,4 C 23,3 C 76 % 1012,2 hPa 0,0 l/m 8,9 km/h (2 Bft) NO 53 1 min 0,000 mm 0,5 UV-I 316 W/m 16,0 C 19,4 C 12,9 km/h (3 Bft) 95,65 %
29.05.2018 07:47 20,5 C 23,3 C 75 % 1012,2 hPa 0,0 l/m 8,0 km/h (2 Bft) O-NO 61 1 min 0,000 mm 0,5 UV-I 318 W/m 15,9 C 19,9 C 11,3 km/h (2 Bft) 95,83 %
29.05.2018 07:48 20,6 C 23,3 C 76 % 1012,2 hPa 0,0 l/m 11,5 km/h (2 Bft) O-NO 69 1 min 0,000 mm 0,5 UV-I 321 W/m 16,2 C 18,9 C 14,5 km/h (3 Bft) 86,96 %
29.05.2018 07:49 20,6 C 23,3 C 76 % 1012,2 hPa 0,0 l/m 8,5 km/h (2 Bft) NO 47 1 min 0,000 mm 0,6 UV-I 323 W/m 16,2 C 19,8 C 12,9 km/h (3 Bft) 91,67 %
29.05.2018 07:50 20,7 C 23,3 C 76 % 1012,2 hPa 0,0 l/m 9,7 km/h (2 Bft) O-NO 57 1 min 0,000 mm 0,6 UV-I 327 W/m 16,3 C 19,5 C 14,5 km/h (3 Bft) 100,00 %
29.05.2018 07:51 20,8 C 23,3 C 75 % 1012,2 hPa 0,0 l/m 5,8 km/h (2 Bft) O 91 1 min 0,000 mm 0,6 UV-I 329 W/m 16,2 C 20,8 C 8,0 km/h (2 Bft) 91,67 %
29.05.2018 07:52 20,8 C 23,3 C 75 % 1012,2 hPa 0,0 l/m 7,1 km/h (2 Bft) O-NO 63 1 min 0,000 mm 0,6 UV-I 331 W/m 16,2 C 20,5 C 11,3 km/h (2 Bft) 97,14 %
29.05.2018 07:53 20,8 C 23,3 C 74 % 1012,2 hPa 0,0 l/m 8,0 km/h (2 Bft) O-SO 102 1 min 0,000 mm 0,6 UV-I 335 W/m 16,0 C 20,2 C 12,9 km/h (3 Bft) 91,67 %
29.05.2018 07:54 20,8 C 23,3 C 74 % 1012,2 hPa 0,0 l/m 7,4 km/h (2 Bft) O 96 1 min 0,000 mm 0,6 UV-I 338 W/m 16,0 C 20,4 C 11,3 km/h (2 Bft) 96,30 %
29.05.2018 07:55 20,8 C 23,3 C 74 % 1012,2 hPa 0,0 l/m 6,4 km/h (2 Bft) O-NO 57 1 min 0,000 mm 0,6 UV-I 341 W/m 16,0 C 20,8 C 11,3 km/h (2 Bft) 91,30 %
29.05.2018 07:56 20,9 C 23,3 C 74 % 1012,2 hPa 0,0 l/m 5,3 km/h (1 Bft) O-SO 106 1 min 0,000 mm 0,6 UV-I 343 W/m 16,1 C 20,9 C 8,0 km/h (2 Bft) 100,00 %
29.05.2018 07:57 20,9 C 23,3 C 74 % 1012,2 hPa 0,0 l/m 7,8 km/h (2 Bft) O 86 1 min 0,000 mm 0,6 UV-I 346 W/m 16,1 C 20,4 C 11,3 km/h (2 Bft) 91,30 %
29.05.2018 07:58 20,9 C 23,3 C 73 % 1012,3 hPa 0,0 l/m 7,2 km/h (2 Bft) O-NO 61 1 min 0,000 mm 0,6 UV-I 349 W/m 15,9 C 20,6 C 12,9 km/h (3 Bft) 100,00 %
29.05.2018 07:59 20,9 C 23,3 C 74 % 1012,3 hPa 0,0 l/m 5,3 km/h (1 Bft) O-NO 71 1 min 0,000 mm 0,6 UV-I 351 W/m 16,1 C 20,9 C 6,4 km/h (2 Bft) 91,30 %
29.05.2018 08:00 20,9 C 23,3 C 74 % 1012,3 hPa 0,0 l/m 6,8 km/h (2 Bft) O-SO 103 1 min 0,178 mm 0,6 UV-I 353 W/m 16,1 C 20,8 C 11,3 km/h (2 Bft) 91,67 %
29.05.2018 08:02 21,0 C 23,3 C 72 % 1012,2 hPa 0,0 l/m 9,4 km/h (2 Bft) O-SO 113 2 min 0,000 mm 0,7 UV-I 356 W/m 15,8 C 19,9 C 12,9 km/h (3 Bft) 95,74 %
29.05.2018 08:03 21,0 C 23,3 C 72 % 1012,3 hPa 0,0 l/m 7,4 km/h (2 Bft) O-NO 69 1 min 0,000 mm 0,7 UV-I 360 W/m 15,8 C 20,6 C 11,3 km/h (2 Bft) 100,00 %
29.05.2018 08:04 21,0 C 23,3 C 73 % 1012,3 hPa 0,0 l/m 8,7 km/h (2 Bft) O 83 1 min 0,000 mm 0,7 UV-I 363 W/m 16,0 C 20,2 C 12,9 km/h (3 Bft) 95,83 %
29.05.2018 08:05 21,0 C 23,3 C 72 % 1012,2 hPa 0,0 l/m 11,5 km/h (2 Bft) O-NO 71 1 min 0,000 mm 0,7 UV-I 366 W/m 15,8 C 19,3 C 16,1 km/h (3 Bft) 100,00 %
29.05.2018 08:06 21,1 C 23,3 C 72 % 1012,2 hPa 0,0 l/m 10,1 km/h (2 Bft) O-NO 74 1 min 0,000 mm 0,7 UV-I 367 W/m 15,8 C 19,8 C 12,9 km/h (3 Bft) 91,67 %
29.05.2018 08:07 21,1 C 23,3 C 72 % 1012,2 hPa 0,0 l/m 8,3 km/h (2 Bft) O 82 1 min 0,000 mm 0,7 UV-I 370 W/m 15,8 C 20,4 C 12,9 km/h (3 Bft) 100,00 %
29.05.2018 08:09 21,1 C 23,3 C 71 % 1012,2 hPa 0,0 l/m 11,0 km/h (2 Bft) O 92 2 min 0,000 mm 0,7 UV-I 374 W/m 15,6 C 19,6 C 14,5 km/h (3 Bft) 94,00 %
29.05.2018 08:10 21,1 C 23,3 C 71 % 1012,2 hPa 0,0 l/m 8,7 km/h (2 Bft) O-NO 70 1 min 0,000 mm 0,7 UV-I 381 W/m 15,6 C 20,3 C 12,9 km/h (3 Bft) 100,00 %
29.05.2018 08:11 21,1 C 23,3 C 72 % 1012,2 hPa 0,0 l/m 9,7 km/h (2 Bft) O-NO 71 1 min 0,000 mm 0,8 UV-I 383 W/m 15,8 C 19,9 C 12,9 km/h (3 Bft) 100,00 %
29.05.2018 08:12 21,2 C 23,3 C 72 % 1012,2 hPa 0,0 l/m 9,5 km/h (2 Bft) O-NO 70 1 min 0,000 mm 0,8 UV-I 385 W/m 15,9 C 20,1 C 14,5 km/h (3 Bft) 96,30 %
29.05.2018 08:13 21,2 C 23,3 C 72 % 1012,2 hPa 0,0 l/m 9,4 km/h (2 Bft) O-NO 67 1 min 0,000 mm 0,8 UV-I 390 W/m 15,9 C 20,1 C 12,9 km/h (3 Bft) 95,83 %
29.05.2018 08:14 21,3 C 23,3 C 72 % 1012,2 hPa 0,0 l/m 7,6 km/h (2 Bft) O-NO 78 1 min 0,000 mm 0,8 UV-I 391 W/m 16,0 C 20,9 C 12,9 km/h (3 Bft) 95,65 %
29.05.2018 08:15 21,3 C 23,3 C 72 % 1012,2 hPa 0,0 l/m 8,4 km/h (2 Bft) O-NO 75 1 min 0,000 mm 0,8 UV-I 396 W/m 16,0 C 20,6 C 12,9 km/h (3 Bft) 95,83 %
29.05.2018 08:16 21,4 C 23,3 C 72 % 1012,2 hPa 0,0 l/m 6,6 km/h (2 Bft) O 81 1 min 0,000 mm 0,8 UV-I 398 W/m 16,1 C 21,3 C 9,7 km/h (2 Bft) 95,65 %
29.05.2018 08:17 21,4 C 23,3 C 72 % 1012,2 hPa 0,0 l/m 8,3 km/h (2 Bft) O-NO 59 1 min 0,000 mm 0,8 UV-I 400 W/m 16,1 C 20,7 C 9,7 km/h (2 Bft) 95,83 %
29.05.2018 08:18 21,5 C 23,3 C 72 % 1012,2 hPa 0,0 l/m 7,7 km/h (2 Bft) NO 54 1 min 0,000 mm 0,8 UV-I 403 W/m 16,2 C 21,0 C 12,9 km/h (3 Bft) 100,00 %
29.05.2018 08:19 21,6 C 23,3 C 72 % 1012,2 hPa 0,0 l/m 7,8 km/h (2 Bft) NO 36 1 min 0,000 mm 0,8 UV-I 406 W/m 16,3 C 21,1 C 11,3 km/h (2 Bft) 91,67 %
29.05.2018 08:20 21,7 C 23,3 C 72 % 1012,2 hPa 0,0 l/m 7,5 km/h (2 Bft) O-NO 69 1 min 0,000 mm 0,8 UV-I 409 W/m 16,4 C 21,3 C 9,7 km/h (2 Bft) 92,31 %
29.05.2018 08:21 21,7 C 23,3 C 71 % 1012,3 hPa 0,0 l/m 5,6 km/h (1 Bft) O 91 1 min 0,000 mm 0,9 UV-I 412 W/m 16,2 C 21,7 C 9,7 km/h (2 Bft) 95,83 %
29.05.2018 08:22 21,7 C 23,3 C 71 % 1012,2 hPa 0,0 l/m 9,8 km/h (2 Bft) O-NO 73 1 min 0,000 mm 0,9 UV-I 415 W/m 16,2 C 20,6 C 14,5 km/h (3 Bft) 91,30 %
29.05.2018 08:23 21,8 C 23,3 C 70 % 1012,2 hPa 0,0 l/m 11,5 km/h (2 Bft) O-NO 78 1 min 0,000 mm 0,7 UV-I 418 W/m 16,1 C 20,2 C 14,5 km/h (3 Bft) 100,00 %
29.05.2018 08:24 21,8 C 23,3 C 69 % 1012,2 hPa 0,0 l/m 9,9 km/h (2 Bft) O-NO 65 1 min 0,000 mm 0,5 UV-I 420 W/m 15,9 C 20,7 C 12,9 km/h (3 Bft) 91,30 %
29.05.2018 08:25 21,8 C 23,3 C 70 % 1012,3 hPa 0,0 l/m 9,0 km/h (2 Bft) O 98 1 min 0,000 mm 0,8 UV-I 422 W/m 16,1 C 20,9 C 12,9 km/h (3 Bft) 100,00 %
29.05.2018 08:26 21,8 C 23,3 C 69 % 1012,3 hPa 0,0 l/m 8,2 km/h (2 Bft) O-SO 105 1 min 0,000 mm 0,9 UV-I 426 W/m 15,9 C 21,2 C 14,5 km/h (3 Bft) 91,30 %
29.05.2018 08:27 21,8 C 23,3 C 69 % 1012,3 hPa 0,0 l/m 6,9 km/h (2 Bft) O-NO 61 1 min 0,000 mm 0,9 UV-I 428 W/m 15,9 C 21,6 C 11,3 km/h (2 Bft) 100,00 %
29.05.2018 08:28 21,8 C 23,3 C 69 % 1012,3 hPa 0,0 l/m 9,7 km/h (2 Bft) O 93 1 min 0,000 mm 0,9 UV-I 427 W/m 15,9 C 20,7 C 12,9 km/h (3 Bft) 95,65 %
29.05.2018 08:29 21,9 C 23,3 C 68 % 1012,3 hPa 0,0 l/m 9,2 km/h (2 Bft) O-SO 107 1 min 0,000 mm 0,9 UV-I 428 W/m 15,7 C 21,0 C 12,9 km/h (3 Bft) 100,00 %
29.05.2018 08:30 21,9 C 23,3 C 69 % 1012,2 hPa 0,0 l/m 14,4 km/h (3 Bft) O-SO 107 1 min 0,000 mm 1,0 UV-I 433 W/m 15,9 C 19,7 C 17,7 km/h (3 Bft) 91,67 %
29.05.2018 08:31 21,9 C 23,3 C 68 % 1012,3 hPa 0,0 l/m 10,8 km/h (2 Bft) O 98 1 min 0,000 mm 1,0 UV-I 436 W/m 15,7 C 20,5 C 14,5 km/h (3 Bft) 96,55 %
29.05.2018 08:32 21,9 C 23,3 C 68 % 1012,2 hPa 0,0 l/m 7,5 km/h (2 Bft) O-NO 69 1 min 0,000 mm 1,0 UV-I 441 W/m 15,7 C 21,5 C 9,7 km/h (2 Bft) 95,83 %
29.05.2018 08:33 21,9 C 23,3 C 69 % 1012,2 hPa 0,0 l/m 7,8 km/h (2 Bft) O 100 1 min 0,000 mm 1,0 UV-I 444 W/m 15,9 C 21,4 C 14,5 km/h (3 Bft) 96,15 %
29.05.2018 08:34 21,9 C 23,3 C 68 % 1012,2 hPa 0,0 l/m 9,8 km/h (2 Bft) O 93 1 min 0,000 mm 1,0 UV-I 446 W/m 15,7 C 20,8 C 12,9 km/h (3 Bft) 100,00 %
29.05.2018 08:35 21,9 C 23,3 C 68 % 1012,2 hPa 0,0 l/m 9,7 km/h (2 Bft) O 91 1 min 0,000 mm 1,0 UV-I 447 W/m 15,7 C 20,8 C 12,9 km/h (3 Bft) 95,65 %
29.05.2018 08:36 22,0 C 23,3 C 69 % 1012,2 hPa 0,0 l/m 12,0 km/h (2 Bft) O 94 1 min 0,000 mm 1,0 UV-I 453 W/m 16,0 C 20,3 C 14,5 km/h (3 Bft) 100,00 %
29.05.2018 08:37 22,1 C 23,3 C 69 % 1012,2 hPa 0,0 l/m 13,0 km/h (3 Bft) O 96 1 min 0,000 mm 1,0 UV-I 454 W/m 16,1 C 20,2 C 17,7 km/h (3 Bft) 95,65 %
29.05.2018 08:38 22,1 C 23,3 C 68 % 1012,2 hPa 0,0 l/m 10,8 km/h (2 Bft) O-NO 76 1 min 0,000 mm 1,0 UV-I 454 W/m 15,9 C 20,7 C 16,1 km/h (3 Bft) 100,00 %
29.05.2018 08:39 22,2 C 23,3 C 67 % 1012,2 hPa 0,0 l/m 12,2 km/h (2 Bft) O 90 1 min 0,000 mm 1,0 UV-I 455 W/m 15,8 C 20,5 C 17,7 km/h (3 Bft) 95,65 %
29.05.2018 08:40 22,2 C 23,3 C 67 % 1012,2 hPa 0,0 l/m 11,3 km/h (2 Bft) O 96 1 min 0,000 mm 1,1 UV-I 459 W/m 15,8 C 20,7 C 16,1 km/h (3 Bft) 95,83 %
29.05.2018 08:41 22,2 C 23,3 C 66 % 1012,3 hPa 0,0 l/m 9,7 km/h (2 Bft) O 87 1 min 0,000 mm 1,1 UV-I 462 W/m 15,5 C 21,2 C 12,9 km/h (3 Bft) 95,65 %
29.05.2018 08:42 22,2 C 23,3 C 67 % 1012,2 hPa 0,0 l/m 10,2 km/h (2 Bft) O-SO 107 1 min 0,000 mm 1,1 UV-I 464 W/m 15,8 C 21,0 C 12,9 km/h (3 Bft) 95,83 %
29.05.2018 08:43 22,2 C 23,3 C 67 % 1012,1 hPa 0,0 l/m 11,9 km/h (2 Bft) O 99 1 min 0,000 mm 1,1 UV-I 468 W/m 15,8 C 20,6 C 14,5 km/h (3 Bft) 100,00 %
29.05.2018 08:44 22,2 C 23,3 C 67 % 1012,1 hPa 0,0 l/m 11,9 km/h (2 Bft) O-SO 106 1 min 0,000 mm 1,1 UV-I 469 W/m 15,8 C 20,6 C 14,5 km/h (3 Bft) 95,83 %
29.05.2018 08:45 22,2 C 23,3 C 67 % 1012,2 hPa 0,0 l/m 12,0 km/h (2 Bft) O-SO 113 1 min 0,000 mm 1,1 UV-I 474 W/m 15,8 C 20,6 C 14,5 km/h (3 Bft) 91,30 %
29.05.2018 08:46 22,2 C 23,3 C 67 % 1012,2 hPa 0,0 l/m 11,1 km/h (2 Bft) O-SO 105 1 min 0,000 mm 1,1 UV-I 481 W/m 15,8 C 20,8 C 14,5 km/h (3 Bft) 100,00 %
29.05.2018 08:47 22,2 C 23,3 C 67 % 1012,2 hPa 0,0 l/m 8,5 km/h (2 Bft) O 90 1 min 0,000 mm 1,2 UV-I 481 W/m 15,8 C 21,5 C 11,3 km/h (2 Bft) 100,00 %
29.05.2018 08:48 22,3 C 23,3 C 67 % 1012,2 hPa 0,0 l/m 9,3 km/h (2 Bft) O 101 1 min 0,000 mm 1,2 UV-I 482 W/m 15,9 C 21,4 C 12,9 km/h (3 Bft) 95,83 %
29.05.2018 08:49 22,4 C 23,3 C 67 % 1012,2 hPa 0,0 l/m 4,6 km/h (1 Bft) O 87 1 min 0,000 mm 1,2 UV-I 484 W/m 16,0 C 22,4 C 6,4 km/h (2 Bft) 100,00 %
29.05.2018 08:50 22,6 C 23,3 C 68 % 1012,1 hPa 0,0 l/m 8,8 km/h (2 Bft) O 86 1 min 0,000 mm 1,2 UV-I 488 W/m 16,4 C 21,8 C 12,9 km/h (3 Bft) 95,83 %
29.05.2018 08:51 22,6 C 23,3 C 67 % 1012,2 hPa 0,0 l/m 9,9 km/h (2 Bft) NO 48 1 min 0,000 mm 1,2 UV-I 489 W/m 16,2 C 21,5 C 16,1 km/h (3 Bft) 100,00 %
29.05.2018 08:52 22,7 C 23,3 C 67 % 1012,1 hPa 0,0 l/m 9,3 km/h (2 Bft) O-NO 66 1 min 0,000 mm 1,2 UV-I 487 W/m 16,2 C 21,8 C 12,9 km/h (3 Bft) 100,00 %
29.05.2018 08:53 22,7 C 23,3 C 70 % 1012,2 hPa 0,0 l/m 8,0 km/h (2 Bft) O-NO 66 1 min 0,000 mm 1,2 UV-I 493 W/m 16,9 C 22,2 C 12,9 km/h (3 Bft) 100,00 %
29.05.2018 08:54 22,8 C 23,3 C 68 % 1012,2 hPa 0,0 l/m 9,1 km/h (2 Bft) NO 42 1 min 0,000 mm 1,2 UV-I 494 W/m 16,6 C 22,0 C 14,5 km/h (3 Bft) 100,00 %
29.05.2018 08:55 22,8 C 23,3 C 67 % 1012,2 hPa 0,0 l/m 8,6 km/h (2 Bft) O-NO 59 1 min 0,000 mm 1,2 UV-I 493 W/m 16,3 C 22,1 C 12,9 km/h (3 Bft) 100,00 %
29.05.2018 08:56 22,9 C 23,3 C 68 % 1012,2 hPa 0,0 l/m 6,2 km/h (2 Bft) NO 47 1 min 0,000 mm 1,3 UV-I 498 W/m 16,7 C 22,9 C 8,0 km/h (2 Bft) 100,00 %
29.05.2018 08:57 23,1 C 23,3 C 69 % 1012,1 hPa 0,0 l/m 7,5 km/h (2 Bft) O 86 1 min 0,000 mm 1,3 UV-I 502 W/m 17,1 C 22,8 C 12,9 km/h (3 Bft) 100,00 %
29.05.2018 08:58 23,1 C 23,3 C 66 % 1012,1 hPa 0,0 l/m 5,0 km/h (1 Bft) NO 38 1 min 0,000 mm 1,3 UV-I 505 W/m 16,4 C 23,1 C 6,4 km/h (2 Bft) 100,00 %
29.05.2018 08:59 23,1 C 23,3 C 65 % 1012,1 hPa 0,0 l/m 6,6 km/h (2 Bft) O-SO 102 1 min 0,000 mm 1,3 UV-I 509 W/m 16,2 C 23,0 C 11,3 km/h (2 Bft) 100,00 %
29.05.2018 09:00 23,1 C 23,3 C 66 % 1012,1 hPa 0,0 l/m 6,9 km/h (2 Bft) NO 48 1 min 0,305 mm 1,3 UV-I 512 W/m 16,4 C 22,9 C 9,7 km/h (2 Bft) 100,00 %
29.05.2018 09:02 23,2 C 23,3 C 65 % 1012,1 hPa 0,0 l/m 8,0 km/h (2 Bft) O-NO 61 2 min 0,000 mm 1,3 UV-I 518 W/m 16,2 C 22,7 C 12,9 km/h (3 Bft) 100,00 %
29.05.2018 09:03 23,2 C 23,3 C 66 % 1012,1 hPa 0,0 l/m 10,2 km/h (2 Bft) NO 54 1 min 0,000 mm 1,3 UV-I 521 W/m 16,5 C 22,1 C 12,9 km/h (3 Bft) 100,00 %
29.05.2018 09:04 23,2 C 23,3 C 66 % 1012,1 hPa 0,0 l/m 7,8 km/h (2 Bft) O-NO 65 1 min 0,000 mm 1,3 UV-I 526 W/m 16,5 C 22,8 C 11,3 km/h (2 Bft) 100,00 %
29.05.2018 09:05 23,1 C 23,3 C 66 % 1012,2 hPa 0,0 l/m 6,5 km/h (2 Bft) O 79 1 min 0,000 mm 1,4 UV-I 528 W/m 16,4 C 23,1 C 11,3 km/h (2 Bft) 100,00 %
29.05.2018 09:06 23,2 C 23,3 C 65 % 1012,2 hPa 0,0 l/m 7,9 km/h (2 Bft) O-NO 65 1 min 0,000 mm 1,4 UV-I 534 W/m 16,2 C 22,7 C 12,9 km/h (3 Bft) 100,00 %
29.05.2018 09:07 23,2 C 23,3 C 66 % 1012,1 hPa 0,0 l/m 7,0 km/h (2 Bft) O-NO 65 1 min 0,000 mm 1,4 UV-I 537 W/m 16,5 C 23,0 C 9,7 km/h (2 Bft) 100,00 %
29.05.2018 09:08 23,2 C 23,3 C 66 % 1012,2 hPa 0,0 l/m 9,9 km/h (2 Bft) NO 44 1 min 0,000 mm 1,4 UV-I 541 W/m 16,5 C 22,2 C 14,5 km/h (3 Bft) 100,00 %
29.05.2018 09:09 23,2 C 23,3 C 66 % 1012,2 hPa 0,0 l/m 9,1 km/h (2 Bft) O-NO 63 1 min 0,000 mm 1,4 UV-I 543 W/m 16,5 C 22,4 C 14,5 km/h (3 Bft) 100,00 %
29.05.2018 09:10 23,2 C 23,3 C 66 % 1012,2 hPa 0,0 l/m 10,8 km/h (2 Bft) O-NO 62 1 min 0,000 mm 1,3 UV-I 547 W/m 16,5 C 22,0 C 12,9 km/h (3 Bft) 100,00 %
29.05.2018 09:11 23,3 C 23,3 C 66 % 1012,1 hPa 0,0 l/m 9,1 km/h (2 Bft) O-NO 61 1 min 0,000 mm 1,4 UV-I 550 W/m 16,6 C 22,5 C 12,9 km/h (3 Bft) 100,00 %
29.05.2018 09:12 23,3 C 23,3 C 64 % 1012,1 hPa 0,0 l/m 8,5 km/h (2 Bft) O 85 1 min 0,000 mm 1,5 UV-I 554 W/m 16,1 C 22,7 C 12,9 km/h (3 Bft) 100,00 %
29.05.2018 09:13 23,4 C 23,3 C 64 % 1012,1 hPa 0,0 l/m 6,2 km/h (2 Bft) NO 55 1 min 0,000 mm 1,5 UV-I 555 W/m 16,2 C 23,4 C 11,3 km/h (2 Bft) 100,00 %
29.05.2018 09:14 23,5 C 23,3 C 64 % 1012,1 hPa 0,0 l/m 6,8 km/h (2 Bft) O 90 1 min 0,000 mm 1,5 UV-I 557 W/m 16,3 C 23,4 C 9,7 km/h (2 Bft) 100,00 %
29.05.2018 09:15 23,6 C 23,3 C 63 % 1012,0 hPa 0,0 l/m 7,0 km/h (2 Bft) O-NO 71 1 min 0,000 mm 1,5 UV-I 561 W/m 16,1 C 23,4 C 11,3 km/h (2 Bft) 100,00 %
29.05.2018 09:16 23,6 C 23,3 C 65 % 1012,0 hPa 0,0 l/m 7,8 km/h (2 Bft) O 82 1 min 0,000 mm 1,5 UV-I 563 W/m 16,6 C 23,2 C 11,3 km/h (2 Bft) 100,00 %
29.05.2018 09:17 23,7 C 23,3 C 62 % 1012,0 hPa 0,0 l/m 7,0 km/h (2 Bft) O 89 1 min 0,000 mm 1,5 UV-I 561 W/m 16,0 C 23,5 C 9,7 km/h (2 Bft) 100,00 %
29.05.2018 09:18 23,7 C 23,3 C 63 % 1012,0 hPa 0,0 l/m 4,2 km/h (1 Bft) O-NO 69 1 min 0,000 mm 1,5 UV-I 564 W/m 16,2 C 23,7 C 6,4 km/h (2 Bft) 100,00 %
29.05.2018 09:19 23,8 C 23,3 C 64 % 1012,0 hPa 0,0 l/m 5,9 km/h (2 Bft) O 88 1 min 0,000 mm 1,5 UV-I 565 W/m 16,6 C 23,8 C 8,0 km/h (2 Bft) 100,00 %
29.05.2018 09:20 23,8 C 23,3 C 62 % 1012,1 hPa 0,0 l/m 5,1 km/h (1 Bft) NO 54 1 min 0,000 mm 1,6 UV-I 567 W/m 16,1 C 23,8 C 8,0 km/h (2 Bft) 100,00 %
29.05.2018 09:21 23,8 C 23,3 C 63 % 1012,1 hPa 0,0 l/m 6,4 km/h (2 Bft) O-NO 64 1 min 0,000 mm 1,6 UV-I 568 W/m 16,3 C 23,8 C 8,0 km/h (2 Bft) 91,30 %
29.05.2018 09:22 23,8 C 23,3 C 66 % 1012,1 hPa 0,0 l/m 8,0 km/h (2 Bft) NO 54 1 min 0,000 mm 1,6 UV-I 568 W/m 17,1 C 23,3 C 11,3 km/h (2 Bft) 100,00 %
29.05.2018 09:23 23,9 C 23,3 C 63 % 1012,1 hPa 0,0 l/m 5,3 km/h (1 Bft) NO 37 1 min 0,000 mm 1,6 UV-I 563 W/m 16,4 C 23,9 C 6,4 km/h (2 Bft) 96,15 %
29.05.2018 09:24 23,9 C 23,3 C 63 % 1012,0 hPa 0,0 l/m 9,2 km/h (2 Bft) O-NO 71 1 min 0,000 mm 1,6 UV-I 573 W/m 16,4 C 23,1 C 12,9 km/h (3 Bft) 100,00 %
29.05.2018 09:25 24,0 C 23,3 C 63 % 1012,1 hPa 0,0 l/m 9,5 km/h (2 Bft) O 85 1 min 0,000 mm 2,2 UV-I 601 W/m 16,5 C 23,2 C 12,9 km/h (3 Bft) 100,00 %
29.05.2018 09:26 24,0 C 23,3 C 62 % 1012,1 hPa 0,0 l/m 9,3 km/h (2 Bft) O-NO 76 1 min 0,000 mm 1,7 UV-I 605 W/m 16,3 C 23,2 C 12,9 km/h (3 Bft) 100,00 %
29.05.2018 09:27 23,9 C 23,3 C 61 % 1012,0 hPa 0,0 l/m 7,7 km/h (2 Bft) NO 55 1 min 0,000 mm 2,4 UV-I 606 W/m 15,9 C 23,5 C 11,3 km/h (2 Bft) 100,00 %
29.05.2018 09:28 23,9 C 23,3 C 63 % 1012,1 hPa 0,0 l/m 6,6 km/h (2 Bft) O-NO 77 1 min 0,000 mm 2,4 UV-I 616 W/m 16,4 C 23,9 C 9,7 km/h (2 Bft) 100,00 %
29.05.2018 09:29 24,0 C 23,3 C 63 % 1012,1 hPa 0,0 l/m 8,8 km/h (2 Bft) O 93 1 min 0,000 mm 2,5 UV-I 625 W/m 16,5 C 23,3 C 14,5 km/h (3 Bft) 100,00 %
29.05.2018 09:30 24,1 C 23,3 C 60 % 1012,1 hPa 0,0 l/m 10,6 km/h (2 Bft) O-NO 71 1 min 0,000 mm 2,5 UV-I 631 W/m 15,8 C 23,0 C 12,9 km/h (3 Bft) 96,15 %
29.05.2018 09:31 24,0 C 23,3 C 59 % 1012,1 hPa 0,0 l/m 8,6 km/h (2 Bft) O-NO 75 1 min 0,000 mm 2,5 UV-I 619 W/m 15,5 C 23,4 C 12,9 km/h (3 Bft) 95,83 %
29.05.2018 09:32 24,1 C 23,3 C 62 % 1012,1 hPa 0,0 l/m 9,3 km/h (2 Bft) O-NO 78 1 min 0,000 mm 2,5 UV-I 622 W/m 16,4 C 23,3 C 12,9 km/h (3 Bft) 92,86 %
29.05.2018 09:33 24,1 C 23,3 C 61 % 1012,1 hPa 0,0 l/m 9,8 km/h (2 Bft) O 96 1 min 0,000 mm 2,5 UV-I 637 W/m 16,1 C 23,2 C 12,9 km/h (3 Bft) 100,00 %
29.05.2018 09:34 24,1 C 23,3 C 60 % 1012,0 hPa 0,0 l/m 5,8 km/h (2 Bft) O 84 1 min 0,000 mm 2,6 UV-I 644 W/m 15,8 C 24,1 C 9,7 km/h (2 Bft) 95,65 %
29.05.2018 09:35 24,1 C 23,3 C 61 % 1012,0 hPa 0,0 l/m 8,4 km/h (2 Bft) O 94 1 min 0,000 mm 2,6 UV-I 645 W/m 16,1 C 23,6 C 11,3 km/h (2 Bft) 95,83 %
29.05.2018 09:36 24,1 C 23,3 C 60 % 1012,0 hPa 0,0 l/m 8,5 km/h (2 Bft) O-NO 77 1 min 0,000 mm 2,5 UV-I 636 W/m 15,8 C 23,5 C 11,3 km/h (2 Bft) 95,65 %
29.05.2018 09:37 24,1 C 23,3 C 61 % 1011,9 hPa 0,0 l/m 6,0 km/h (2 Bft) O-NO 61 1 min 0,000 mm 2,6 UV-I 632 W/m 16,1 C 24,1 C 9,7 km/h (2 Bft) 91,67 %
29.05.2018 09:38 24,2 C 23,3 C 61 % 1011,9 hPa 0,0 l/m 5,9 km/h (2 Bft) O 80 1 min 0,000 mm 2,5 UV-I 588 W/m 16,2 C 24,2 C 11,3 km/h (2 Bft) 96,15 %
29.05.2018 09:39 24,3 C 23,3 C 60 % 1011,9 hPa 0,0 l/m 5,8 km/h (2 Bft) O-SO 122 1 min 0,000 mm 2,5 UV-I 589 W/m 16,0 C 24,3 C 9,7 km/h (2 Bft) 95,83 %
29.05.2018 09:40 24,4 C 23,3 C 61 % 1011,9 hPa 0,0 l/m 5,5 km/h (1 Bft) NO 51 1 min 0,000 mm 2,5 UV-I 616 W/m 16,4 C 24,4 C 9,7 km/h (2 Bft) 91,30 %
29.05.2018 09:41 24,5 C 23,3 C 62 % 1011,9 hPa 0,0 l/m 6,9 km/h (2 Bft) NO 52 1 min 0,000 mm 2,6 UV-I 630 W/m 16,7 C 24,4 C 9,7 km/h (2 Bft) 91,67 %
29.05.2018 09:42 24,6 C 23,3 C 62 % 1011,9 hPa 0,0 l/m 8,2 km/h (2 Bft) NO 36 1 min 0,000 mm 2,7 UV-I 639 W/m 16,8 C 24,1 C 14,5 km/h (3 Bft) 91,30 %
29.05.2018 09:43 24,7 C 23,3 C 64 % 1011,9 hPa 0,0 l/m 7,6 km/h (2 Bft) N-NO 30 1 min 0,000 mm 2,7 UV-I 650 W/m 17,4 C 24,4 C 11,3 km/h (2 Bft) 95,83 %
29.05.2018 09:44 24,8 C 23,3 C 64 % 1011,8 hPa 0,0 l/m 5,0 km/h (1 Bft) NO 44 1 min 0,000 mm 2,7 UV-I 656 W/m 17,5 C 24,8 C 6,4 km/h (2 Bft) 95,65 %
29.05.2018 09:45 24,8 C 23,3 C 59 % 1011,9 hPa 0,0 l/m 4,2 km/h (1 Bft) O 97 1 min 0,000 mm 2,8 UV-I 668 W/m 16,2 C 24,8 C 6,4 km/h (2 Bft) 95,83 %
29.05.2018 09:46 24,8 C 23,3 C 59 % 1011,9 hPa 0,0 l/m 5,5 km/h (1 Bft) O-SO 113 1 min 0,000 mm 2,8 UV-I 673 W/m 16,2 C 24,8 C 11,3 km/h (2 Bft) 95,65 %
29.05.2018 09:47 24,8 C 23,3 C 59 % 1011,9 hPa 0,0 l/m 9,0 km/h (2 Bft) O-SO 103 1 min 0,000 mm 2,8 UV-I 678 W/m 16,2 C 24,2 C 11,3 km/h (2 Bft) 100,00 %
29.05.2018 09:48 24,8 C 23,3 C 60 % 1011,9 hPa 0,0 l/m 10,5 km/h (2 Bft) O-NO 57 1 min 0,000 mm 2,8 UV-I 671 W/m 16,5 C 23,8 C 14,5 km/h (3 Bft) 93,33 %
29.05.2018 09:49 24,8 C 23,3 C 60 % 1011,9 hPa 0,0 l/m 8,5 km/h (2 Bft) NO 49 1 min 0,000 mm 2,9 UV-I 674 W/m 16,5 C 24,3 C 11,3 km/h (2 Bft) 100,00 %
29.05.2018 09:50 24,8 C 23,3 C 61 % 1011,9 hPa 0,0 l/m 9,6 km/h (2 Bft) O-NO 78 1 min 0,000 mm 2,9 UV-I 684 W/m 16,8 C 24,0 C 12,9 km/h (3 Bft) 95,83 %
29.05.2018 09:51 24,9 C 23,3 C 59 % 1012,0 hPa 0,0 l/m 7,4 km/h (2 Bft) O-NO 71 1 min 0,000 mm 2,9 UV-I 683 W/m 16,3 C 24,6 C 11,3 km/h (2 Bft) 100,00 %
29.05.2018 09:52 24,9 C 23,3 C 56 % 1012,0 hPa 0,0 l/m 9,7 km/h (2 Bft) O-SO 105 1 min 0,000 mm 2,9 UV-I 667 W/m 15,5 C 24,1 C 11,3 km/h (2 Bft) 95,83 %
29.05.2018 09:53 24,9 C 23,3 C 57 % 1012,0 hPa 0,0 l/m 10,3 km/h (2 Bft) O-SO 106 1 min 0,000 mm 2,9 UV-I 669 W/m 15,8 C 24,0 C 12,9 km/h (3 Bft) 100,00 %
29.05.2018 09:54 24,9 C 23,3 C 59 % 1011,9 hPa 0,0 l/m 10,1 km/h (2 Bft) O 100 1 min 0,000 mm 3,0 UV-I 690 W/m 16,3 C 24,0 C 14,5 km/h (3 Bft) 95,83 %
29.05.2018 09:55 24,9 C 23,3 C 57 % 1012,0 hPa 0,0 l/m 8,8 km/h (2 Bft) O 98 1 min 0,000 mm 3,0 UV-I 703 W/m 15,8 C 24,3 C 11,3 km/h (2 Bft) 96,15 %
29.05.2018 09:56 24,9 C 23,3 C 57 % 1011,9 hPa 0,0 l/m 7,7 km/h (2 Bft) O-NO 62 1 min 0,000 mm 3,1 UV-I 710 W/m 15,8 C 24,6 C 11,3 km/h (2 Bft) 100,00 %
29.05.2018 09:57 25,1 C 23,3 C 62 % 1011,9 hPa 0,0 l/m 6,0 km/h (2 Bft) O-NO 70 1 min 0,000 mm 3,1 UV-I 712 W/m 17,3 C 25,1 C 9,7 km/h (2 Bft) 95,65 %
29.05.2018 09:58 25,2 C 23,3 C 62 % 1011,9 hPa 0,0 l/m 5,6 km/h (1 Bft) O 81 1 min 0,000 mm 3,1 UV-I 708 W/m 17,4 C 25,2 C 6,4 km/h (2 Bft) 100,00 %
29.05.2018 09:59 25,3 C 23,3 C 62 % 1011,9 hPa 0,0 l/m 4,5 km/h (1 Bft) O-NO 76 1 min 0,000 mm 3,1 UV-I 707 W/m 17,5 C 25,3 C 6,4 km/h (2 Bft) 95,65 %
29.05.2018 10:00 25,4 C 23,3 C 61 % 1011,9 hPa 0,0 l/m 5,4 km/h (1 Bft) O-SO 102 1 min 0,431 mm 3,1 UV-I 697 W/m 17,3 C 25,4 C 8,0 km/h (2 Bft) 100,00 %
29.05.2018 10:02 25,6 C 23,3 C 57 % 1012,0 hPa 0,0 l/m 8,2 km/h (2 Bft) O-SO 114 2 min 0,000 mm 3,2 UV-I 707 W/m 16,4 C 25,2 C 12,9 km/h (3 Bft) 98,00 %
29.05.2018 10:03 25,6 C 23,3 C 58 % 1011,9 hPa 0,0 l/m 3,4 km/h (1 Bft) O 86 1 min 0,000 mm 3,2 UV-I 723 W/m 16,7 C 25,6 C 6,4 km/h (2 Bft) 100,00 %
29.05.2018 10:04 25,7 C 23,3 C 57 % 1011,9 hPa 0,0 l/m 8,4 km/h (2 Bft) O-NO 76 1 min 0,000 mm 3,2 UV-I 732 W/m 16,5 C 25,3 C 12,9 km/h (3 Bft) 100,00 %
29.05.2018 10:05 25,7 C 23,3 C 57 % 1011,9 hPa 0,0 l/m 7,7 km/h (2 Bft) NO 55 1 min 0,000 mm 3,3 UV-I 737 W/m 16,5 C 25,4 C 11,3 km/h (2 Bft) 100,00 %
29.05.2018 10:06 25,6 C 23,3 C 59 % 1011,9 hPa 0,0 l/m 7,8 km/h (2 Bft) O-NO 64 1 min 0,000 mm 3,2 UV-I 724 W/m 17,0 C 25,3 C 11,3 km/h (2 Bft) 100,00 %
29.05.2018 10:07 25,6 C 23,3 C 58 % 1011,9 hPa 0,0 l/m 11,4 km/h (2 Bft) O-NO 64 1 min 0,000 mm 3,3 UV-I 722 W/m 16,7 C 24,6 C 16,1 km/h (3 Bft) 93,33 %
29.05.2018 10:08 25,7 C 23,3 C 59 % 1011,9 hPa 0,0 l/m 7,7 km/h (2 Bft) NO 54 1 min 0,000 mm 3,2 UV-I 704 W/m 17,1 C 25,4 C 9,7 km/h (2 Bft) 100,00 %
29.05.2018 10:09 25,6 C 23,3 C 59 % 1011,9 hPa 0,0 l/m 7,2 km/h (2 Bft) NO 39 1 min 0,000 mm 3,2 UV-I 696 W/m 17,0 C 25,4 C 9,7 km/h (2 Bft) 100,00 %
29.05.2018 10:10 25,6 C 23,3 C 60 % 1011,9 hPa 0,0 l/m 8,4 km/h (2 Bft) NO 45 1 min 0,000 mm 3,2 UV-I 681 W/m 17,2 C 25,1 C 9,7 km/h (2 Bft) 100,00 %
29.05.2018 10:11 25,6 C 23,3 C 58 % 1011,8 hPa 0,0 l/m 10,1 km/h (2 Bft) NO 35 1 min 0,000 mm 3,1 UV-I 651 W/m 16,7 C 24,8 C 14,5 km/h (3 Bft) 100,00 %
29.05.2018 10:12 25,6 C 23,3 C 60 % 1011,8 hPa 0,0 l/m 7,8 km/h (2 Bft) NO 42 1 min 0,000 mm 3,1 UV-I 650 W/m 17,2 C 25,3 C 9,7 km/h (2 Bft) 100,00 %
29.05.2018 10:13 25,6 C 23,3 C 58 % 1011,8 hPa 0,0 l/m 6,8 km/h (2 Bft) NO 39 1 min 0,000 mm 3,2 UV-I 669 W/m 16,7 C 25,5 C 11,3 km/h (2 Bft) 100,00 %
29.05.2018 10:14 25,7 C 23,3 C 57 % 1011,8 hPa 0,0 l/m 9,0 km/h (2 Bft) O-SO 106 1 min 0,000 mm 3,2 UV-I 690 W/m 16,5 C 25,1 C 12,9 km/h (3 Bft) 100,00 %
29.05.2018 10:15 25,8 C 23,3 C 56 % 1011,8 hPa 0,0 l/m 12,5 km/h (3 Bft) O 96 1 min 0,000 mm 3,3 UV-I 714 W/m 16,3 C 24,6 C 14,5 km/h (3 Bft) 100,00 %
29.05.2018 10:16 25,8 C 23,3 C 55 % 1011,8 hPa 0,0 l/m 8,2 km/h (2 Bft) O 99 1 min 0,000 mm 3,2 UV-I 683 W/m 16,1 C 25,4 C 11,3 km/h (2 Bft) 95,65 %
29.05.2018 10:17 25,7 C 23,3 C 55 % 1011,9 hPa 0,0 l/m 10,5 km/h (2 Bft) O-NO 63 1 min 0,000 mm 3,3 UV-I 687 W/m 16,0 C 24,8 C 14,5 km/h (3 Bft) 100,00 %
29.05.2018 10:18 25,8 C 23,3 C 55 % 1011,8 hPa 0,0 l/m 10,9 km/h (2 Bft) O-NO 63 1 min 0,000 mm 3,1 UV-I 687 W/m 16,1 C 24,9 C 14,5 km/h (3 Bft) 100,00 %
29.05.2018 10:19 25,8 C 23,3 C 58 % 1011,8 hPa 0,0 l/m 8,8 km/h (2 Bft) O 84 1 min 0,000 mm 3,3 UV-I 687 W/m 16,9 C 25,3 C 14,5 km/h (3 Bft) 100,00 %
29.05.2018 10:20 25,9 C 23,3 C 55 % 1011,8 hPa 0,0 l/m 9,2 km/h (2 Bft) O-NO 63 1 min 0,000 mm 3,3 UV-I 523 W/m 16,2 C 25,3 C 11,3 km/h (2 Bft) 100,00 %
29.05.2018 10:21 25,9 C 23,3 C 58 % 1011,8 hPa 0,0 l/m 9,0 km/h (2 Bft) NO 38 1 min 0,000 mm 3,5 UV-I 425 W/m 17,0 C 25,3 C 14,5 km/h (3 Bft) 91,30 %
29.05.2018 10:22 25,9 C 23,3 C 58 % 1011,8 hPa 0,0 l/m 10,0 km/h (2 Bft) NO 40 1 min 0,000 mm 3,5 UV-I 698 W/m 17,0 C 25,2 C 14,5 km/h (3 Bft) 100,00 %
29.05.2018 10:23 26,0 C 23,3 C 57 % 1011,8 hPa 0,0 l/m 8,3 km/h (2 Bft) O-NO 76 1 min 0,000 mm 3,5 UV-I 738 W/m 16,8 C 25,6 C 11,3 km/h (2 Bft) 100,00 %
29.05.2018 10:24 26,1 C 23,9 C 58 % 1011,8 hPa 0,0 l/m 7,2 km/h (2 Bft) N-NO 28 1 min 0,000 mm 3,6 UV-I 748 W/m 17,2 C 25,9 C 9,7 km/h (2 Bft) 100,00 %
29.05.2018 10:25 26,1 C 23,9 C 58 % 1011,8 hPa 0,0 l/m 6,4 km/h (2 Bft) O-NO 73 1 min 0,000 mm 3,6 UV-I 759 W/m 17,2 C 26,1 C 11,3 km/h (2 Bft) 91,30 %
29.05.2018 10:26 26,2 C 23,9 C 57 % 1011,8 hPa 0,0 l/m 10,7 km/h (2 Bft) O-NO 57 1 min 0,000 mm 3,7 UV-I 772 W/m 17,0 C 25,4 C 14,5 km/h (3 Bft) 100,00 %
29.05.2018 10:27 26,2 C 23,3 C 56 % 1011,8 hPa 0,0 l/m 7,3 km/h (2 Bft) O 79 1 min 0,000 mm 3,7 UV-I 779 W/m 16,7 C 26,0 C 11,3 km/h (2 Bft) 95,65 %
29.05.2018 10:28 26,2 C 23,3 C 57 % 1011,8 hPa 0,0 l/m 10,1 km/h (2 Bft) O-NO 67 1 min 0,000 mm 3,7 UV-I 768 W/m 17,0 C 25,5 C 14,5 km/h (3 Bft) 100,00 %
29.05.2018 10:29 26,3 C 23,3 C 55 % 1011,8 hPa 0,0 l/m 9,9 km/h (2 Bft) O-SO 105 1 min 0,000 mm 3,7 UV-I 761 W/m 16,5 C 25,6 C 14,5 km/h (3 Bft) 95,65 %
29.05.2018 10:30 26,3 C 23,3 C 53 % 1011,8 hPa 0,0 l/m 7,3 km/h (2 Bft) O-NO 67 1 min 0,000 mm 3,7 UV-I 764 W/m 15,9 C 26,1 C 12,9 km/h (3 Bft) 100,00 %
29.05.2018 10:31 26,3 C 23,3 C 54 % 1011,8 hPa 0,0 l/m 12,5 km/h (3 Bft) O-NO 57 1 min 0,000 mm 3,7 UV-I 741 W/m 16,2 C 25,2 C 16,1 km/h (3 Bft) 100,00 %
29.05.2018 10:32 26,3 C 23,3 C 53 % 1011,8 hPa 0,0 l/m 9,8 km/h (2 Bft) O-NO 72 1 min 0,000 mm 3,7 UV-I 725 W/m 15,9 C 25,6 C 12,9 km/h (3 Bft) 100,00 %
29.05.2018 10:33 26,3 C 23,3 C 51 % 1011,8 hPa 0,0 l/m 6,6 km/h (2 Bft) O-NO 72 1 min 0,000 mm 3,7 UV-I 741 W/m 15,3 C 26,3 C 11,3 km/h (2 Bft) 91,30 %
29.05.2018 10:34 26,3 C 23,3 C 52 % 1011,8 hPa 0,0 l/m 10,7 km/h (2 Bft) O 86 1 min 0,000 mm 3,7 UV-I 734 W/m 15,6 C 25,5 C 14,5 km/h (3 Bft) 100,00 %
29.05.2018 10:35 26,3 C 23,3 C 52 % 1011,8 hPa 0,0 l/m 8,3 km/h (2 Bft) O 99 1 min 0,000 mm 3,7 UV-I 742 W/m 15,6 C 25,9 C 12,9 km/h (3 Bft) 100,00 %
29.05.2018 10:36 26,3 C 23,3 C 52 % 1011,8 hPa 0,0 l/m 8,3 km/h (2 Bft) O 96 1 min 0,000 mm 3,8 UV-I 779 W/m 15,6 C 25,9 C 12,9 km/h (3 Bft) 95,83 %
29.05.2018 10:37 26,4 C 23,3 C 52 % 1011,8 hPa 0,0 l/m 9,3 km/h (2 Bft) O-NO 67 1 min 0,000 mm 3,9 UV-I 802 W/m 15,7 C 25,8 C 14,5 km/h (3 Bft) 100,00 %
29.05.2018 10:38 26,6 C 23,3 C 53 % 1011,9 hPa 0,0 l/m 9,7 km/h (2 Bft) O 83 1 min 0,000 mm 4,0 UV-I 813 W/m 16,2 C 26,0 C 12,9 km/h (3 Bft) 100,00 %
29.05.2018 10:39 26,6 C 23,3 C 51 % 1011,8 hPa 0,0 l/m 9,5 km/h (2 Bft) O 87 1 min 0,000 mm 4,0 UV-I 818 W/m 15,6 C 26,0 C 12,9 km/h (3 Bft) 100,00 %
29.05.2018 10:40 26,6 C 23,9 C 51 % 1011,9 hPa 0,0 l/m 5,6 km/h (1 Bft) O 101 1 min 0,000 mm 4,0 UV-I 812 W/m 15,6 C 26,6 C 9,7 km/h (2 Bft) 100,00 %
29.05.2018 10:41 26,7 C 23,3 C 53 % 1011,9 hPa 0,0 l/m 9,9 km/h (2 Bft) NO 53 1 min 0,000 mm 3,9 UV-I 785 W/m 16,3 C 26,1 C 14,5 km/h (3 Bft) 100,00 %
29.05.2018 10:42 26,7 C 23,3 C 54 % 1011,8 hPa 0,0 l/m 9,7 km/h (2 Bft) NO 53 1 min 0,000 mm 3,9 UV-I 777 W/m 16,6 C 26,1 C 12,9 km/h (3 Bft) 100,00 %
29.05.2018 10:43 26,8 C 23,3 C 53 % 1011,8 hPa 0,0 l/m 11,6 km/h (2 Bft) O-NO 61 1 min 0,000 mm 3,7 UV-I 763 W/m 16,4 C 25,9 C 17,7 km/h (3 Bft) 100,00 %
29.05.2018 10:44 26,8 C 23,3 C 52 % 1011,9 hPa 0,0 l/m 6,6 km/h (2 Bft) O 82 1 min 0,000 mm 3,2 UV-I 763 W/m 16,1 C 26,8 C 9,7 km/h (2 Bft) 100,00 %
29.05.2018 10:45 26,7 C 23,3 C 51 % 1011,9 hPa 0,0 l/m 7,3 km/h (2 Bft) O-NO 59 1 min 0,000 mm 3,1 UV-I 523 W/m 15,7 C 26,5 C 11,3 km/h (2 Bft) 100,00 %
29.05.2018 10:46 26,7 C 23,3 C 50 % 1011,9 hPa 0,0 l/m 9,1 km/h (2 Bft) O-NO 76 1 min 0,000 mm 3,3 UV-I 552 W/m 15,4 C 26,2 C 12,9 km/h (3 Bft) 95,65 %
29.05.2018 10:47 26,6 C 23,3 C 54 % 1011,9 hPa 0,0 l/m 7,1 km/h (2 Bft) O-SO 104 1 min 0,000 mm 3,5 UV-I 627 W/m 16,5 C 26,5 C 12,9 km/h (3 Bft) 100,00 %
29.05.2018 10:48 26,7 C 23,3 C 50 % 1011,8 hPa 0,0 l/m 9,9 km/h (2 Bft) O-NO 78 1 min 0,000 mm 3,7 UV-I 690 W/m 15,4 C 26,1 C 12,9 km/h (3 Bft) 100,00 %
29.05.2018 10:49 26,7 C 23,3 C 52 % 1011,8 hPa 0,0 l/m 8,5 km/h (2 Bft) O-NO 57 1 min 0,000 mm 3,8 UV-I 676 W/m 16,0 C 26,3 C 11,3 km/h (2 Bft) 100,00 %
29.05.2018 10:50 26,8 C 23,9 C 51 % 1011,8 hPa 0,0 l/m 7,3 km/h (2 Bft) NO 44 1 min 0,000 mm 3,8 UV-I 712 W/m 15,8 C 26,6 C 9,7 km/h (2 Bft) 96,15 %
29.05.2018 10:51 26,8 C 23,9 C 53 % 1011,8 hPa 0,0 l/m 7,9 km/h (2 Bft) O 99 1 min 0,000 mm 4,0 UV-I 730 W/m 16,4 C 26,5 C 12,9 km/h (3 Bft) 100,00 %
29.05.2018 10:52 26,9 C 23,9 C 55 % 1011,9 hPa 0,0 l/m 9,1 km/h (2 Bft) NO 36 1 min 0,000 mm 4,0 UV-I 765 W/m 17,1 C 26,4 C 12,9 km/h (3 Bft) 92,86 %
29.05.2018 10:53 27,0 C 23,9 C 49 % 1011,8 hPa 0,0 l/m 5,5 km/h (1 Bft) O-NO 67 1 min 0,000 mm 3,9 UV-I 720 W/m 15,4 C 27,0 C 8,0 km/h (2 Bft) 100,00 %
29.05.2018 10:54 27,0 C 23,9 C 48 % 1011,9 hPa 0,0 l/m 5,8 km/h (2 Bft) O-NO 60 1 min 0,000 mm 3,9 UV-I 695 W/m 15,0 C 27,0 C 8,0 km/h (2 Bft) 100,00 %
29.05.2018 10:55 27,1 C 23,3 C 51 % 1011,8 hPa 0,0 l/m 10,7 km/h (2 Bft) O-NO 74 1 min 0,000 mm 3,8 UV-I 690 W/m 16,1 C 26,4 C 17,7 km/h (3 Bft) 100,00 %
29.05.2018 10:56 27,1 C 23,9 C 51 % 1011,8 hPa 0,0 l/m 8,7 km/h (2 Bft) O 82 1 min 0,000 mm 3,9 UV-I 738 W/m 16,1 C 26,7 C 12,9 km/h (3 Bft) 100,00 %
29.05.2018 10:57 27,1 C 23,9 C 52 % 1011,8 hPa 0,0 l/m 7,0 km/h (2 Bft) N-NO 14 1 min 0,000 mm 4,1 UV-I 764 W/m 16,4 C 27,0 C 9,7 km/h (2 Bft) 95,83 %
29.05.2018 10:58 27,2 C 23,9 C 53 % 1011,8 hPa 0,0 l/m 10,1 km/h (2 Bft) NO 53 1 min 0,000 mm 4,1 UV-I 789 W/m 16,8 C 26,6 C 12,9 km/h (3 Bft) 100,00 %
29.05.2018 10:59 27,3 C 23,9 C 52 % 1011,8 hPa 0,0 l/m 10,1 km/h (2 Bft) NO 48 1 min 0,000 mm 4,2 UV-I 797 W/m 16,6 C 26,7 C 14,5 km/h (3 Bft) 100,00 %
29.05.2018 11:00 27,3 C 23,9 C 52 % 1011,7 hPa 0,0 l/m 12,8 km/h (3 Bft) O-NO 76 1 min 0,508 mm 4,1 UV-I 792 W/m 16,6 C 26,3 C 17,7 km/h (3 Bft) 100,00 %
29.05.2018 11:02 27,3 C 23,9 C 47 % 1011,7 hPa 0,0 l/m 10,6 km/h (2 Bft) O-NO 61 2 min 0,000 mm 4,1 UV-I 795 W/m 15,0 C 26,6 C 14,5 km/h (3 Bft) 100,00 %
29.05.2018 11:03 27,3 C 23,9 C 50 % 1011,7 hPa 0,0 l/m 12,1 km/h (2 Bft) O-NO 76 1 min 0,000 mm 3,8 UV-I 669 W/m 15,9 C 26,4 C 14,5 km/h (3 Bft) 100,00 %
29.05.2018 11:04 27,3 C 23,9 C 48 % 1011,7 hPa 0,0 l/m 11,2 km/h (2 Bft) O-NO 59 1 min 0,000 mm 3,5 UV-I 631 W/m 15,3 C 26,5 C 14,5 km/h (3 Bft) 100,00 %
29.05.2018 11:05 27,2 C 23,9 C 49 % 1011,7 hPa 0,0 l/m 8,3 km/h (2 Bft) O-NO 64 1 min 0,000 mm 3,3 UV-I 585 W/m 15,5 C 26,9 C 11,3 km/h (2 Bft) 100,00 %
29.05.2018 11:06 27,1 C 23,9 C 49 % 1011,7 hPa 0,0 l/m 7,4 km/h (2 Bft) NO 54 1 min 0,000 mm 3,4 UV-I 538 W/m 15,4 C 26,9 C 11,3 km/h (2 Bft) 100,00 %
29.05.2018 11:07 27,1 C 23,9 C 51 % 1011,6 hPa 0,0 l/m 7,2 km/h (2 Bft) N-NO 26 1 min 0,000 mm 3,7 UV-I 561 W/m 16,1 C 27,0 C 9,7 km/h (2 Bft) 100,00 %
29.05.2018 11:08 27,1 C 23,9 C 55 % 1011,6 hPa 0,0 l/m 7,1 km/h (2 Bft) O 86 1 min 0,000 mm 4,0 UV-I 667 W/m 17,3 C 27,0 C 9,7 km/h (2 Bft) 100,00 %
29.05.2018 11:09 27,1 C 23,9 C 50 % 1011,6 hPa 0,0 l/m 9,5 km/h (2 Bft) O-NO 63 1 min 0,000 mm 4,1 UV-I 763 W/m 15,8 C 26,6 C 12,9 km/h (3 Bft) 100,00 %
29.05.2018 11:10 27,2 C 23,9 C 47 % 1011,6 hPa 0,0 l/m 8,7 km/h (2 Bft) NO 46 1 min 0,000 mm 4,2 UV-I 763 W/m 14,9 C 26,8 C 11,3 km/h (2 Bft) 100,00 %
29.05.2018 11:11 27,3 C 23,9 C 48 % 1011,6 hPa 0,0 l/m 8,0 km/h (2 Bft) O 86 1 min 0,000 mm 4,3 UV-I 797 W/m 15,3 C 27,0 C 11,3 km/h (2 Bft) 100,00 %
29.05.2018 11:12 27,3 C 23,9 C 47 % 1011,6 hPa 0,0 l/m 10,0 km/h (2 Bft) O 80 1 min 0,000 mm 4,4 UV-I 814 W/m 15,0 C 26,7 C 14,5 km/h (3 Bft) 100,00 %
29.05.2018 11:13 27,4 C 23,9 C 48 % 1011,6 hPa 0,0 l/m 6,6 km/h (2 Bft) N-NO 30 1 min 0,000 mm 4,5 UV-I 859 W/m 15,4 C 27,4 C 12,9 km/h (3 Bft) 100,00 %
29.05.2018 11:14 27,5 C 23,9 C 49 % 1011,6 hPa 0,0 l/m 10,7 km/h (2 Bft) NO 43 1 min 0,000 mm 4,6 UV-I 871 W/m 15,8 C 26,8 C 14,5 km/h (3 Bft) 95,83 %
29.05.2018 11:15 27,5 C 23,9 C 48 % 1011,6 hPa 0,0 l/m 7,1 km/h (2 Bft) N-NO 24 1 min 0,000 mm 4,6 UV-I 868 W/m 15,5 C 27,4 C 9,7 km/h (2 Bft) 100,00 %
29.05.2018 11:16 27,6 C 23,9 C 51 % 1011,6 hPa 0,0 l/m 9,5 km/h (2 Bft) NO 40 1 min 0,000 mm 4,6 UV-I 840 W/m 16,5 C 27,1 C 12,9 km/h (3 Bft) 100,00 %
29.05.2018 11:17 27,7 C 23,9 C 50 % 1011,6 hPa 0,0 l/m 6,8 km/h (2 Bft) NO 41 1 min 0,000 mm 4,4 UV-I 777 W/m 16,3 C 27,6 C 8,0 km/h (2 Bft) 100,00 %
29.05.2018 11:18 27,8 C 23,9 C 49 % 1011,5 hPa 0,0 l/m 10,3 km/h (2 Bft) O 90 1 min 0,000 mm 4,3 UV-I 778 W/m 16,1 C 27,2 C 14,5 km/h (3 Bft) 100,00 %
29.05.2018 11:19 28,0 C 23,9 C 45 % 1011,5 hPa 0,0 l/m 13,5 km/h (3 Bft) O-NO 77 1 min 0,000 mm 4,4 UV-I 790 W/m 14,9 C 27,1 C 19,3 km/h (3 Bft) 100,00 %
29.05.2018 11:20 28,0 C 23,9 C 44 % 1011,5 hPa 0,0 l/m 13,5 km/h (3 Bft) O-SO 109 1 min 0,000 mm 4,3 UV-I 767 W/m 14,6 C 27,1 C 16,1 km/h (3 Bft) 95,65 %
29.05.2018 11:21 28,0 C 23,9 C 44 % 1011,5 hPa 0,0 l/m 9,9 km/h (2 Bft) O-NO 62 1 min 0,000 mm 4,4 UV-I 783 W/m 14,6 C 27,5 C 12,9 km/h (3 Bft) 100,00 %
29.05.2018 11:22 27,9 C 23,9 C 45 % 1011,5 hPa 0,0 l/m 7,4 km/h (2 Bft) NO 42 1 min 0,000 mm 4,4 UV-I 789 W/m 14,8 C 27,7 C 9,7 km/h (2 Bft) 95,65 %
29.05.2018 11:23 28,0 C 23,9 C 48 % 1011,5 hPa 0,0 l/m 11,8 km/h (2 Bft) NO 45 1 min 0,000 mm 4,5 UV-I 805 W/m 15,9 C 27,3 C 17,7 km/h (3 Bft) 100,00 %
29.05.2018 11:24 28,0 C 23,9 C 47 % 1011,5 hPa 0,0 l/m 11,4 km/h (2 Bft) NO 51 1 min 0,000 mm 4,6 UV-I 811 W/m 15,6 C 27,3 C 16,1 km/h (3 Bft) 95,65 %
29.05.2018 11:25 27,9 C 23,9 C 47 % 1011,6 hPa 0,0 l/m 8,0 km/h (2 Bft) O-NO 57 1 min 0,000 mm 4,6 UV-I 815 W/m 15,5 C 27,6 C 11,3 km/h (2 Bft) 100,00 %
29.05.2018 11:26 27,9 C 23,9 C 48 % 1011,5 hPa 0,0 l/m 10,2 km/h (2 Bft) N-NO 25 1 min 0,000 mm 4,7 UV-I 843 W/m 15,9 C 27,3 C 17,7 km/h (3 Bft) 95,65 %
29.05.2018 11:27 27,9 C 23,9 C 48 % 1011,5 hPa 0,0 l/m 10,8 km/h (2 Bft) NO 53 1 min 0,000 mm 4,7 UV-I 858 W/m 15,9 C 27,3 C 16,1 km/h (3 Bft) 100,00 %
29.05.2018 11:28 27,9 C 23,9 C 47 % 1011,5 hPa 0,0 l/m 7,8 km/h (2 Bft) O 98 1 min 0,000 mm 4,8 UV-I 870 W/m 15,5 C 27,7 C 11,3 km/h (2 Bft) 100,00 %
29.05.2018 11:29 28,0 C 23,9 C 46 % 1011,6 hPa 0,0 l/m 11,6 km/h (2 Bft) O 86 1 min 0,000 mm 4,8 UV-I 869 W/m 15,3 C 27,3 C 17,7 km/h (3 Bft) 95,83 %
29.05.2018 11:30 28,1 C 23,9 C 43 % 1011,5 hPa 0,0 l/m 15,3 km/h (3 Bft) O-NO 60 1 min 0,000 mm 4,8 UV-I 862 W/m 14,3 C 27,0 C 20,9 km/h (4 Bft) 100,00 %
29.05.2018 11:31 28,1 C 23,9 C 47 % 1011,5 hPa 0,0 l/m 13,8 km/h (3 Bft) O-NO 70 1 min 0,000 mm 4,7 UV-I 866 W/m 15,7 C 27,2 C 16,1 km/h (3 Bft) 100,00 %
29.05.2018 11:32 28,1 C 23,9 C 47 % 1011,6 hPa 0,0 l/m 12,1 km/h (2 Bft) O 79 1 min 0,000 mm 4,7 UV-I 856 W/m 15,7 C 27,3 C 17,7 km/h (3 Bft) 100,00 %
29.05.2018 11:33 28,2 C 23,9 C 44 % 1011,6 hPa 0,0 l/m 10,1 km/h (2 Bft) O-NO 73 1 min 0,000 mm 4,7 UV-I 845 W/m 14,8 C 27,7 C 14,5 km/h (3 Bft) 95,83 %
29.05.2018 11:34 28,2 C 23,9 C 45 % 1011,6 hPa 0,0 l/m 9,6 km/h (2 Bft) O 84 1 min 0,000 mm 4,7 UV-I 829 W/m 15,1 C 27,7 C 12,9 km/h (3 Bft) 92,31 %
29.05.2018 11:35 28,2 C 23,9 C 44 % 1011,5 hPa 0,0 l/m 7,9 km/h (2 Bft) O-NO 77 1 min 0,000 mm 4,7 UV-I 830 W/m 14,8 C 28,0 C 12,9 km/h (3 Bft) 96,30 %
29.05.2018 11:36 28,2 C 23,9 C 44 % 1011,5 hPa 0,0 l/m 10,3 km/h (2 Bft) O-NO 76 1 min 0,000 mm 4,8 UV-I 859 W/m 14,8 C 27,7 C 14,5 km/h (3 Bft) 95,65 %
29.05.2018 11:37 28,3 C 23,9 C 49 % 1011,5 hPa 0,0 l/m 10,9 km/h (2 Bft) NO 40 1 min 0,000 mm 4,7 UV-I 872 W/m 16,5 C 27,7 C 14,5 km/h (3 Bft) 95,83 %
29.05.2018 11:38 28,3 C 23,9 C 47 % 1011,5 hPa 0,0 l/m 8,2 km/h (2 Bft) NO 49 1 min 0,000 mm 4,7 UV-I 848 W/m 15,9 C 28,0 C 11,3 km/h (2 Bft) 95,65 %
29.05.2018 11:39 28,3 C 23,9 C 49 % 1011,5 hPa 0,0 l/m 9,5 km/h (2 Bft) NO 53 1 min 0,000 mm 4,9 UV-I 879 W/m 16,5 C 27,9 C 14,5 km/h (3 Bft) 95,83 %
29.05.2018 11:40 28,3 C 23,9 C 48 % 1011,5 hPa 0,0 l/m 8,4 km/h (2 Bft) O-NO 68 1 min 0,000 mm 4,9 UV-I 875 W/m 16,2 C 28,0 C 9,7 km/h (2 Bft) 95,65 %
29.05.2018 11:41 28,4 C 23,9 C 48 % 1011,5 hPa 0,0 l/m 6,8 km/h (2 Bft) N-NO 29 1 min 0,000 mm 4,9 UV-I 870 W/m 16,3 C 28,3 C 14,5 km/h (3 Bft) 91,67 %
29.05.2018 11:42 28,6 C 23,9 C 49 % 1011,4 hPa 0,0 l/m 12,4 km/h (3 Bft) NO 43 1 min 0,000 mm 4,9 UV-I 865 W/m 16,8 C 27,9 C 16,1 km/h (3 Bft) 100,00 %
29.05.2018 11:43 28,6 C 23,9 C 46 % 1011,4 hPa 0,0 l/m 9,1 km/h (2 Bft) NO 51 1 min 0,000 mm 4,8 UV-I 839 W/m 15,8 C 28,2 C 12,9 km/h (3 Bft) 91,30 %
29.05.2018 11:44 28,6 C 23,9 C 45 % 1011,4 hPa 0,0 l/m 13,1 km/h (3 Bft) O 90 1 min 0,000 mm 4,9 UV-I 840 W/m 15,5 C 27,8 C 17,7 km/h (3 Bft) 95,83 %
29.05.2018 11:45 28,6 C 23,9 C 43 % 1011,4 hPa 0,0 l/m 12,3 km/h (3 Bft) O 88 1 min 0,000 mm 4,8 UV-I 827 W/m 14,8 C 27,9 C 16,1 km/h (3 Bft) 100,00 %
29.05.2018 11:46 28,4 C 23,9 C 44 % 1011,4 hPa 0,0 l/m 6,0 km/h (2 Bft) O 94 1 min 0,000 mm 4,8 UV-I 831 W/m 14,9 C 28,4 C 11,3 km/h (2 Bft) 95,83 %
29.05.2018 11:47 28,4 C 23,9 C 43 % 1011,4 hPa 0,0 l/m 4,4 km/h (1 Bft) NO 44 1 min 0,000 mm 4,8 UV-I 830 W/m 14,6 C 28,4 C 8,0 km/h (2 Bft) 86,96 %
29.05.2018 11:48 28,5 C 23,9 C 47 % 1011,4 hPa 0,0 l/m 4,3 km/h (1 Bft) O 84 1 min 0,000 mm 4,9 UV-I 836 W/m 16,1 C 28,5 C 8,0 km/h (2 Bft) 95,83 %
29.05.2018 11:49 28,6 C 23,9 C 45 % 1011,3 hPa 0,0 l/m 9,1 km/h (2 Bft) O-NO 59 1 min 0,000 mm 4,9 UV-I 849 W/m 15,5 C 28,2 C 12,9 km/h (3 Bft) 86,96 %
29.05.2018 11:50 28,7 C 23,9 C 47 % 1011,3 hPa 0,0 l/m 11,9 km/h (2 Bft) NO 53 1 min 0,000 mm 4,9 UV-I 867 W/m 16,3 C 28,1 C 16,1 km/h (3 Bft) 95,83 %
29.05.2018 11:51 28,8 C 23,9 C 44 % 1011,3 hPa 0,0 l/m 11,8 km/h (2 Bft) O-NO 78 1 min 0,000 mm 5,1 UV-I 884 W/m 15,3 C 28,2 C 14,5 km/h (3 Bft) 95,83 %
29.05.2018 11:52 28,8 C 23,9 C 42 % 1011,3 hPa 0,0 l/m 9,6 km/h (2 Bft) O-NO 57 1 min 0,000 mm 5,1 UV-I 870 W/m 14,6 C 28,4 C 14,5 km/h (3 Bft) 95,65 %
29.05.2018 11:53 28,8 C 23,9 C 42 % 1011,3 hPa 0,0 l/m 9,5 km/h (2 Bft) O-NO 75 1 min 0,000 mm 5,1 UV-I 872 W/m 14,6 C 28,4 C 14,5 km/h (3 Bft) 95,83 %
29.05.2018 11:54 28,8 C 23,9 C 44 % 1011,3 hPa 0,0 l/m 9,7 km/h (2 Bft) O 100 1 min 0,000 mm 5,2 UV-I 897 W/m 15,3 C 28,4 C 12,9 km/h (3 Bft) 95,65 %
29.05.2018 11:55 28,8 C 23,9 C 43 % 1011,3 hPa 0,0 l/m 12,3 km/h (3 Bft) O-SO 113 1 min 0,000 mm 5,2 UV-I 898 W/m 15,0 C 28,1 C 16,1 km/h (3 Bft) 95,83 %
29.05.2018 11:56 28,8 C 23,9 C 43 % 1011,3 hPa 0,0 l/m 6,3 km/h (2 Bft) O-SO 119 1 min 0,000 mm 5,2 UV-I 896 W/m 15,0 C 28,8 C 9,7 km/h (2 Bft) 92,31 %
29.05.2018 11:58 28,8 C 23,9 C 42 % 1011,2 hPa 0,0 l/m 9,2 km/h (2 Bft) N-NO 26 2 min 0,000 mm 5,2 UV-I 897 W/m 14,6 C 28,4 C 16,1 km/h (3 Bft) 95,74 %
29.05.2018 11:59 28,8 C 23,9 C 42 % 1011,2 hPa 0,0 l/m 9,7 km/h (2 Bft) O-NO 78 1 min 0,000 mm 5,2 UV-I 898 W/m 14,6 C 28,4 C 12,9 km/h (3 Bft) 95,83 %
29.05.2018 12:00 28,8 C 23,9 C 43 % 1011,3 hPa 0,0 l/m 9,0 km/h (2 Bft) O 84 1 min 0,000 mm 5,2 UV-I 896 W/m 15,0 C 28,5 C 12,9 km/h (3 Bft) 95,65 %
29.05.2018 12:02 28,9 C 23,9 C 43 % 1011,2 hPa 0,0 l/m 5,9 km/h (2 Bft) N-NO 22 2 min 0,610 mm 5,2 UV-I 894 W/m 15,0 C 28,9 C 12,9 km/h (3 Bft) 94,00 %
29.05.2018 12:03 29,0 C 23,9 C 49 % 1011,2 hPa 0,0 l/m 9,5 km/h (2 Bft) O-NO 62 1 min 0,000 mm 5,2 UV-I 896 W/m 17,2 C 28,6 C 11,3 km/h (2 Bft) 100,00 %
29.05.2018 12:04 29,0 C 23,9 C 48 % 1011,2 hPa 0,0 l/m 7,4 km/h (2 Bft) O 98 1 min 0,000 mm 5,2 UV-I 898 W/m 16,9 C 28,9 C 9,7 km/h (2 Bft) 92,31 %
29.05.2018 12:05 29,1 C 23,9 C 44 % 1011,2 hPa 0,0 l/m 9,7 km/h (2 Bft) O-NO 60 1 min 0,000 mm 5,2 UV-I 900 W/m 15,6 C 28,7 C 14,5 km/h (3 Bft) 100,00 %
29.05.2018 12:06 29,1 C 23,9 C 46 % 1011,2 hPa 0,0 l/m 16,7 km/h (3 Bft) N-NO 13 1 min 0,000 mm 5,3 UV-I 904 W/m 16,3 C 28,2 C 19,3 km/h (3 Bft) 85,71 %
29.05.2018 12:07 29,2 C 23,9 C 45 % 1011,1 hPa 0,0 l/m 13,6 km/h (3 Bft) N-NO 24 1 min 0,000 mm 5,3 UV-I 906 W/m 16,0 C 28,5 C 19,3 km/h (3 Bft) 95,83 %
29.05.2018 12:08 29,3 C 23,9 C 47 % 1011,2 hPa 0,0 l/m 14,9 km/h (3 Bft) O 84 1 min 0,000 mm 5,3 UV-I 909 W/m 16,8 C 28,5 C 17,7 km/h (3 Bft) 96,15 %
29.05.2018 12:09 29,3 C 23,9 C 44 % 1011,2 hPa 0,0 l/m 10,1 km/h (2 Bft) O-NO 69 1 min 0,000 mm 5,3 UV-I 911 W/m 15,8 C 28,9 C 14,5 km/h (3 Bft) 95,83 %
29.05.2018 12:10 29,4 C 23,9 C 43 % 1011,2 hPa 0,0 l/m 9,8 km/h (2 Bft) O 92 1 min 0,000 mm 5,3 UV-I 912 W/m 15,5 C 29,0 C 12,9 km/h (3 Bft) 100,00 %
29.05.2018 12:11 29,5 C 23,9 C 40 % 1011,2 hPa 0,0 l/m 8,6 km/h (2 Bft) O-NO 74 1 min 0,000 mm 5,3 UV-I 914 W/m 14,5 C 29,3 C 12,9 km/h (3 Bft) 91,67 %
29.05.2018 12:12 29,4 C 23,9 C 40 % 1011,2 hPa 0,0 l/m 13,7 km/h (3 Bft) O 96 1 min 0,000 mm 5,4 UV-I 916 W/m 14,4 C 28,7 C 16,1 km/h (3 Bft) 100,00 %
29.05.2018 12:13 29,4 C 23,9 C 37 % 1011,2 hPa 0,0 l/m 8,3 km/h (2 Bft) NO 34 1 min 0,000 mm 5,4 UV-I 916 W/m 13,2 C 29,2 C 14,5 km/h (3 Bft) 95,83 %
29.05.2018 12:14 29,4 C 23,9 C 42 % 1011,2 hPa 0,0 l/m 10,1 km/h (2 Bft) O-NO 66 1 min 0,000 mm 5,4 UV-I 917 W/m 15,1 C 29,0 C 12,9 km/h (3 Bft) 100,00 %
29.05.2018 12:15 29,4 C 23,9 C 42 % 1011,2 hPa 0,0 l/m 8,5 km/h (2 Bft) O-NO 59 1 min 0,000 mm 5,4 UV-I 915 W/m 15,1 C 29,2 C 12,9 km/h (3 Bft) 95,65 %
29.05.2018 12:16 29,4 C 23,9 C 42 % 1011,2 hPa 0,0 l/m 7,4 km/h (2 Bft) O-SO 103 1 min 0,000 mm 5,4 UV-I 921 W/m 15,1 C 29,3 C 11,3 km/h (2 Bft) 100,00 %
29.05.2018 12:17 29,4 C 23,9 C 39 % 1011,2 hPa 0,0 l/m 10,9 km/h (2 Bft) O-NO 60 1 min 0,000 mm 5,4 UV-I 921 W/m 14,0 C 28,9 C 16,1 km/h (3 Bft) 95,65 %
29.05.2018 12:18 29,4 C 23,9 C 40 % 1011,2 hPa 0,0 l/m 6,2 km/h (2 Bft) O-NO 74 1 min 0,000 mm 5,4 UV-I 918 W/m 14,4 C 29,4 C 9,7 km/h (2 Bft) 95,83 %
29.05.2018 12:19 29,3 C 23,9 C 38 % 1011,1 hPa 0,0 l/m 4,6 km/h (1 Bft) O-NO 59 1 min 0,000 mm 5,3 UV-I 881 W/m 13,5 C 29,3 C 6,4 km/h (2 Bft) 95,65 %
29.05.2018 12:20 29,3 C 23,9 C 38 % 1011,1 hPa 0,0 l/m 4,6 km/h (1 Bft) O 82 1 min 0,000 mm 5,3 UV-I 894 W/m 13,5 C 29,3 C 6,4 km/h (2 Bft) 91,67 %
29.05.2018 12:21 29,3 C 23,9 C 39 % 1011,1 hPa 0,0 l/m 5,6 km/h (1 Bft) O 98 1 min 0,000 mm 5,3 UV-I 899 W/m 13,9 C 29,3 C 9,7 km/h (2 Bft) 95,65 %
29.05.2018 12:22 29,3 C 23,9 C 37 % 1011,1 hPa 0,0 l/m 3,8 km/h (1 Bft) O-SO 102 1 min 0,000 mm 5,4 UV-I 911 W/m 13,1 C 29,3 C 6,4 km/h (2 Bft) 95,83 %
29.05.2018 12:23 29,3 C 23,9 C 39 % 1011,1 hPa 0,0 l/m 1,3 km/h (1 Bft) O-SO 104 1 min 0,000 mm 5,4 UV-I 913 W/m 13,9 C 29,3 C 3,2 km/h (1 Bft) 91,30 %
29.05.2018 12:24 29,4 C 23,9 C 42 % 1011,1 hPa 0,0 l/m 5,8 km/h (2 Bft) O 101 1 min 0,000 mm 5,3 UV-I 894 W/m 15,1 C 29,4 C 11,3 km/h (2 Bft) 95,83 %
29.05.2018 12:25 29,4 C 23,9 C 41 % 1011,1 hPa 0,0 l/m 10,5 km/h (2 Bft) O-SO 113 1 min 0,000 mm 5,3 UV-I 892 W/m 14,7 C 29,0 C 17,7 km/h (3 Bft) 91,30 %
29.05.2018 12:26 29,5 C 23,9 C 37 % 1011,1 hPa 0,0 l/m 8,0 km/h (2 Bft) S-SO 157 1 min 0,000 mm 5,5 UV-I 926 W/m 13,3 C 29,3 C 16,1 km/h (3 Bft) 95,83 %
29.05.2018 12:27 29,4 C 23,9 C 37 % 1011,1 hPa 0,0 l/m 5,2 km/h (1 Bft) O 96 1 min 0,000 mm 5,5 UV-I 939 W/m 13,2 C 29,4 C 9,7 km/h (2 Bft) 95,65 %
29.05.2018 12:28 29,5 C 23,9 C 40 % 1011,0 hPa 0,0 l/m 3,4 km/h (1 Bft) O-SO 113 1 min 0,000 mm 5,5 UV-I 943 W/m 14,5 C 29,5 C 6,4 km/h (2 Bft) 100,00 %
29.05.2018 12:29 29,8 C 23,9 C 44 % 1011,1 hPa 0,0 l/m 3,5 km/h (1 Bft) O 90 1 min 0,000 mm 5,6 UV-I 946 W/m 16,2 C 29,8 C 11,3 km/h (2 Bft) 100,00 %
29.05.2018 12:30 29,8 C 23,9 C 37 % 1011,1 hPa 0,0 l/m 7,4 km/h (2 Bft) S-SO 154 1 min 0,000 mm 5,6 UV-I 948 W/m 13,5 C 29,7 C 11,3 km/h (2 Bft) 100,00 %
29.05.2018 12:31 29,8 C 23,9 C 36 % 1011,0 hPa 0,0 l/m 7,0 km/h (2 Bft) S 169 1 min 0,000 mm 5,5 UV-I 946 W/m 13,1 C 29,7 C 11,3 km/h (2 Bft) 100,00 %
29.05.2018 12:32 29,8 C 23,9 C 37 % 1011,1 hPa 0,0 l/m 4,7 km/h (1 Bft) S 176 1 min 0,000 mm 5,5 UV-I 939 W/m 13,5 C 29,8 C 8,0 km/h (2 Bft) 95,83 %
29.05.2018 12:33 29,7 C 23,9 C 36 % 1011,0 hPa 0,0 l/m 5,8 km/h (2 Bft) O-SO 112 1 min 0,000 mm 5,4 UV-I 906 W/m 13,0 C 29,7 C 12,9 km/h (3 Bft) 100,00 %
29.05.2018 12:34 29,7 C 23,9 C 37 % 1011,1 hPa 0,0 l/m 5,4 km/h (1 Bft) SO 126 1 min 0,000 mm 5,2 UV-I 877 W/m 13,4 C 29,7 C 11,3 km/h (2 Bft) 100,00 %
29.05.2018 12:35 29,7 C 23,9 C 38 % 1011,0 hPa 0,0 l/m 8,7 km/h (2 Bft) O 101 1 min 0,000 mm 5,1 UV-I 849 W/m 13,8 C 29,5 C 16,1 km/h (3 Bft) 95,65 %
29.05.2018 12:36 29,6 C 23,9 C 36 % 1011,0 hPa 0,0 l/m 9,9 km/h (2 Bft) O-SO 110 1 min 0,000 mm 4,9 UV-I 786 W/m 12,9 C 29,3 C 14,5 km/h (3 Bft) 100,00 %
29.05.2018 12:37 29,6 C 23,9 C 38 % 1011,0 hPa 0,0 l/m 9,2 km/h (2 Bft) O-NO 69 1 min 0,000 mm 4,7 UV-I 721 W/m 13,8 C 29,3 C 16,1 km/h (3 Bft) 100,00 %
29.05.2018 12:38 29,6 C 23,9 C 36 % 1011,0 hPa 0,0 l/m 11,6 km/h (2 Bft) O-NO 74 1 min 0,000 mm 4,7 UV-I 727 W/m 12,9 C 29,1 C 14,5 km/h (3 Bft) 100,00 %
29.05.2018 12:39 29,5 C 23,9 C 35 % 1011,0 hPa 0,0 l/m 6,6 km/h (2 Bft) O-NO 66 1 min 0,000 mm 4,6 UV-I 721 W/m 12,4 C 29,5 C 8,0 km/h (2 Bft) 100,00 %
29.05.2018 12:40 29,4 C 23,9 C 40 % 1011,0 hPa 0,0 l/m 5,8 km/h (2 Bft) O-SO 108 1 min 0,000 mm 4,7 UV-I 749 W/m 14,4 C 29,4 C 9,7 km/h (2 Bft) 96,15 %
29.05.2018 12:41 29,4 C 23,9 C 39 % 1011,0 hPa 0,0 l/m 11,2 km/h (2 Bft) O 86 1 min 0,000 mm 5,1 UV-I 745 W/m 14,0 C 28,9 C 14,5 km/h (3 Bft) 100,00 %
29.05.2018 12:42 29,5 C 23,9 C 36 % 1011,0 hPa 0,0 l/m 11,3 km/h (2 Bft) O 86 1 min 0,000 mm 5,3 UV-I 869 W/m 12,8 C 29,0 C 16,1 km/h (3 Bft) 100,00 %
29.05.2018 12:43 29,6 C 23,9 C 36 % 1010,9 hPa 0,0 l/m 12,4 km/h (3 Bft) O 96 1 min 0,000 mm 5,4 UV-I 910 W/m 12,9 C 29,1 C 17,7 km/h (3 Bft) 95,83 %
29.05.2018 12:44 29,6 C 23,9 C 36 % 1010,9 hPa 0,0 l/m 17,1 km/h (3 Bft) O 88 1 min 0,000 mm 5,5 UV-I 911 W/m 12,9 C 28,8 C 20,9 km/h (4 Bft) 100,00 %
29.05.2018 12:45 29,6 C 23,9 C 36 % 1010,9 hPa 0,0 l/m 12,9 km/h (3 Bft) O-SO 103 1 min 0,000 mm 5,5 UV-I 921 W/m 12,9 C 29,0 C 17,7 km/h (3 Bft) 100,00 %
29.05.2018 12:46 29,6 C 23,9 C 38 % 1010,9 hPa 0,0 l/m 8,4 km/h (2 Bft) O 88 1 min 0,000 mm 5,5 UV-I 927 W/m 13,8 C 29,4 C 12,9 km/h (3 Bft) 100,00 %
29.05.2018 12:48 29,7 C 23,9 C 39 % 1010,8 hPa 0,0 l/m 7,1 km/h (2 Bft) O-NO 57 2 min 0,000 mm 5,6 UV-I 938 W/m 14,2 C 29,6 C 12,9 km/h (3 Bft) 100,00 %
29.05.2018 12:49 29,7 C 24,4 C 37 % 1010,8 hPa 0,0 l/m 10,3 km/h (2 Bft) O 83 1 min 0,000 mm 5,6 UV-I 941 W/m 13,4 C 29,3 C 14,5 km/h (3 Bft) 100,00 %
29.05.2018 12:50 29,8 C 24,4 C 37 % 1010,8 hPa 0,0 l/m 8,2 km/h (2 Bft) O-SO 109 1 min 0,000 mm 5,5 UV-I 934 W/m 13,5 C 29,6 C 12,9 km/h (3 Bft) 100,00 %
29.05.2018 12:51 29,8 C 24,4 C 36 % 1010,8 hPa 0,0 l/m 10,2 km/h (2 Bft) S-SO 152 1 min 0,000 mm 5,4 UV-I 926 W/m 13,1 C 29,4 C 12,9 km/h (3 Bft) 100,00 %
29.05.2018 12:52 29,9 C 24,4 C 36 % 1010,7 hPa 0,0 l/m 6,7 km/h (2 Bft) S-SO 158 1 min 0,000 mm 5,4 UV-I 926 W/m 13,2 C 29,9 C 9,7 km/h (2 Bft) 100,00 %
29.05.2018 12:53 30,0 C 24,4 C 38 % 1010,8 hPa 0,0 l/m 10,8 km/h (2 Bft) O-SO 113 1 min 0,000 mm 5,5 UV-I 929 W/m 14,1 C 29,6 C 12,9 km/h (3 Bft) 100,00 %
29.05.2018 12:54 30,1 C 24,4 C 38 % 1010,8 hPa 0,0 l/m 5,0 km/h (1 Bft) SO 128 1 min 0,000 mm 5,5 UV-I 934 W/m 14,2 C 30,1 C 11,3 km/h (2 Bft) 100,00 %
29.05.2018 12:55 30,2 C 24,4 C 35 % 1010,8 hPa 0,0 l/m 5,0 km/h (1 Bft) S 175 1 min 0,000 mm 5,5 UV-I 934 W/m 13,0 C 30,2 C 11,3 km/h (2 Bft) 91,30 %
29.05.2018 12:56 30,2 C 24,4 C 37 % 1010,7 hPa 0,0 l/m 5,1 km/h (1 Bft) O-SO 104 1 min 0,000 mm 5,5 UV-I 926 W/m 13,9 C 30,2 C 8,0 km/h (2 Bft) 100,00 %
29.05.2018 12:57 30,1 C 24,4 C 34 % 1010,8 hPa 0,0 l/m 5,2 km/h (1 Bft) N-NO 25 1 min 0,000 mm 5,5 UV-I 926 W/m 12,5 C 30,1 C 9,7 km/h (2 Bft) 100,00 %
29.05.2018 12:58 30,1 C 24,4 C 39 % 1010,8 hPa 0,0 l/m 8,4 km/h (2 Bft) NO 34 1 min 0,000 mm 5,5 UV-I 930 W/m 14,6 C 29,9 C 9,7 km/h (2 Bft) 95,83 %
29.05.2018 12:59 29,9 C 24,4 C 41 % 1010,7 hPa 0,0 l/m 11,1 km/h (2 Bft) N-NO 22 1 min 0,000 mm 5,6 UV-I 939 W/m 15,2 C 29,5 C 12,9 km/h (3 Bft) 100,00 %
29.05.2018 13:00 29,8 C 24,4 C 43 % 1010,7 hPa 0,0 l/m 7,0 km/h (2 Bft) NO 43 1 min 0,686 mm 5,6 UV-I 938 W/m 15,8 C 29,7 C 9,7 km/h (2 Bft) 100,00 %
29.05.2018 13:02 29,9 C 24,4 C 42 % 1010,8 hPa 0,0 l/m 6,8 km/h (2 Bft) O 81 2 min 0,000 mm 5,5 UV-I 942 W/m 15,6 C 29,9 C 12,9 km/h (3 Bft) 100,00 %
29.05.2018 13:03 30,0 C 24,4 C 37 % 1010,8 hPa 0,0 l/m 12,1 km/h (2 Bft) O 80 1 min 0,000 mm 5,5 UV-I 933 W/m 13,7 C 29,5 C 16,1 km/h (3 Bft) 100,00 %
29.05.2018 13:04 30,1 C 24,4 C 36 % 1010,7 hPa 0,0 l/m 13,3 km/h (3 Bft) O-NO 60 1 min 0,000 mm 5,4 UV-I 918 W/m 13,4 C 29,6 C 17,7 km/h (3 Bft) 91,67 %
29.05.2018 13:05 30,0 C 24,4 C 36 % 1010,7 hPa 0,0 l/m 11,0 km/h (2 Bft) O-SO 115 1 min 0,000 mm 5,2 UV-I 881 W/m 13,3 C 29,6 C 14,5 km/h (3 Bft) 100,00 %
29.05.2018 13:06 30,1 C 24,4 C 36 % 1010,7 hPa 0,0 l/m 12,4 km/h (3 Bft) O-NO 68 1 min 0,000 mm 5,1 UV-I 819 W/m 13,4 C 29,6 C 19,3 km/h (3 Bft) 100,00 %
29.05.2018 13:08 30,1 C 24,4 C 36 % 1010,7 hPa 0,0 l/m 7,0 km/h (2 Bft) O-NO 58 2 min 0,000 mm 5,2 UV-I 852 W/m 13,4 C 30,0 C 14,5 km/h (3 Bft) 100,00 %
29.05.2018 13:09 30,0 C 24,4 C 40 % 1010,7 hPa 0,0 l/m 7,9 km/h (2 Bft) O 88 1 min 0,000 mm 5,3 UV-I 900 W/m 14,9 C 29,9 C 9,7 km/h (2 Bft) 100,00 %
29.05.2018 13:11 29,9 C 24,4 C 37 % 1010,7 hPa 0,0 l/m 9,9 km/h (2 Bft) O-NO 59 2 min 0,000 mm 5,4 UV-I 926 W/m 13,6 C 29,6 C 16,1 km/h (3 Bft) 100,00 %
29.05.2018 13:12 29,9 C 24,4 C 36 % 1010,6 hPa 0,0 l/m 13,9 km/h (3 Bft) O-SO 107 1 min 0,000 mm 5,2 UV-I 916 W/m 13,2 C 29,3 C 20,9 km/h (4 Bft) 95,65 %
29.05.2018 13:13 29,9 C 24,4 C 35 % 1010,6 hPa 0,0 l/m 15,0 km/h (3 Bft) O 99 1 min 0,000 mm 4,9 UV-I 915 W/m 12,8 C 29,2 C 20,9 km/h (4 Bft) 100,00 %
29.05.2018 13:14 29,9 C 24,4 C 35 % 1010,6 hPa 0,0 l/m 10,9 km/h (2 Bft) SO 132 1 min 0,000 mm 5,4 UV-I 941 W/m 12,8 C 29,5 C 17,7 km/h (3 Bft) 95,65 %
29.05.2018 13:15 29,9 C 24,4 C 35 % 1010,6 hPa 0,0 l/m 10,6 km/h (2 Bft) O 94 1 min 0,000 mm 5,3 UV-I 947 W/m 12,8 C 29,5 C 12,9 km/h (3 Bft) 95,83 %
29.05.2018 13:16 29,9 C 24,4 C 37 % 1010,6 hPa 0,0 l/m 4,9 km/h (1 Bft) O-NO 72 1 min 0,000 mm 4,5 UV-I 953 W/m 13,6 C 29,9 C 9,7 km/h (2 Bft) 95,65 %
29.05.2018 13:17 29,8 C 24,4 C 35 % 1010,6 hPa 0,0 l/m 6,4 km/h (2 Bft) O-NO 69 0 min 0,000 mm 3,5 UV-I 438 W/m 12,7 C 29,8 C 12,9 km/h (3 Bft) 100,00 %
29.05.2018 13:18 29,8 C 24,4 C 36 % 1010,6 hPa 0,0 l/m 12,6 km/h (3 Bft) NO 44 0 min 0,000 mm 4,8 UV-I 302 W/m 13,1 C 29,3 C 16,1 km/h (3 Bft) 91,30 %
29.05.2018 13:19 29,7 C 24,4 C 38 % 1010,5 hPa 0,0 l/m 14,7 km/h (3 Bft) N-NO 28 0 min 0,000 mm 5,4 UV-I 463 W/m 13,8 C 29,0 C 17,7 km/h (3 Bft) 100,00 %
29.05.2018 13:20 29,6 C 24,4 C 39 % 1010,5 hPa 0,0 l/m 10,0 km/h (2 Bft) N-NO 16 1 min 0,000 mm 5,4 UV-I 946 W/m 14,2 C 29,2 C 12,9 km/h (3 Bft) 95,65 %
29.05.2018 13:21 29,6 C 24,4 C 43 % 1010,5 hPa 0,0 l/m 6,8 km/h (2 Bft) O-NO 59 1 min 0,000 mm 5,4 UV-I 934 W/m 15,7 C 29,6 C 11,3 km/h (2 Bft) 100,00 %
29.05.2018 13:23 29,6 C 24,4 C 43 % 1010,4 hPa 0,0 l/m 9,9 km/h (2 Bft) NO 43 2 min 0,000 mm 5,2 UV-I 896 W/m 15,7 C 29,3 C 14,5 km/h (3 Bft) 100,00 %
29.05.2018 13:24 29,7 C 24,4 C 43 % 1010,4 hPa 0,0 l/m 10,7 km/h (2 Bft) O-NO 75 1 min 0,000 mm 4,9 UV-I 831 W/m 15,8 C 29,3 C 14,5 km/h (3 Bft) 100,00 %
29.05.2018 13:25 29,8 C 24,4 C 37 % 1010,5 hPa 0,0 l/m 12,2 km/h (2 Bft) NO 44 1 min 0,000 mm 4,9 UV-I 804 W/m 13,5 C 29,3 C 16,1 km/h (3 Bft) 100,00 %
29.05.2018 13:26 29,9 C 24,4 C 39 % 1010,5 hPa 0,0 l/m 8,0 km/h (2 Bft) O 89 1 min 0,000 mm 4,9 UV-I 817 W/m 14,4 C 29,7 C 11,3 km/h (2 Bft) 100,00 %
29.05.2018 13:27 29,9 C 24,4 C 37 % 1010,5 hPa 0,0 l/m 6,4 km/h (2 Bft) NO 38 1 min 0,000 mm 5,0 UV-I 837 W/m 13,6 C 29,9 C 8,0 km/h (2 Bft) 95,83 %
29.05.2018 13:28 29,9 C 24,4 C 40 % 1010,4 hPa 0,0 l/m 7,2 km/h (2 Bft) NO 39 1 min 0,000 mm 5,0 UV-I 856 W/m 14,8 C 29,8 C 9,7 km/h (2 Bft) 100,00 %
29.05.2018 13:29 29,9 C 24,4 C 41 % 1010,4 hPa 0,0 l/m 7,7 km/h (2 Bft) O-NO 61 1 min 0,000 mm 5,0 UV-I 898 W/m 15,2 C 29,8 C 9,7 km/h (2 Bft) 100,00 %
29.05.2018 13:30 29,9 C 24,4 C 39 % 1010,5 hPa 0,0 l/m 7,7 km/h (2 Bft) O 92 1 min 0,000 mm 5,0 UV-I 903 W/m 14,4 C 29,8 C 14,5 km/h (3 Bft) 100,00 %
29.05.2018 13:31 30,0 C 24,4 C 37 % 1010,5 hPa 0,0 l/m 7,2 km/h (2 Bft) O-SO 105 1 min 0,000 mm 4,6 UV-I 814 W/m 13,7 C 29,9 C 16,1 km/h (3 Bft) 100,00 %
29.05.2018 13:32 30,1 C 24,4 C 38 % 1010,5 hPa 0,0 l/m 10,0 km/h (2 Bft) SO 124 1 min 0,000 mm 4,0 UV-I 683 W/m 14,2 C 29,8 C 17,7 km/h (3 Bft) 100,00 %
29.05.2018 13:33 30,1 C 24,4 C 36 % 1010,4 hPa 0,0 l/m 10,6 km/h (2 Bft) O 93 1 min 0,000 mm 4,7 UV-I 512 W/m 13,4 C 29,8 C 14,5 km/h (3 Bft) 100,00 %
29.05.2018 13:34 30,2 C 24,4 C 37 % 1010,4 hPa 0,0 l/m 8,2 km/h (2 Bft) O-SO 113 1 min 0,000 mm 4,5 UV-I 512 W/m 13,9 C 30,0 C 12,9 km/h (3 Bft) 100,00 %
29.05.2018 13:35 30,3 C 24,4 C 34 % 1010,4 hPa 0,0 l/m 7,2 km/h (2 Bft) O-NO 59 1 min 0,000 mm 4,6 UV-I 512 W/m 12,7 C 30,2 C 14,5 km/h (3 Bft) 100,00 %
29.05.2018 13:36 30,3 C 24,4 C 37 % 1010,4 hPa 0,0 l/m 8,1 km/h (2 Bft) NO 49 1 min 0,000 mm 4,7 UV-I 871 W/m 14,0 C 30,2 C 11,3 km/h (2 Bft) 100,00 %
29.05.2018 13:38 30,1 C 24,4 C 42 % 1010,3 hPa 0,0 l/m 6,3 km/h (2 Bft) O 79 2 min 0,000 mm 4,9 UV-I 875 W/m 15,7 C 30,1 C 8,0 km/h (2 Bft) 97,87 %
29.05.2018 13:39 30,2 C 24,4 C 36 % 1010,3 hPa 0,0 l/m 7,6 km/h (2 Bft) O 90 1 min 0,000 mm 5,2 UV-I 957 W/m 13,4 C 30,1 C 11,3 km/h (2 Bft) 93,10 %
29.05.2018 13:40 30,3 C 24,4 C 37 % 1010,4 hPa 0,0 l/m 9,8 km/h (2 Bft) O 79 1 min 0,000 mm 4,4 UV-I 976 W/m 14,0 C 30,0 C 12,9 km/h (3 Bft) 100,00 %
29.05.2018 13:41 30,3 C 24,4 C 33 % 1010,4 hPa 0,0 l/m 9,9 km/h (2 Bft) O 98 1 min 0,000 mm 3,7 UV-I 480 W/m 12,2 C 30,0 C 12,9 km/h (3 Bft) 96,55 %
29.05.2018 13:42 30,2 C 24,4 C 33 % 1010,4 hPa 0,0 l/m 8,8 km/h (2 Bft) O-NO 71 0 min 0,000 mm 3,7 UV-I 408 W/m 12,1 C 30,0 C 12,9 km/h (3 Bft) 100,00 %
29.05.2018 13:43 30,1 C 24,4 C 36 % 1010,4 hPa 0,0 l/m 10,2 km/h (2 Bft) O-NO 77 1 min 0,000 mm 5,1 UV-I 591 W/m 13,4 C 29,8 C 14,5 km/h (3 Bft) 95,65 %
29.05.2018 13:44 30,1 C 24,4 C 38 % 1010,3 hPa 0,0 l/m 5,1 km/h (1 Bft) O 93 1 min 0,000 mm 5,3 UV-I 1036 W/m 14,2 C 30,1 C 8,0 km/h (2 Bft) 100,00 %
29.05.2018 13:45 30,2 C 24,4 C 38 % 1010,3 hPa 0,0 l/m 1,9 km/h (1 Bft) O 92 1 min 0,000 mm 5,2 UV-I 1009 W/m 14,3 C 30,2 C 3,2 km/h (1 Bft) 95,65 %
29.05.2018 13:46 30,4 C 24,4 C 38 % 1010,3 hPa 0,0 l/m 8,3 km/h (2 Bft) N-NO 32 1 min 0,000 mm 5,0 UV-I 956 W/m 14,5 C 30,2 C 12,9 km/h (3 Bft) 100,00 %
29.05.2018 13:47 30,6 C 24,4 C 40 % 1010,3 hPa 0,0 l/m 6,6 km/h (2 Bft) O-NO 57 1 min 0,000 mm 4,9 UV-I 927 W/m 15,4 C 30,6 C 9,7 km/h (2 Bft) 95,65 %
29.05.2018 13:48 30,5 C 24,4 C 40 % 1010,2 hPa 0,0 l/m 3,2 km/h (1 Bft) O-NO 59 1 min 0,000 mm 4,8 UV-I 912 W/m 15,3 C 30,5 C 4,8 km/h (1 Bft) 92,59 %
29.05.2018 13:49 30,5 C 24,4 C 42 % 1010,2 hPa 0,0 l/m 5,8 km/h (2 Bft) NO 43 1 min 0,000 mm 4,8 UV-I 905 W/m 16,1 C 30,5 C 8,0 km/h (2 Bft) 100,00 %
29.05.2018 13:50 30,4 C 24,4 C 39 % 1010,2 hPa 0,0 l/m 6,8 km/h (2 Bft) NO 40 1 min 0,000 mm 4,9 UV-I 937 W/m 14,9 C 30,4 C 11,3 km/h (2 Bft) 91,67 %
29.05.2018 13:51 30,5 C 24,4 C 38 % 1010,2 hPa 0,0 l/m 10,0 km/h (2 Bft) O-NO 59 1 min 0,000 mm 4,7 UV-I 919 W/m 14,5 C 30,2 C 14,5 km/h (3 Bft) 95,83 %
29.05.2018 13:52 30,4 C 24,4 C 38 % 1010,2 hPa 0,0 l/m 11,0 km/h (2 Bft) O 84 1 min 0,000 mm 4,4 UV-I 826 W/m 14,5 C 30,1 C 12,9 km/h (3 Bft) 92,86 %
29.05.2018 13:53 30,4 C 24,4 C 35 % 1010,2 hPa 0,0 l/m 5,3 km/h (1 Bft) NO 39 1 min 0,000 mm 4,4 UV-I 826 W/m 13,2 C 30,4 C 8,0 km/h (2 Bft) 100,00 %
29.05.2018 13:54 30,3 C 24,4 C 35 % 1010,2 hPa 0,0 l/m 3,7 km/h (1 Bft) O-SO 114 1 min 0,000 mm 4,6 UV-I 889 W/m 13,1 C 30,3 C 6,4 km/h (2 Bft) 95,65 %
29.05.2018 13:55 30,4 C 24,4 C 35 % 1010,2 hPa 0,0 l/m 4,6 km/h (1 Bft) SO 139 1 min 0,000 mm 4,6 UV-I 906 W/m 13,2 C 30,4 C 6,4 km/h (2 Bft) 100,00 %
29.05.2018 13:56 30,6 C 24,4 C 39 % 1010,2 hPa 0,0 l/m 4,9 km/h (1 Bft) S 178 1 min 0,000 mm 4,6 UV-I 888 W/m 15,0 C 30,6 C 11,3 km/h (2 Bft) 95,65 %
29.05.2018 13:57 30,7 C 24,4 C 34 % 1010,2 hPa 0,0 l/m 10,5 km/h (2 Bft) S-SO 154 1 min 0,000 mm 4,5 UV-I 801 W/m 13,0 C 30,4 C 16,1 km/h (3 Bft) 95,83 %
29.05.2018 13:58 30,7 C 24,4 C 32 % 1010,2 hPa 0,0 l/m 7,5 km/h (2 Bft) SO 141 1 min 0,000 mm 4,5 UV-I 827 W/m 12,1 C 30,6 C 11,3 km/h (2 Bft) 100,00 %
29.05.2018 13:59 30,7 C 24,4 C 32 % 1010,2 hPa 0,0 l/m 12,9 km/h (3 Bft) S 181 1 min 0,000 mm 4,6 UV-I 872 W/m 12,1 C 30,3 C 19,3 km/h (3 Bft) 95,83 %
29.05.2018 14:00 30,6 C 24,4 C 33 % 1010,2 hPa 0,0 l/m 10,5 km/h (2 Bft) S-SW 202 1 min 0,000 mm 4,4 UV-I 875 W/m 12,5 C 30,3 C 17,7 km/h (3 Bft) 100,00 %
29.05.2018 14:02 30,6 C 24,4 C 33 % 1010,2 hPa 0,0 l/m 8,2 km/h (2 Bft) SO 138 2 min 0,660 mm 4,5 UV-I 835 W/m 12,5 C 30,5 C 12,9 km/h (3 Bft) 94,00 %
29.05.2018 14:03 30,5 C 24,4 C 32 % 1010,2 hPa 0,0 l/m 11,6 km/h (2 Bft) O 90 1 min 0,000 mm 4,1 UV-I 789 W/m 11,9 C 30,1 C 14,5 km/h (3 Bft) 100,00 %
29.05.2018 14:04 30,4 C 24,4 C 34 % 1010,2 hPa 0,0 l/m 16,3 km/h (3 Bft) O-SO 108 1 min 0,000 mm 4,1 UV-I 723 W/m 12,7 C 29,8 C 20,9 km/h (4 Bft) 100,00 %
29.05.2018 14:05 30,4 C 24,4 C 33 % 1010,1 hPa 0,0 l/m 15,7 km/h (3 Bft) O-SO 122 1 min 0,000 mm 4,1 UV-I 757 W/m 12,3 C 29,8 C 22,5 km/h (4 Bft) 92,31 %
29.05.2018 14:06 30,4 C 24,4 C 36 % 1010,1 hPa 0,0 l/m 15,9 km/h (3 Bft) S-SO 149 1 min 0,000 mm 4,3 UV-I 789 W/m 13,6 C 29,8 C 25,7 km/h (4 Bft) 95,83 %
29.05.2018 14:07 30,5 C 24,4 C 34 % 1010,1 hPa 0,0 l/m 16,0 km/h (3 Bft) S 171 1 min 0,000 mm 4,4 UV-I 831 W/m 12,8 C 29,9 C 20,9 km/h (4 Bft) 100,00 %
29.05.2018 14:08 30,6 C 24,4 C 34 % 1010,2 hPa 0,0 l/m 12,4 km/h (3 Bft) SO 139 1 min 0,000 mm 4,5 UV-I 838 W/m 12,9 C 30,2 C 17,7 km/h (3 Bft) 95,83 %
29.05.2018 14:09 30,6 C 24,4 C 34 % 1010,2 hPa 0,0 l/m 10,5 km/h (2 Bft) S-SO 153 1 min 0,000 mm 4,4 UV-I 808 W/m 12,9 C 30,3 C 17,7 km/h (3 Bft) 95,65 %
29.05.2018 14:10 30,7 C 24,4 C 34 % 1010,2 hPa 0,0 l/m 8,9 km/h (2 Bft) SO 126 1 min 0,000 mm 4,3 UV-I 792 W/m 13,0 C 30,5 C 19,3 km/h (3 Bft) 96,30 %
29.05.2018 14:11 30,7 C 24,4 C 32 % 1010,2 hPa 0,0 l/m 17,4 km/h (3 Bft) SO 139 1 min 0,000 mm 4,2 UV-I 767 W/m 12,1 C 30,1 C 20,9 km/h (4 Bft) 100,00 %
29.05.2018 14:12 30,7 C 24,4 C 33 % 1010,1 hPa 0,0 l/m 13,4 km/h (3 Bft) SO 135 1 min 0,000 mm 4,0 UV-I 708 W/m 12,6 C 30,3 C 17,7 km/h (3 Bft) 91,67 %
29.05.2018 14:13 30,6 C 24,4 C 32 % 1010,1 hPa 0,0 l/m 10,8 km/h (2 Bft) SO 129 1 min 0,000 mm 4,2 UV-I 715 W/m 12,0 C 30,3 C 16,1 km/h (3 Bft) 95,65 %
29.05.2018 14:14 30,6 C 24,4 C 33 % 1010,1 hPa 0,0 l/m 18,4 km/h (3 Bft) SO 136 1 min 0,000 mm 4,2 UV-I 722 W/m 12,5 C 30,0 C 24,1 km/h (4 Bft) 100,00 %
29.05.2018 14:15 30,5 C 24,4 C 33 % 1010,1 hPa 0,0 l/m 17,2 km/h (3 Bft) O-SO 109 1 min 0,000 mm 4,0 UV-I 668 W/m 12,4 C 29,9 C 22,5 km/h (4 Bft) 100,00 %
29.05.2018 14:16 30,5 C 24,4 C 35 % 1010,1 hPa 0,0 l/m 12,9 km/h (3 Bft) S 171 1 min 0,000 mm 4,2 UV-I 659 W/m 13,3 C 30,1 C 19,3 km/h (3 Bft) 95,83 %
29.05.2018 14:17 30,5 C 24,4 C 34 % 1010,1 hPa 0,0 l/m 7,8 km/h (2 Bft) S 181 1 min 0,000 mm 4,4 UV-I 820 W/m 12,8 C 30,4 C 11,3 km/h (2 Bft) 86,96 %
29.05.2018 14:18 30,6 C 25,0 C 34 % 1010,1 hPa 0,0 l/m 11,9 km/h (2 Bft) O-NO 71 1 min 0,000 mm 4,4 UV-I 815 W/m 12,9 C 30,2 C 16,1 km/h (3 Bft) 100,00 %
29.05.2018 14:19 30,7 C 25,0 C 34 % 1010,1 hPa 0,0 l/m 16,8 km/h (3 Bft) S-SO 162 1 min 0,000 mm 4,7 UV-I 874 W/m 13,0 C 30,1 C 20,9 km/h (4 Bft) 95,65 %
29.05.2018 14:20 30,8 C 25,0 C 32 % 1010,1 hPa 0,0 l/m 13,3 km/h (3 Bft) SO 145 1 min 0,000 mm 4,8 UV-I 929 W/m 12,2 C 30,4 C 16,1 km/h (3 Bft) 100,00 %
29.05.2018 14:21 30,8 C 25,0 C 35 % 1010,1 hPa 0,0 l/m 12,0 km/h (2 Bft) SO 136 1 min 0,000 mm 4,9 UV-I 937 W/m 13,5 C 30,5 C 17,7 km/h (3 Bft) 100,00 %
29.05.2018 14:22 30,8 C 25,0 C 34 % 1010,1 hPa 0,0 l/m 15,2 km/h (3 Bft) SO 146 1 min 0,000 mm 5,0 UV-I 925 W/m 13,1 C 30,3 C 20,9 km/h (4 Bft) 95,83 %
29.05.2018 14:23 30,9 C 25,0 C 34 % 1010,1 hPa 0,0 l/m 12,9 km/h (3 Bft) S-SO 152 1 min 0,000 mm 5,0 UV-I 943 W/m 13,2 C 30,5 C 17,7 km/h (3 Bft) 100,00 %
29.05.2018 14:24 30,8 C 25,0 C 33 % 1010,1 hPa 0,0 l/m 10,0 km/h (2 Bft) SO 124 1 min 0,000 mm 5,0 UV-I 932 W/m 12,6 C 30,6 C 14,5 km/h (3 Bft) 100,00 %
29.05.2018 14:25 30,8 C 25,0 C 33 % 1010,1 hPa 0,0 l/m 9,5 km/h (2 Bft) S 171 1 min 0,000 mm 5,0 UV-I 935 W/m 12,6 C 30,6 C 14,5 km/h (3 Bft) 100,00 %
29.05.2018 14:26 30,8 C 25,0 C 32 % 1010,0 hPa 0,0 l/m 10,6 km/h (2 Bft) S 188 1 min 0,000 mm 5,0 UV-I 936 W/m 12,2 C 30,5 C 14,5 km/h (3 Bft) 95,65 %
29.05.2018 14:27 30,8 C 25,0 C 34 % 1010,0 hPa 0,0 l/m 13,3 km/h (3 Bft) S-SO 164 1 min 0,000 mm 4,9 UV-I 899 W/m 13,1 C 30,4 C 17,7 km/h (3 Bft) 100,00 %
29.05.2018 14:28 30,8 C 25,0 C 32 % 1010,0 hPa 0,0 l/m 12,6 km/h (3 Bft) S-SO 155 1 min 0,000 mm 4,9 UV-I 890 W/m 12,2 C 30,4 C 19,3 km/h (3 Bft) 100,00 %
29.05.2018 14:29 30,7 C 25,0 C 33 % 1010,0 hPa 0,0 l/m 11,5 km/h (2 Bft) SW 215 1 min 0,000 mm 5,0 UV-I 918 W/m 12,6 C 30,4 C 16,1 km/h (3 Bft) 100,00 %
29.05.2018 14:30 30,6 C 25,0 C 34 % 1010,0 hPa 0,0 l/m 10,8 km/h (2 Bft) O-SO 111 1 min 0,000 mm 4,9 UV-I 916 W/m 12,9 C 30,3 C 14,5 km/h (3 Bft) 100,00 %
29.05.2018 14:31 30,7 C 25,0 C 35 % 1010,0 hPa 0,0 l/m 7,4 km/h (2 Bft) S-SO 148 1 min 0,000 mm 4,9 UV-I 928 W/m 13,5 C 30,6 C 14,5 km/h (3 Bft) 95,83 %
29.05.2018 14:32 30,9 C 25,0 C 33 % 1010,0 hPa 0,0 l/m 11,0 km/h (2 Bft) S-SO 157 1 min 0,000 mm 4,9 UV-I 920 W/m 12,7 C 30,6 C 14,5 km/h (3 Bft) 95,65 %
29.05.2018 14:33 30,9 C 25,0 C 33 % 1010,0 hPa 0,0 l/m 13,0 km/h (3 Bft) S-SO 167 1 min 0,000 mm 4,9 UV-I 928 W/m 12,7 C 30,5 C 17,7 km/h (3 Bft) 91,67 %
29.05.2018 14:34 30,8 C 25,0 C 33 % 1010,0 hPa 0,0 l/m 11,1 km/h (2 Bft) S 178 1 min 0,000 mm 4,9 UV-I 926 W/m 12,6 C 30,5 C 16,1 km/h (3 Bft) 100,00 %
29.05.2018 14:35 30,6 C 25,0 C 32 % 1010,0 hPa 0,0 l/m 3,4 km/h (1 Bft) SW 216 1 min 0,000 mm 4,9 UV-I 929 W/m 12,0 C 30,6 C 6,4 km/h (2 Bft) 95,83 %
29.05.2018 14:36 30,6 C 25,0 C 32 % 1009,9 hPa 0,0 l/m 7,5 km/h (2 Bft) SO 136 1 min 0,000 mm 4,9 UV-I 930 W/m 12,0 C 30,5 C 16,1 km/h (3 Bft) 95,65 %
29.05.2018 14:37 30,6 C 25,0 C 33 % 1010,0 hPa 0,0 l/m 10,1 km/h (2 Bft) S-SO 167 1 min 0,000 mm 4,9 UV-I 918 W/m 12,5 C 30,3 C 14,5 km/h (3 Bft) 95,83 %
29.05.2018 14:38 30,6 C 25,0 C 32 % 1009,9 hPa 0,0 l/m 6,6 km/h (2 Bft) S 183 1 min 0,000 mm 4,7 UV-I 880 W/m 12,0 C 30,6 C 9,7 km/h (2 Bft) 100,00 %
29.05.2018 14:39 30,3 C 25,0 C 31 % 1009,9 hPa 0,0 l/m 3,6 km/h (1 Bft) SO 140 1 min 0,000 mm 4,7 UV-I 863 W/m 11,3 C 30,3 C 6,4 km/h (2 Bft) 95,83 %
29.05.2018 14:40 30,3 C 25,0 C 34 % 1009,9 hPa 0,0 l/m 4,0 km/h (1 Bft) S-SW 210 1 min 0,000 mm 4,7 UV-I 893 W/m 12,7 C 30,3 C 4,8 km/h (1 Bft) 100,00 %
29.05.2018 14:41 30,4 C 25,0 C 35 % 1009,9 hPa 0,0 l/m 6,2 km/h (2 Bft) O-SO 123 1 min 0,000 mm 4,7 UV-I 888 W/m 13,2 C 30,4 C 11,3 km/h (2 Bft) 95,83 %
29.05.2018 14:42 30,6 C 25,0 C 36 % 1009,9 hPa 0,0 l/m 14,8 km/h (3 Bft) S-SO 159 1 min 0,000 mm 4,7 UV-I 883 W/m 13,8 C 30,1 C 20,9 km/h (4 Bft) 95,65 %
29.05.2018 14:43 30,8 C 25,0 C 35 % 1009,9 hPa 0,0 l/m 11,1 km/h (2 Bft) SO 133 1 min 0,000 mm 4,6 UV-I 876 W/m 13,5 C 30,5 C 14,5 km/h (3 Bft) 100,00 %
29.05.2018 14:44 30,8 C 25,0 C 33 % 1009,9 hPa 0,0 l/m 12,1 km/h (2 Bft) SO 137 1 min 0,000 mm 4,6 UV-I 873 W/m 12,6 C 30,5 C 16,1 km/h (3 Bft) 95,65 %
29.05.2018 14:45 30,8 C 25,0 C 32 % 1009,9 hPa 0,0 l/m 6,2 km/h (2 Bft) S-SW 200 1 min 0,000 mm 4,5 UV-I 859 W/m 12,2 C 30,8 C 9,7 km/h (2 Bft) 100,00 %
29.05.2018 14:46 30,8 C 25,0 C 32 % 1009,8 hPa 0,0 l/m 1,6 km/h (1 Bft) S-SW 192 1 min 0,000 mm 4,4 UV-I 806 W/m 12,2 C 30,8 C 1,6 km/h (1 Bft) 100,00 %
29.05.2018 14:47 30,7 C 25,0 C 31 % 1009,9 hPa 0,0 l/m 2,4 km/h (1 Bft) S-SO 150 1 min 0,000 mm 4,3 UV-I 790 W/m 11,6 C 30,7 C 4,8 km/h (1 Bft) 96,15 %
29.05.2018 14:48 30,7 C 25,0 C 34 % 1009,9 hPa 0,0 l/m 5,2 km/h (1 Bft) S-SO 158 1 min 0,000 mm 4,4 UV-I 827 W/m 13,0 C 30,7 C 12,9 km/h (3 Bft) 95,83 %
29.05.2018 14:49 30,8 C 25,0 C 33 % 1009,8 hPa 0,0 l/m 10,7 km/h (2 Bft) S-SO 167 1 min 0,000 mm 4,5 UV-I 839 W/m 12,6 C 30,5 C 14,5 km/h (3 Bft) 100,00 %
29.05.2018 14:50 30,8 C 25,0 C 33 % 1009,8 hPa 0,0 l/m 11,5 km/h (2 Bft) SO 135 1 min 0,000 mm 4,4 UV-I 831 W/m 12,6 C 30,5 C 16,1 km/h (3 Bft) 95,83 %
29.05.2018 14:51 30,8 C 25,0 C 33 % 1009,8 hPa 0,0 l/m 3,8 km/h (1 Bft) O-NO 73 1 min 0,000 mm 4,4 UV-I 843 W/m 12,6 C 30,8 C 6,4 km/h (2 Bft) 100,00 %
29.05.2018 14:52 30,8 C 25,0 C 32 % 1009,8 hPa 0,0 l/m 5,5 km/h (1 Bft) O 94 1 min 0,000 mm 4,3 UV-I 802 W/m 12,2 C 30,8 C 8,0 km/h (2 Bft) 95,83 %
29.05.2018 14:53 30,8 C 25,0 C 33 % 1009,8 hPa 0,0 l/m 9,1 km/h (2 Bft) O-SO 112 1 min 0,000 mm 4,3 UV-I 781 W/m 12,6 C 30,6 C 11,3 km/h (2 Bft) 100,00 %
29.05.2018 14:54 30,8 C 25,0 C 33 % 1009,8 hPa 0,0 l/m 6,2 km/h (2 Bft) SO 137 1 min 0,000 mm 4,3 UV-I 780 W/m 12,6 C 30,8 C 8,0 km/h (2 Bft) 95,83 %
29.05.2018 14:55 30,8 C 25,0 C 32 % 1009,8 hPa 0,0 l/m 11,1 km/h (2 Bft) SO 136 1 min 0,000 mm 4,3 UV-I 801 W/m 12,2 C 30,5 C 14,5 km/h (3 Bft) 100,00 %
29.05.2018 14:56 30,9 C 25,0 C 32 % 1009,8 hPa 0,0 l/m 8,3 km/h (2 Bft) SO 130 1 min 0,000 mm 4,4 UV-I 833 W/m 12,3 C 30,8 C 12,9 km/h (3 Bft) 95,83 %
29.05.2018 14:57 30,9 C 25,0 C 32 % 1009,8 hPa 0,0 l/m 4,9 km/h (1 Bft) S-SO 151 1 min 0,000 mm 4,4 UV-I 851 W/m 12,3 C 30,9 C 8,0 km/h (2 Bft) 95,65 %
29.05.2018 14:58 30,9 C 25,0 C 33 % 1009,7 hPa 0,0 l/m 4,7 km/h (1 Bft) S-SW 196 1 min 0,000 mm 4,4 UV-I 868 W/m 12,7 C 30,9 C 6,4 km/h (2 Bft) 95,83 %
29.05.2018 14:59 30,9 C 25,0 C 32 % 1009,8 hPa 0,0 l/m 3,4 km/h (1 Bft) S-SW 209 1 min 0,000 mm 4,4 UV-I 846 W/m 12,3 C 30,9 C 6,4 km/h (2 Bft) 96,15 %
29.05.2018 15:00 30,9 C 25,0 C 30 % 1009,8 hPa 0,0 l/m 1,5 km/h (1 Bft) S-SW 207 1 min 0,000 mm 4,4 UV-I 877 W/m 11,3 C 30,9 C 3,2 km/h (1 Bft) 100,00 %
29.05.2018 15:02 30,8 C 25,0 C 36 % 1009,7 hPa 0,0 l/m 3,2 km/h (1 Bft) SO 133 2 min 0,686 mm 4,4 UV-I 874 W/m 14,0 C 30,8 C 4,8 km/h (1 Bft) 97,87 %
29.05.2018 15:03 30,9 C 25,0 C 35 % 1009,7 hPa 0,0 l/m 5,0 km/h (1 Bft) O 86 1 min 0,000 mm 4,3 UV-I 869 W/m 13,6 C 30,9 C 8,0 km/h (2 Bft) 95,83 %
29.05.2018 15:04 31,0 C 25,0 C 34 % 1009,6 hPa 0,0 l/m 9,6 km/h (2 Bft) O-NO 72 1 min 0,000 mm 4,3 UV-I 867 W/m 13,3 C 30,8 C 14,5 km/h (3 Bft) 100,00 %
29.05.2018 15:05 30,9 C 25,0 C 34 % 1009,6 hPa 0,0 l/m 11,7 km/h (2 Bft) O 84 1 min 0,000 mm 4,3 UV-I 863 W/m 13,2 C 30,6 C 16,1 km/h (3 Bft) 91,67 %
29.05.2018 15:06 30,9 C 25,0 C 33 % 1009,6 hPa 0,0 l/m 14,3 km/h (3 Bft) O-NO 75 1 min 0,000 mm 4,2 UV-I 852 W/m 12,7 C 30,5 C 17,7 km/h (3 Bft) 96,15 %
29.05.2018 15:07 30,9 C 25,0 C 36 % 1009,6 hPa 0,0 l/m 9,8 km/h (2 Bft) O-NO 70 1 min 0,000 mm 4,2 UV-I 847 W/m 14,1 C 30,7 C 14,5 km/h (3 Bft) 95,83 %
29.05.2018 15:08 30,9 C 25,0 C 36 % 1009,6 hPa 0,0 l/m 8,5 km/h (2 Bft) NO 38 1 min 0,000 mm 4,2 UV-I 850 W/m 14,1 C 30,8 C 11,3 km/h (2 Bft) 95,65 %
29.05.2018 15:09 30,8 C 25,0 C 38 % 1009,5 hPa 0,0 l/m 10,1 km/h (2 Bft) NO 50 1 min 0,000 mm 4,1 UV-I 852 W/m 14,8 C 30,6 C 12,9 km/h (3 Bft) 96,30 %
29.05.2018 15:10 30,8 C 25,0 C 36 % 1009,6 hPa 0,0 l/m 7,5 km/h (2 Bft) NO 52 1 min 0,000 mm 4,1 UV-I 817 W/m 14,0 C 30,7 C 9,7 km/h (2 Bft) 95,65 %
29.05.2018 15:11 30,8 C 25,0 C 35 % 1009,6 hPa 0,0 l/m 7,7 km/h (2 Bft) O-NO 66 1 min 0,000 mm 3,9 UV-I 769 W/m 13,5 C 30,7 C 11,3 km/h (2 Bft) 100,00 %
29.05.2018 15:12 30,8 C 25,0 C 35 % 1009,6 hPa 0,0 l/m 8,2 km/h (2 Bft) O-NO 65 1 min 0,000 mm 4,0 UV-I 782 W/m 13,5 C 30,7 C 12,9 km/h (3 Bft) 95,65 %
29.05.2018 15:13 30,7 C 25,0 C 36 % 1009,5 hPa 0,0 l/m 8,2 km/h (2 Bft) NO 52 1 min 0,000 mm 4,0 UV-I 818 W/m 13,9 C 30,6 C 11,3 km/h (2 Bft) 100,00 %
29.05.2018 15:14 30,6 C 25,0 C 37 % 1009,5 hPa 0,0 l/m 7,8 km/h (2 Bft) O 80 1 min 0,000 mm 4,0 UV-I 846 W/m 14,2 C 30,5 C 11,3 km/h (2 Bft) 95,65 %
29.05.2018 15:15 30,6 C 25,0 C 36 % 1009,5 hPa 0,0 l/m 8,7 km/h (2 Bft) O-NO 72 1 min 0,000 mm 4,0 UV-I 853 W/m 13,8 C 30,4 C 11,3 km/h (2 Bft) 95,83 %
29.05.2018 15:16 30,6 C 25,0 C 35 % 1009,5 hPa 0,0 l/m 5,0 km/h (1 Bft) O-NO 78 1 min 0,000 mm 3,9 UV-I 852 W/m 13,4 C 30,6 C 6,4 km/h (2 Bft) 95,65 %
29.05.2018 15:17 30,7 C 25,0 C 32 % 1009,5 hPa 0,0 l/m 4,9 km/h (1 Bft) O-NO 74 1 min 0,000 mm 4,0 UV-I 835 W/m 12,1 C 30,7 C 11,3 km/h (2 Bft) 95,83 %
29.05.2018 15:18 30,7 C 25,0 C 32 % 1009,5 hPa 0,0 l/m 7,6 km/h (2 Bft) O-SO 119 1 min 0,000 mm 3,9 UV-I 822 W/m 12,1 C 30,6 C 14,5 km/h (3 Bft) 100,00 %
29.05.2018 15:19 30,8 C 25,0 C 36 % 1009,5 hPa 0,0 l/m 8,7 km/h (2 Bft) O 90 1 min 0,000 mm 3,9 UV-I 818 W/m 14,0 C 30,6 C 12,9 km/h (3 Bft) 95,83 %
29.05.2018 15:20 31,1 C 25,0 C 33 % 1009,5 hPa 0,0 l/m 11,7 km/h (2 Bft) O-SO 108 1 min 0,000 mm 3,8 UV-I 794 W/m 12,9 C 30,8 C 16,1 km/h (3 Bft) 95,65 %
29.05.2018 15:21 31,1 C 25,0 C 32 % 1009,6 hPa 0,0 l/m 12,1 km/h (2 Bft) O-SO 107 1 min 0,000 mm 3,6 UV-I 721 W/m 12,4 C 30,8 C 14,5 km/h (3 Bft) 100,00 %
29.05.2018 15:22 31,1 C 25,0 C 32 % 1009,6 hPa 0,0 l/m 6,2 km/h (2 Bft) O-SO 121 1 min 0,000 mm 3,2 UV-I 712 W/m 12,4 C 31,1 C 9,7 km/h (2 Bft) 100,00 %
29.05.2018 15:23 30,9 C 25,0 C 30 % 1009,5 hPa 0,0 l/m 5,6 km/h (1 Bft) O 96 1 min 0,000 mm 3,4 UV-I 685 W/m 11,3 C 30,9 C 8,0 km/h (2 Bft) 100,00 %
29.05.2018 15:24 30,7 C 25,0 C 32 % 1009,5 hPa 0,0 l/m 5,7 km/h (1 Bft) O-NO 74 1 min 0,000 mm 3,2 UV-I 666 W/m 12,1 C 30,7 C 8,0 km/h (2 Bft) 100,00 %
29.05.2018 15:25 30,6 C 25,0 C 31 % 1009,5 hPa 0,0 l/m 4,8 km/h (1 Bft) N-NO 24 1 min 0,000 mm 2,8 UV-I 508 W/m 11,5 C 30,6 C 8,0 km/h (2 Bft) 100,00 %
29.05.2018 15:26 30,3 C 25,0 C 31 % 1009,5 hPa 0,0 l/m 4,3 km/h (1 Bft) N 355 1 min 0,000 mm 2,6 UV-I 420 W/m 11,3 C 30,3 C 6,4 km/h (2 Bft) 100,00 %
29.05.2018 15:27 30,1 C 25,0 C 33 % 1009,4 hPa 0,0 l/m 3,6 km/h (1 Bft) N 350 1 min 0,000 mm 2,6 UV-I 446 W/m 12,0 C 30,1 C 4,8 km/h (1 Bft) 95,65 %
29.05.2018 15:28 29,9 C 25,0 C 33 % 1009,4 hPa 0,0 l/m 3,2 km/h (1 Bft) NW 309 0 min 0,000 mm 2,4 UV-I 369 W/m 11,9 C 29,9 C 4,8 km/h (1 Bft) 100,00 %
29.05.2018 15:29 29,9 C 25,0 C 36 % 1009,4 hPa 0,0 l/m 4,8 km/h (1 Bft) NW 309 0 min 0,000 mm 2,4 UV-I 377 W/m 13,2 C 29,9 C 6,4 km/h (2 Bft) 100,00 %
29.05.2018 15:30 29,9 C 25,0 C 34 % 1009,4 hPa 0,0 l/m 1,8 km/h (1 Bft) NW 309 1 min 0,000 mm 2,5 UV-I 433 W/m 12,3 C 29,9 C 3,2 km/h (1 Bft) 100,00 %
29.05.2018 15:31 29,8 C 25,0 C 34 % 1009,3 hPa 0,0 l/m 4,1 km/h (1 Bft) NW 322 1 min 0,000 mm 2,5 UV-I 433 W/m 12,2 C 29,8 C 6,4 km/h (2 Bft) 100,00 %
29.05.2018 15:32 29,8 C 25,0 C 44 % 1009,4 hPa 0,0 l/m 5,4 km/h (1 Bft) N-NW 339 1 min 0,000 mm 2,7 UV-I 434 W/m 16,2 C 29,8 C 6,4 km/h (2 Bft) 100,00 %
29.05.2018 15:33 29,7 C 25,0 C 45 % 1009,4 hPa 0,0 l/m 4,8 km/h (1 Bft) N-NW 339 1 min 0,000 mm 2,9 UV-I 580 W/m 16,5 C 29,7 C 6,4 km/h (2 Bft) 100,00 %
29.05.2018 15:34 29,7 C 25,0 C 44 % 1009,4 hPa 0,0 l/m 5,3 km/h (1 Bft) N-NW 339 1 min 0,000 mm 3,0 UV-I 613 W/m 16,1 C 29,7 C 6,4 km/h (2 Bft) 100,00 %
29.05.2018 15:35 29,8 C 25,0 C 46 % 1009,4 hPa 0,0 l/m 4,1 km/h (1 Bft) NO 53 1 min 0,000 mm 3,0 UV-I 596 W/m 16,9 C 29,8 C 6,4 km/h (2 Bft) 100,00 %
29.05.2018 15:36 29,7 C 25,0 C 36 % 1009,4 hPa 0,0 l/m 4,6 km/h (1 Bft) NO 38 1 min 0,000 mm 3,1 UV-I 623 W/m 13,0 C 29,7 C 6,4 km/h (2 Bft) 100,00 %
29.05.2018 15:37 29,8 C 25,0 C 38 % 1009,4 hPa 0,0 l/m 6,2 km/h (2 Bft) O 86 1 min 0,000 mm 3,2 UV-I 665 W/m 13,9 C 29,8 C 11,3 km/h (2 Bft) 100,00 %
29.05.2018 15:38 29,9 C 25,0 C 38 % 1009,4 hPa 0,0 l/m 6,2 km/h (2 Bft) O-NO 61 1 min 0,000 mm 3,3 UV-I 724 W/m 14,0 C 29,9 C 11,3 km/h (2 Bft) 95,65 %
29.05.2018 15:39 30,2 C 25,0 C 40 % 1009,3 hPa 0,0 l/m 3,7 km/h (1 Bft) S-SW 194 1 min 0,000 mm 3,5 UV-I 787 W/m 15,1 C 30,2 C 8,0 km/h (2 Bft) 100,00 %
29.05.2018 15:40 30,4 C 25,0 C 34 % 1009,3 hPa 0,0 l/m 9,3 km/h (2 Bft) S 180 1 min 0,000 mm 3,5 UV-I 812 W/m 12,7 C 30,2 C 12,9 km/h (3 Bft) 95,65 %
29.05.2018 15:41 30,4 C 25,0 C 33 % 1009,3 hPa 0,0 l/m 9,1 km/h (2 Bft) O-SO 123 1 min 0,000 mm 3,5 UV-I 816 W/m 12,3 C 30,2 C 12,9 km/h (3 Bft) 95,83 %
29.05.2018 15:42 30,6 C 25,0 C 34 % 1009,3 hPa 0,0 l/m 10,3 km/h (2 Bft) O-SO 119 1 min 0,000 mm 3,5 UV-I 814 W/m 12,9 C 30,3 C 12,9 km/h (3 Bft) 100,00 %
29.05.2018 15:43 30,7 C 25,0 C 34 % 1009,3 hPa 0,0 l/m 7,2 km/h (2 Bft) O-SO 122 1 min 0,000 mm 3,5 UV-I 807 W/m 13,0 C 30,6 C 11,3 km/h (2 Bft) 95,83 %
29.05.2018 15:44 30,9 C 25,0 C 36 % 1009,3 hPa 0,0 l/m 7,0 km/h (2 Bft) SO 128 1 min 0,000 mm 3,4 UV-I 787 W/m 14,1 C 30,9 C 11,3 km/h (2 Bft) 100,00 %
29.05.2018 15:45 31,1 C 25,0 C 34 % 1009,3 hPa 0,0 l/m 4,4 km/h (1 Bft) SO 132 1 min 0,000 mm 3,4 UV-I 784 W/m 13,4 C 31,1 C 11,3 km/h (2 Bft) 95,83 %
29.05.2018 15:46 31,2 C 25,0 C 33 % 1009,3 hPa 0,0 l/m 5,3 km/h (1 Bft) SO 134 1 min 0,000 mm 3,5 UV-I 800 W/m 13,0 C 31,2 C 9,7 km/h (2 Bft) 100,00 %
29.05.2018 15:47 31,3 C 25,0 C 34 % 1009,2 hPa 0,0 l/m 5,6 km/h (1 Bft) SO 128 1 min 0,000 mm 3,4 UV-I 788 W/m 13,5 C 31,3 C 11,3 km/h (2 Bft) 96,30 %
29.05.2018 15:48 31,3 C 25,0 C 35 % 1009,3 hPa 0,0 l/m 8,1 km/h (2 Bft) O 100 1 min 0,000 mm 3,4 UV-I 778 W/m 14,0 C 31,2 C 11,3 km/h (2 Bft) 95,65 %
29.05.2018 15:49 31,3 C 25,0 C 31 % 1009,2 hPa 0,0 l/m 11,6 km/h (2 Bft) SO 128 1 min 0,000 mm 3,3 UV-I 772 W/m 12,1 C 31,1 C 16,1 km/h (3 Bft) 95,83 %
29.05.2018 15:50 31,2 C 25,0 C 32 % 1009,2 hPa 0,0 l/m 15,2 km/h (3 Bft) O-SO 108 1 min 0,000 mm 3,3 UV-I 769 W/m 12,5 C 30,8 C 17,7 km/h (3 Bft) 95,65 %
29.05.2018 15:51 31,2 C 25,0 C 33 % 1009,3 hPa 0,0 l/m 9,5 km/h (2 Bft) S 173 1 min 0,000 mm 3,3 UV-I 774 W/m 13,0 C 31,0 C 17,7 km/h (3 Bft) 100,00 %
29.05.2018 15:52 31,1 C 25,0 C 32 % 1009,2 hPa 0,0 l/m 7,6 km/h (2 Bft) S-SW 201 1 min 0,000 mm 3,2 UV-I 773 W/m 12,4 C 31,0 C 11,3 km/h (2 Bft) 95,65 %
29.05.2018 15:53 30,9 C 25,0 C 32 % 1009,2 hPa 0,0 l/m 4,6 km/h (1 Bft) SO 136 1 min 0,000 mm 3,1 UV-I 762 W/m 12,3 C 30,9 C 8,0 km/h (2 Bft) 100,00 %
29.05.2018 15:54 30,9 C 25,0 C 31 % 1009,2 hPa 0,0 l/m 2,9 km/h (1 Bft) SO 133 1 min 0,000 mm 3,0 UV-I 759 W/m 11,8 C 30,9 C 4,8 km/h (1 Bft) 95,65 %
29.05.2018 15:55 30,9 C 25,0 C 33 % 1009,3 hPa 0,0 l/m 9,0 km/h (2 Bft) S-SO 155 1 min 0,000 mm 2,8 UV-I 662 W/m 12,7 C 30,7 C 12,9 km/h (3 Bft) 100,00 %
29.05.2018 15:56 30,9 C 25,0 C 32 % 1009,2 hPa 0,0 l/m 8,7 km/h (2 Bft) S-SO 160 1 min 0,000 mm 2,6 UV-I 652 W/m 12,3 C 30,8 C 14,5 km/h (3 Bft) 95,65 %
29.05.2018 15:57 30,7 C 25,0 C 31 % 1009,2 hPa 0,0 l/m 4,9 km/h (1 Bft) S 180 1 min 0,000 mm 2,2 UV-I 573 W/m 11,6 C 30,7 C 6,4 km/h (2 Bft) 95,83 %
29.05.2018 15:58 30,6 C 25,0 C 33 % 1009,2 hPa 0,0 l/m 4,4 km/h (1 Bft) SW 216 0 min 0,000 mm 2,3 UV-I 290 W/m 12,5 C 30,6 C 6,4 km/h (2 Bft) 100,00 %
29.05.2018 15:59 30,6 C 25,0 C 34 % 1009,2 hPa 0,0 l/m 6,4 km/h (2 Bft) SO 139 0 min 0,000 mm 2,5 UV-I 290 W/m 12,9 C 30,6 C 12,9 km/h (3 Bft) 95,83 %
29.05.2018 16:00 30,6 C 25,0 C 35 % 1009,2 hPa 0,0 l/m 9,9 km/h (2 Bft) S-SO 157 0 min 0,559 mm 2,2 UV-I 290 W/m 13,4 C 30,4 C 12,9 km/h (3 Bft) 100,00 %
29.05.2018 16:02 30,6 C 25,0 C 35 % 1009,2 hPa 0,0 l/m 11,0 km/h (2 Bft) O-SO 113 0 min 0,000 mm 1,8 UV-I 251 W/m 13,4 C 30,3 C 14,5 km/h (3 Bft) 93,75 %
29.05.2018 16:03 30,6 C 25,0 C 35 % 1009,2 hPa 0,0 l/m 11,3 km/h (2 Bft) O-SO 123 0 min 0,000 mm 1,7 UV-I 198 W/m 13,4 C 30,3 C 14,5 km/h (3 Bft) 95,65 %
29.05.2018 16:04 30,5 C 25,0 C 34 % 1009,2 hPa 0,0 l/m 6,0 km/h (2 Bft) S-SO 153 0 min 0,000 mm 1,5 UV-I 76 W/m 12,8 C 30,5 C 9,7 km/h (2 Bft) 91,67 %
29.05.2018 16:05 30,4 C 25,0 C 34 % 1009,2 hPa 0,0 l/m 8,0 km/h (2 Bft) S-SO 161 0 min 0,000 mm 1,4 UV-I 102 W/m 12,7 C 30,3 C 14,5 km/h (3 Bft) 100,00 %
29.05.2018 16:06 30,3 C 25,0 C 32 % 1009,3 hPa 0,0 l/m 14,8 km/h (3 Bft) S 178 0 min 0,000 mm 1,4 UV-I 167 W/m 11,7 C 29,7 C 22,5 km/h (4 Bft) 100,00 %
29.05.2018 16:07 30,1 C 25,0 C 34 % 1009,2 hPa 0,0 l/m 9,9 km/h (2 Bft) SO 129 0 min 0,000 mm 1,3 UV-I 192 W/m 12,5 C 29,8 C 12,9 km/h (3 Bft) 95,65 %
29.05.2018 16:08 29,9 C 25,0 C 34 % 1009,2 hPa 0,0 l/m 11,6 km/h (2 Bft) S-SO 161 0 min 0,000 mm 1,3 UV-I 182 W/m 12,3 C 29,5 C 14,5 km/h (3 Bft) 95,83 %
29.05.2018 16:09 29,8 C 25,0 C 34 % 1009,2 hPa 0,0 l/m 11,5 km/h (2 Bft) S 176 0 min 0,000 mm 1,3 UV-I 175 W/m 12,2 C 29,4 C 16,1 km/h (3 Bft) 100,00 %
29.05.2018 16:10 29,7 C 25,0 C 35 % 1009,2 hPa 0,0 l/m 8,3 km/h (2 Bft) SO 142 0 min 0,000 mm 1,3 UV-I 172 W/m 12,6 C 29,5 C 11,3 km/h (2 Bft) 100,00 %
29.05.2018 16:11 29,7 C 25,0 C 35 % 1009,2 hPa 0,0 l/m 8,8 km/h (2 Bft) S-SO 165 0 min 0,000 mm 1,2 UV-I 170 W/m 12,6 C 29,5 C 11,3 km/h (2 Bft) 100,00 %
29.05.2018 16:12 29,6 C 25,0 C 36 % 1009,2 hPa 0,0 l/m 12,5 km/h (3 Bft) S 182 0 min 0,000 mm 1,2 UV-I 168 W/m 12,9 C 29,0 C 19,3 km/h (3 Bft) 100,00 %
29.05.2018 16:13 29,4 C 25,0 C 36 % 1009,2 hPa 0,0 l/m 11,8 km/h (2 Bft) S 179 0 min 0,000 mm 1,2 UV-I 165 W/m 12,7 C 28,9 C 16,1 km/h (3 Bft) 91,30 %
29.05.2018 16:14 29,3 C 25,0 C 37 % 1009,1 hPa 0,0 l/m 17,3 km/h (3 Bft) S-SW 199 0 min 0,000 mm 1,2 UV-I 165 W/m 13,1 C 28,4 C 20,9 km/h (4 Bft) 96,30 %
29.05.2018 16:15 29,1 C 25,0 C 37 % 1009,1 hPa 0,0 l/m 13,1 km/h (3 Bft) S-SO 165 0 min 0,000 mm 1,1 UV-I 161 W/m 12,9 C 28,4 C 20,9 km/h (4 Bft) 95,65 %
29.05.2018 16:16 28,9 C 25,0 C 37 % 1009,1 hPa 0,0 l/m 14,9 km/h (3 Bft) S-SO 165 0 min 0,000 mm 1,1 UV-I 157 W/m 12,7 C 28,0 C 25,7 km/h (4 Bft) 100,00 %
29.05.2018 16:17 28,8 C 25,0 C 38 % 1009,1 hPa 0,0 l/m 15,5 km/h (3 Bft) S 182 0 min 0,000 mm 1,1 UV-I 152 W/m 13,0 C 27,9 C 24,1 km/h (4 Bft) 100,00 %
29.05.2018 16:18 28,6 C 25,0 C 38 % 1009,1 hPa 0,0 l/m 12,5 km/h (3 Bft) S-SW 192 0 min 0,000 mm 1,0 UV-I 147 W/m 12,9 C 27,9 C 19,3 km/h (3 Bft) 100,00 %
29.05.2018 16:19 28,4 C 25,0 C 39 % 1009,1 hPa 0,0 l/m 10,4 km/h (2 Bft) S-SW 208 0 min 0,000 mm 1,0 UV-I 142 W/m 13,1 C 27,9 C 16,1 km/h (3 Bft) 95,65 %
29.05.2018 16:20 28,3 C 25,0 C 40 % 1009,1 hPa 0,0 l/m 11,3 km/h (2 Bft) SW 229 0 min 0,000 mm 0,9 UV-I 139 W/m 13,4 C 27,7 C 16,1 km/h (3 Bft) 100,00 %
29.05.2018 16:21 28,2 C 25,0 C 40 % 1009,0 hPa 0,0 l/m 15,2 km/h (3 Bft) S 182 0 min 0,000 mm 0,9 UV-I 136 W/m 13,3 C 27,2 C 24,1 km/h (4 Bft) 100,00 %
29.05.2018 16:22 28,1 C 25,0 C 40 % 1009,1 hPa 0,0 l/m 18,2 km/h (3 Bft) S 177 0 min 0,000 mm 0,9 UV-I 134 W/m 13,2 C 26,8 C 29,0 km/h (5 Bft) 100,00 %
29.05.2018 16:23 28,0 C 25,0 C 41 % 1009,1 hPa 0,0 l/m 14,0 km/h (3 Bft) S-SW 204 0 min 0,000 mm 0,9 UV-I 136 W/m 13,5 C 27,0 C 22,5 km/h (4 Bft) 100,00 %
29.05.2018 16:24 27,9 C 25,0 C 42 % 1009,0 hPa 0,0 l/m 10,2 km/h (2 Bft) S-SO 155 0 min 0,000 mm 0,9 UV-I 140 W/m 13,8 C 27,3 C 14,5 km/h (3 Bft) 100,00 %
29.05.2018 16:25 27,8 C 25,0 C 42 % 1009,0 hPa 0,0 l/m 8,3 km/h (2 Bft) S-SW 195 0 min 0,000 mm 0,9 UV-I 146 W/m 13,7 C 27,5 C 14,5 km/h (3 Bft) 100,00 %
29.05.2018 16:26 27,7 C 25,0 C 42 % 1009,0 hPa 0,0 l/m 15,6 km/h (3 Bft) S-SW 211 0 min 0,000 mm 0,9 UV-I 154 W/m 13,6 C 26,5 C 24,1 km/h (4 Bft) 100,00 %
29.05.2018 16:27 27,6 C 25,0 C 41 % 1009,0 hPa 0,0 l/m 12,9 km/h (3 Bft) SW 231 0 min 0,000 mm 0,9 UV-I 160 W/m 13,1 C 26,7 C 19,3 km/h (3 Bft) 95,83 %
29.05.2018 16:28 27,6 C 25,0 C 41 % 1009,0 hPa 0,0 l/m 15,6 km/h (3 Bft) S-SW 211 0 min 0,000 mm 0,9 UV-I 168 W/m 13,1 C 26,4 C 20,9 km/h (4 Bft) 100,00 %
29.05.2018 16:29 27,4 C 25,0 C 43 % 1009,0 hPa 0,0 l/m 17,7 km/h (3 Bft) S 179 0 min 0,000 mm 1,0 UV-I 175 W/m 13,7 C 26,0 C 27,4 km/h (4 Bft) 100,00 %
29.05.2018 16:30 27,2 C 25,0 C 44 % 1009,0 hPa 0,0 l/m 15,8 km/h (3 Bft) S 191 0 min 0,000 mm 1,0 UV-I 181 W/m 13,9 C 25,9 C 24,1 km/h (4 Bft) 100,00 %
29.05.2018 16:31 26,8 C 25,0 C 45 % 1009,0 hPa 0,0 l/m 14,9 km/h (3 Bft) S-SW 204 0 min 0,000 mm 1,0 UV-I 191 W/m 13,9 C 25,5 C 22,5 km/h (4 Bft) 100,00 %
29.05.2018 16:32 26,6 C 25,0 C 46 % 1009,0 hPa 0,0 l/m 14,5 km/h (3 Bft) S-SW 207 0 min 0,000 mm 1,0 UV-I 199 W/m 14,0 C 25,3 C 25,7 km/h (4 Bft) 100,00 %
29.05.2018 16:33 26,4 C 25,0 C 47 % 1008,9 hPa 0,0 l/m 11,2 km/h (2 Bft) SW 222 0 min 0,000 mm 1,0 UV-I 206 W/m 14,2 C 25,5 C 17,7 km/h (3 Bft) 100,00 %
29.05.2018 16:34 26,3 C 25,0 C 47 % 1009,0 hPa 0,0 l/m 15,6 km/h (3 Bft) S 169 0 min 0,000 mm 1,0 UV-I 211 W/m 14,1 C 24,8 C 25,7 km/h (4 Bft) 96,30 %
29.05.2018 16:35 26,2 C 25,0 C 47 % 1008,9 hPa 0,0 l/m 12,9 km/h (3 Bft) S-SW 198 0 min 0,000 mm 1,0 UV-I 214 W/m 14,0 C 25,0 C 16,1 km/h (3 Bft) 95,65 %
29.05.2018 16:36 26,2 C 25,0 C 47 % 1008,9 hPa 0,0 l/m 16,8 km/h (3 Bft) S-SW 209 0 min 0,000 mm 1,0 UV-I 216 W/m 14,0 C 24,5 C 22,5 km/h (4 Bft) 100,00 %
29.05.2018 16:37 26,2 C 25,0 C 46 % 1008,9 hPa 0,0 l/m 13,9 km/h (3 Bft) S-SW 198 0 min 0,000 mm 1,0 UV-I 218 W/m 13,6 C 24,9 C 19,3 km/h (3 Bft) 100,00 %
29.05.2018 16:38 26,2 C 25,0 C 47 % 1008,9 hPa 0,0 l/m 12,9 km/h (3 Bft) S-SW 198 0 min 0,000 mm 1,0 UV-I 220 W/m 14,0 C 25,0 C 19,3 km/h (3 Bft) 100,00 %
29.05.2018 16:39 26,2 C 25,0 C 47 % 1008,9 hPa 0,0 l/m 9,9 km/h (2 Bft) SW 223 0 min 0,000 mm 1,0 UV-I 222 W/m 14,0 C 25,5 C 14,5 km/h (3 Bft) 95,65 %
29.05.2018 16:40 26,2 C 25,0 C 47 % 1008,9 hPa 0,0 l/m 11,9 km/h (2 Bft) S-SW 200 0 min 0,000 mm 1,0 UV-I 224 W/m 14,0 C 25,2 C 19,3 km/h (3 Bft) 100,00 %
29.05.2018 16:41 26,2 C 25,0 C 46 % 1008,9 hPa 0,0 l/m 11,7 km/h (2 Bft) S-SW 198 0 min 0,000 mm 1,0 UV-I 227 W/m 13,6 C 25,2 C 16,1 km/h (3 Bft) 100,00 %
29.05.2018 16:42 26,3 C 25,0 C 46 % 1008,9 hPa 0,0 l/m 14,2 km/h (3 Bft) S 181 0 min 0,000 mm 1,1 UV-I 231 W/m 13,7 C 25,0 C 17,7 km/h (3 Bft) 100,00 %
29.05.2018 16:43 26,3 C 25,0 C 46 % 1008,8 hPa 0,0 l/m 11,1 km/h (2 Bft) S 182 0 min 0,000 mm 1,1 UV-I 237 W/m 13,7 C 25,4 C 16,1 km/h (3 Bft) 97,37 %
29.05.2018 16:44 26,3 C 25,0 C 46 % 1008,9 hPa 0,0 l/m 8,6 km/h (2 Bft) S 188 0 min 0,000 mm 1,1 UV-I 240 W/m 13,7 C 25,8 C 12,9 km/h (3 Bft) 100,00 %
29.05.2018 16:45 26,3 C 25,0 C 46 % 1008,9 hPa 0,0 l/m 10,9 km/h (2 Bft) S 171 0 min 0,000 mm 1,1 UV-I 243 W/m 13,7 C 25,5 C 16,1 km/h (3 Bft) 100,00 %
29.05.2018 16:46 26,4 C 25,0 C 47 % 1008,8 hPa 0,0 l/m 13,7 km/h (3 Bft) S-SW 193 0 min 0,000 mm 1,1 UV-I 244 W/m 14,2 C 25,2 C 20,9 km/h (4 Bft) 100,00 %
29.05.2018 16:47 26,4 C 25,0 C 46 % 1008,8 hPa 0,0 l/m 10,9 km/h (2 Bft) S 173 0 min 0,000 mm 1,1 UV-I 244 W/m 13,8 C 25,6 C 20,9 km/h (4 Bft) 100,00 %
29.05.2018 16:48 26,4 C 25,0 C 46 % 1008,9 hPa 0,0 l/m 10,0 km/h (2 Bft) S 187 0 min 0,000 mm 1,1 UV-I 244 W/m 13,8 C 25,7 C 14,5 km/h (3 Bft) 100,00 %
29.05.2018 16:49 26,4 C 25,0 C 46 % 1008,8 hPa 0,0 l/m 7,5 km/h (2 Bft) S 178 0 min 0,000 mm 1,1 UV-I 244 W/m 13,8 C 26,2 C 11,3 km/h (2 Bft) 100,00 %
29.05.2018 16:50 26,5 C 25,0 C 46 % 1008,9 hPa 0,0 l/m 10,0 km/h (2 Bft) S 179 0 min 0,000 mm 1,1 UV-I 244 W/m 13,9 C 25,8 C 17,7 km/h (3 Bft) 100,00 %
29.05.2018 16:51 26,6 C 25,0 C 46 % 1008,8 hPa 0,0 l/m 9,8 km/h (2 Bft) S-SW 194 0 min 0,000 mm 1,1 UV-I 247 W/m 14,0 C 26,0 C 12,9 km/h (3 Bft) 100,00 %
29.05.2018 16:52 26,7 C 25,0 C 46 % 1008,8 hPa 0,0 l/m 7,8 km/h (2 Bft) S-SW 205 0 min 0,000 mm 1,1 UV-I 248 W/m 14,1 C 26,4 C 11,3 km/h (2 Bft) 100,00 %
29.05.2018 16:53 26,7 C 25,0 C 45 % 1008,9 hPa 0,0 l/m 8,8 km/h (2 Bft) S 178 0 min 0,000 mm 1,1 UV-I 247 W/m 13,8 C 26,2 C 14,5 km/h (3 Bft) 95,65 %
29.05.2018 16:54 26,8 C 25,0 C 45 % 1008,8 hPa 0,0 l/m 8,4 km/h (2 Bft) SW 236 0 min 0,000 mm 1,1 UV-I 246 W/m 13,9 C 26,4 C 11,3 km/h (2 Bft) 95,83 %
29.05.2018 16:55 26,8 C 25,0 C 45 % 1008,9 hPa 0,0 l/m 7,1 km/h (2 Bft) S 190 0 min 0,000 mm 1,1 UV-I 244 W/m 13,9 C 26,7 C 11,3 km/h (2 Bft) 100,00 %
29.05.2018 16:56 26,9 C 25,0 C 45 % 1008,8 hPa 0,0 l/m 5,5 km/h (1 Bft) S-SW 199 0 min 0,000 mm 1,1 UV-I 244 W/m 13,9 C 26,9 C 9,7 km/h (2 Bft) 100,00 %
29.05.2018 16:57 27,0 C 25,0 C 45 % 1008,8 hPa 0,0 l/m 8,9 km/h (2 Bft) S 181 0 min 0,000 mm 1,1 UV-I 245 W/m 14,0 C 26,5 C 12,9 km/h (3 Bft) 100,00 %
29.05.2018 16:58 27,1 C 25,0 C 44 % 1008,8 hPa 0,0 l/m 11,7 km/h (2 Bft) S 188 0 min 0,000 mm 1,1 UV-I 246 W/m 13,8 C 26,2 C 16,1 km/h (3 Bft) 100,00 %
29.05.2018 16:59 27,1 C 25,0 C 44 % 1008,8 hPa 0,0 l/m 12,3 km/h (3 Bft) S-SW 213 0 min 0,000 mm 1,1 UV-I 246 W/m 13,8 C 26,2 C 16,1 km/h (3 Bft) 93,33 %
29.05.2018 17:00 27,2 C 25,0 C 44 % 1008,8 hPa 0,0 l/m 8,6 km/h (2 Bft) S 173 0 min 0,000 mm 1,1 UV-I 249 W/m 13,9 C 26,8 C 11,3 km/h (2 Bft) 100,00 %
29.05.2018 17:02 27,2 C 25,0 C 44 % 1008,8 hPa 0,0 l/m 8,5 km/h (2 Bft) S-SO 167 0 min 0,254 mm 1,1 UV-I 261 W/m 13,9 C 26,8 C 14,5 km/h (3 Bft) 100,00 %
29.05.2018 17:03 27,2 C 25,0 C 44 % 1008,8 hPa 0,0 l/m 6,9 km/h (2 Bft) S-SW 200 0 min 0,000 mm 1,1 UV-I 264 W/m 13,9 C 27,1 C 12,9 km/h (3 Bft) 100,00 %
29.05.2018 17:04 27,2 C 25,0 C 45 % 1008,8 hPa 0,0 l/m 5,6 km/h (1 Bft) S-SW 193 0 min 0,000 mm 1,1 UV-I 266 W/m 14,2 C 27,2 C 8,0 km/h (2 Bft) 95,65 %
29.05.2018 17:05 27,2 C 25,0 C 46 % 1008,8 hPa 0,0 l/m 6,0 km/h (2 Bft) S-SW 201 0 min 0,000 mm 1,2 UV-I 268 W/m 14,6 C 27,2 C 9,7 km/h (2 Bft) 100,00 %
29.05.2018 17:06 27,3 C 25,0 C 46 % 1008,8 hPa 0,0 l/m 6,6 km/h (2 Bft) S-SW 196 0 min 0,000 mm 1,2 UV-I 297 W/m 14,6 C 27,3 C 9,7 km/h (2 Bft) 100,00 %
29.05.2018 17:08 27,3 C 25,0 C 45 % 1008,8 hPa 0,0 l/m 4,6 km/h (1 Bft) S-SW 209 2 min 0,000 mm 1,2 UV-I 366 W/m 14,3 C 27,3 C 8,0 km/h (2 Bft) 100,00 %
29.05.2018 17:09 27,4 C 25,0 C 46 % 1008,8 hPa 0,0 l/m 4,7 km/h (1 Bft) S-SW 196 1 min 0,000 mm 1,3 UV-I 382 W/m 14,7 C 27,4 C 6,4 km/h (2 Bft) 100,00 %
29.05.2018 17:10 27,4 C 25,0 C 45 % 1008,8 hPa 0,0 l/m 5,0 km/h (1 Bft) S 190 1 min 0,000 mm 1,2 UV-I 380 W/m 14,4 C 27,4 C 8,0 km/h (2 Bft) 100,00 %
29.05.2018 17:11 27,4 C 25,0 C 46 % 1008,8 hPa 0,0 l/m 6,8 km/h (2 Bft) S-SW 196 0 min 0,000 mm 1,1 UV-I 300 W/m 14,7 C 27,3 C 9,7 km/h (2 Bft) 100,00 %
29.05.2018 17:12 27,4 C 25,0 C 45 % 1008,8 hPa 0,0 l/m 4,0 km/h (1 Bft) S-SW 202 0 min 0,000 mm 1,2 UV-I 288 W/m 14,4 C 27,4 C 6,4 km/h (2 Bft) 100,00 %
29.05.2018 17:13 27,5 C 25,0 C 46 % 1008,8 hPa 0,0 l/m 7,6 km/h (2 Bft) SW 217 0 min 0,000 mm 1,1 UV-I 285 W/m 14,8 C 27,3 C 9,7 km/h (2 Bft) 95,83 %
29.05.2018 17:14 27,5 C 25,0 C 46 % 1008,8 hPa 0,0 l/m 7,0 km/h (2 Bft) S-SW 202 0 min 0,000 mm 1,1 UV-I 287 W/m 14,8 C 27,4 C 9,7 km/h (2 Bft) 92,31 %
29.05.2018 17:15 27,6 C 25,0 C 45 % 1008,8 hPa 0,0 l/m 4,5 km/h (1 Bft) S 188 0 min 0,000 mm 1,1 UV-I 283 W/m 14,6 C 27,6 C 8,0 km/h (2 Bft) 100,00 %
29.05.2018 17:16 27,6 C 25,0 C 47 % 1008,8 hPa 0,0 l/m 5,6 km/h (1 Bft) S-SW 210 1 min 0,000 mm 1,1 UV-I 308 W/m 15,3 C 27,6 C 8,0 km/h (2 Bft) 100,00 %
29.05.2018 17:18 27,7 C 25,0 C 45 % 1008,8 hPa 0,0 l/m 5,6 km/h (1 Bft) S 175 2 min 0,000 mm 1,2 UV-I 370 W/m 14,7 C 27,7 C 8,0 km/h (2 Bft) 100,00 %
29.05.2018 17:19 27,7 C 25,0 C 45 % 1008,8 hPa 0,0 l/m 4,3 km/h (1 Bft) S 174 1 min 0,000 mm 1,1 UV-I 329 W/m 14,7 C 27,7 C 4,8 km/h (1 Bft) 100,00 %
29.05.2018 17:20 27,8 C 25,0 C 45 % 1008,8 hPa 0,0 l/m 7,2 km/h (2 Bft) S-SO 163 1 min 0,000 mm 1,1 UV-I 318 W/m 14,8 C 27,7 C 9,7 km/h (2 Bft) 100,00 %
29.05.2018 17:21 27,8 C 25,0 C 45 % 1008,7 hPa 0,0 l/m 5,4 km/h (1 Bft) S-SO 162 0 min 0,000 mm 1,0 UV-I 274 W/m 14,8 C 27,8 C 8,0 km/h (2 Bft) 100,00 %
29.05.2018 17:22 27,9 C 25,0 C 45 % 1008,7 hPa 0,0 l/m 5,3 km/h (1 Bft) SO 128 0 min 0,000 mm 1,0 UV-I 261 W/m 14,8 C 27,9 C 8,0 km/h (2 Bft) 100,00 %
29.05.2018 17:23 28,0 C 25,0 C 43 % 1008,7 hPa 0,0 l/m 6,0 km/h (2 Bft) S-SO 155 0 min 0,000 mm 1,0 UV-I 259 W/m 14,2 C 28,0 C 9,7 km/h (2 Bft) 100,00 %
29.05.2018 17:24 28,1 C 25,0 C 45 % 1008,7 hPa 0,0 l/m 6,9 km/h (2 Bft) SO 139 0 min 0,000 mm 0,9 UV-I 222 W/m 15,0 C 28,0 C 8,0 km/h (2 Bft) 96,67 %
29.05.2018 17:25 28,2 C 25,0 C 42 % 1008,7 hPa 0,0 l/m 6,7 km/h (2 Bft) SO 129 0 min 0,000 mm 0,9 UV-I 215 W/m 14,0 C 28,2 C 8,0 km/h (2 Bft) 100,00 %
29.05.2018 17:26 28,2 C 25,0 C 42 % 1008,7 hPa 0,0 l/m 6,5 km/h (2 Bft) SO 135 0 min 0,000 mm 0,9 UV-I 205 W/m 14,0 C 28,2 C 11,3 km/h (2 Bft) 100,00 %
29.05.2018 17:27 28,2 C 25,0 C 43 % 1008,7 hPa 0,0 l/m 4,9 km/h (1 Bft) S-SO 157 0 min 0,000 mm 0,9 UV-I 187 W/m 14,4 C 28,2 C 9,7 km/h (2 Bft) 100,00 %
29.05.2018 17:28 28,2 C 25,0 C 42 % 1008,7 hPa 0,0 l/m 5,1 km/h (1 Bft) S-SW 193 0 min 0,000 mm 0,9 UV-I 181 W/m 14,0 C 28,2 C 6,4 km/h (2 Bft) 100,00 %
29.05.2018 17:29 28,2 C 25,0 C 44 % 1008,7 hPa 0,0 l/m 5,9 km/h (2 Bft) O-SO 116 0 min 0,000 mm 0,8 UV-I 169 W/m 14,8 C 28,2 C 9,7 km/h (2 Bft) 100,00 %
29.05.2018 17:30 28,2 C 25,0 C 45 % 1008,7 hPa 0,0 l/m 3,9 km/h (1 Bft) O-SO 116 0 min 0,000 mm 0,8 UV-I 159 W/m 15,1 C 28,2 C 8,0 km/h (2 Bft) 100,00 %
29.05.2018 17:31 28,2 C 25,0 C 44 % 1008,7 hPa 0,0 l/m 4,0 km/h (1 Bft) S-SO 149 0 min 0,000 mm 0,8 UV-I 152 W/m 14,8 C 28,2 C 4,8 km/h (1 Bft) 92,31 %
29.05.2018 17:32 28,3 C 25,0 C 44 % 1008,7 hPa 0,0 l/m 6,6 km/h (2 Bft) SO 140 0 min 0,000 mm 0,8 UV-I 146 W/m 14,9 C 28,3 C 11,3 km/h (2 Bft) 95,83 %
29.05.2018 17:33 28,2 C 25,0 C 41 % 1008,7 hPa 0,0 l/m 10,4 km/h (2 Bft) S-SO 150 0 min 0,000 mm 0,8 UV-I 140 W/m 13,7 C 27,7 C 12,9 km/h (3 Bft) 100,00 %
29.05.2018 17:34 28,2 C 25,0 C 42 % 1008,7 hPa 0,0 l/m 8,9 km/h (2 Bft) SO 146 0 min 0,000 mm 0,8 UV-I 136 W/m 14,0 C 27,8 C 12,9 km/h (3 Bft) 95,83 %
29.05.2018 17:35 28,1 C 25,0 C 42 % 1008,7 hPa 0,0 l/m 5,9 km/h (2 Bft) SO 127 0 min 0,000 mm 0,8 UV-I 132 W/m 14,0 C 28,1 C 9,7 km/h (2 Bft) 100,00 %
29.05.2018 17:36 28,1 C 25,0 C 42 % 1008,7 hPa 0,0 l/m 5,8 km/h (2 Bft) SO 138 0 min 0,000 mm 0,8 UV-I 128 W/m 14,0 C 28,1 C 8,0 km/h (2 Bft) 93,33 %
29.05.2018 17:38 28,0 C 25,0 C 42 % 1008,7 hPa 0,0 l/m 9,2 km/h (2 Bft) SO 137 0 min 0,000 mm 0,7 UV-I 124 W/m 13,9 C 27,6 C 14,5 km/h (3 Bft) 96,00 %
29.05.2018 17:39 27,9 C 25,0 C 41 % 1008,7 hPa 0,0 l/m 12,8 km/h (3 Bft) O-SO 122 0 min 0,000 mm 0,7 UV-I 120 W/m 13,4 C 27,0 C 16,1 km/h (3 Bft) 100,00 %
29.05.2018 17:40 27,9 C 25,0 C 40 % 1008,7 hPa 0,0 l/m 10,5 km/h (2 Bft) S-SO 168 0 min 0,000 mm 0,7 UV-I 119 W/m 13,0 C 27,3 C 19,3 km/h (3 Bft) 86,96 %
29.05.2018 17:41 27,9 C 25,0 C 40 % 1008,6 hPa 0,0 l/m 12,3 km/h (3 Bft) S-SO 153 0 min 0,000 mm 0,7 UV-I 116 W/m 13,0 C 27,1 C 17,7 km/h (3 Bft) 100,00 %
29.05.2018 17:42 27,8 C 25,0 C 42 % 1008,6 hPa 0,0 l/m 7,7 km/h (2 Bft) SO 146 0 min 0,000 mm 0,7 UV-I 114 W/m 13,7 C 27,6 C 12,9 km/h (3 Bft) 96,15 %
29.05.2018 17:43 27,8 C 25,0 C 40 % 1008,6 hPa 0,0 l/m 6,2 km/h (2 Bft) S 188 0 min 0,000 mm 0,7 UV-I 114 W/m 12,9 C 27,8 C 9,7 km/h (2 Bft) 96,30 %
29.05.2018 17:44 27,7 C 25,0 C 40 % 1008,6 hPa 0,0 l/m 7,9 km/h (2 Bft) SO 140 0 min 0,000 mm 0,7 UV-I 113 W/m 12,9 C 27,5 C 14,5 km/h (3 Bft) 100,00 %
29.05.2018 17:45 27,7 C 25,0 C 40 % 1008,6 hPa 0,0 l/m 10,6 km/h (2 Bft) SO 140 0 min 0,000 mm 0,7 UV-I 112 W/m 12,9 C 27,1 C 14,5 km/h (3 Bft) 97,62 %
29.05.2018 17:46 27,7 C 25,0 C 41 % 1008,6 hPa 0,0 l/m 9,3 km/h (2 Bft) SO 145 0 min 0,000 mm 0,7 UV-I 112 W/m 13,2 C 27,2 C 12,9 km/h (3 Bft) 100,00 %
29.05.2018 17:47 27,6 C 25,0 C 41 % 1008,6 hPa 0,0 l/m 9,2 km/h (2 Bft) O-SO 114 0 min 0,000 mm 0,7 UV-I 113 W/m 13,1 C 27,1 C 12,9 km/h (3 Bft) 96,30 %
29.05.2018 17:48 27,6 C 25,0 C 41 % 1008,6 hPa 0,0 l/m 10,6 km/h (2 Bft) SO 129 0 min 0,000 mm 0,7 UV-I 114 W/m 13,1 C 27,0 C 12,9 km/h (3 Bft) 100,00 %
29.05.2018 17:49 27,6 C 25,0 C 42 % 1008,6 hPa 0,0 l/m 9,9 km/h (2 Bft) S-SO 150 0 min 0,000 mm 0,7 UV-I 114 W/m 13,5 C 27,0 C 16,1 km/h (3 Bft) 95,83 %
29.05.2018 17:50 27,6 C 25,0 C 41 % 1008,6 hPa 0,0 l/m 10,8 km/h (2 Bft) O-SO 121 0 min 0,000 mm 0,6 UV-I 114 W/m 13,1 C 26,9 C 16,1 km/h (3 Bft) 95,65 %
29.05.2018 17:51 27,6 C 25,0 C 42 % 1008,6 hPa 0,0 l/m 7,8 km/h (2 Bft) SO 133 0 min 0,000 mm 0,6 UV-I 113 W/m 13,5 C 27,4 C 11,3 km/h (2 Bft) 100,00 %
29.05.2018 17:52 27,6 C 25,0 C 42 % 1008,6 hPa 0,0 l/m 6,9 km/h (2 Bft) SO 143 0 min 0,000 mm 0,6 UV-I 112 W/m 13,5 C 27,5 C 11,3 km/h (2 Bft) 95,65 %
29.05.2018 17:53 27,6 C 25,0 C 41 % 1008,6 hPa 0,0 l/m 9,3 km/h (2 Bft) SO 134 0 min 0,000 mm 0,6 UV-I 111 W/m 13,1 C 27,1 C 14,5 km/h (3 Bft) 100,00 %
29.05.2018 17:54 27,5 C 25,0 C 42 % 1008,6 hPa 0,0 l/m 6,8 km/h (2 Bft) SO 127 0 min 0,000 mm 0,6 UV-I 109 W/m 13,4 C 27,4 C 9,7 km/h (2 Bft) 97,84 %
29.05.2018 17:55 27,5 C 25,0 C 42 % 1008,6 hPa 0,0 l/m 8,3 km/h (2 Bft) S-SO 166 0 min 0,000 mm 0,6 UV-I 108 W/m 13,4 C 27,2 C 11,3 km/h (2 Bft) 95,12 %
29.05.2018 17:56 27,5 C 25,0 C 42 % 1008,6 hPa 0,0 l/m 10,6 km/h (2 Bft) S-SO 147 0 min 0,000 mm 0,6 UV-I 106 W/m 13,4 C 26,8 C 14,5 km/h (3 Bft) 92,59 %
29.05.2018 17:57 27,5 C 25,0 C 40 % 1008,6 hPa 0,0 l/m 13,7 km/h (3 Bft) SO 140 0 min 0,000 mm 0,6 UV-I 105 W/m 12,7 C 26,5 C 19,3 km/h (3 Bft) 95,65 %
29.05.2018 17:58 27,5 C 25,0 C 41 % 1008,6 hPa 0,0 l/m 7,8 km/h (2 Bft) SO 133 0 min 0,000 mm 0,5 UV-I 106 W/m 13,1 C 27,3 C 11,3 km/h (2 Bft) 96,15 %
29.05.2018 17:59 27,5 C 25,0 C 42 % 1008,6 hPa 0,0 l/m 6,8 km/h (2 Bft) O-SO 119 0 min 0,000 mm 0,5 UV-I 107 W/m 13,4 C 27,4 C 12,9 km/h (3 Bft) 95,83 %
29.05.2018 18:00 27,4 C 25,0 C 41 % 1008,6 hPa 0,0 l/m 6,1 km/h (2 Bft) O-SO 123 0 min 0,203 mm 0,5 UV-I 109 W/m 13,0 C 27,4 C 6,4 km/h (2 Bft) 91,67 %
29.05.2018 18:02 27,4 C 25,0 C 41 % 1008,6 hPa 0,0 l/m 7,1 km/h (2 Bft) O 80 0 min 0,000 mm 0,5 UV-I 109 W/m 13,0 C 27,3 C 12,9 km/h (3 Bft) 96,23 %
29.05.2018 18:03 27,3 C 25,0 C 42 % 1008,6 hPa 0,0 l/m 6,8 km/h (2 Bft) O-SO 113 0 min 0,000 mm 0,5 UV-I 108 W/m 13,2 C 27,2 C 9,7 km/h (2 Bft) 100,00 %
29.05.2018 18:04 27,3 C 25,0 C 42 % 1008,6 hPa 0,0 l/m 5,8 km/h (2 Bft) O-SO 104 0 min 0,000 mm 0,5 UV-I 107 W/m 13,2 C 27,3 C 6,4 km/h (2 Bft) 95,83 %
29.05.2018 18:05 27,3 C 25,0 C 43 % 1008,6 hPa 0,0 l/m 3,6 km/h (1 Bft) O-SO 105 0 min 0,000 mm 0,5 UV-I 105 W/m 13,6 C 27,3 C 4,8 km/h (1 Bft) 91,30 %
29.05.2018 18:06 27,3 C 25,0 C 43 % 1008,6 hPa 0,0 l/m 5,5 km/h (1 Bft) O-SO 121 0 min 0,000 mm 0,5 UV-I 104 W/m 13,6 C 27,3 C 11,3 km/h (2 Bft) 100,00 %
29.05.2018 18:08 27,2 C 25,0 C 44 % 1008,7 hPa 0,0 l/m 10,0 km/h (2 Bft) S-SO 151 0 min 0,000 mm 0,5 UV-I 102 W/m 13,9 C 26,6 C 14,5 km/h (3 Bft) 95,45 %
29.05.2018 18:09 27,2 C 25,0 C 43 % 1008,7 hPa 0,0 l/m 6,8 km/h (2 Bft) O 95 0 min 0,000 mm 0,5 UV-I 102 W/m 13,5 C 27,1 C 11,3 km/h (2 Bft) 94,12 %
29.05.2018 18:10 27,2 C 25,0 C 44 % 1008,7 hPa 0,0 l/m 5,8 km/h (2 Bft) O-SO 109 0 min 0,000 mm 0,5 UV-I 102 W/m 13,9 C 27,2 C 8,0 km/h (2 Bft) 95,83 %
29.05.2018 18:11 27,1 C 25,0 C 44 % 1008,6 hPa 0,0 l/m 8,6 km/h (2 Bft) SO 129 0 min 0,000 mm 0,1 UV-I 104 W/m 13,8 C 26,7 C 12,9 km/h (3 Bft) 96,15 %
29.05.2018 18:12 27,1 C 25,0 C 44 % 1008,6 hPa 0,0 l/m 9,1 km/h (2 Bft) O-SO 123 0 min 0,000 mm 0,0 UV-I 104 W/m 13,8 C 26,6 C 12,9 km/h (3 Bft) 100,00 %
29.05.2018 18:13 27,1 C 25,0 C 44 % 1008,6 hPa 0,0 l/m 8,2 km/h (2 Bft) SO 139 0 min 0,000 mm 0,0 UV-I 104 W/m 13,8 C 26,8 C 11,3 km/h (2 Bft) 96,30 %
29.05.2018 18:14 27,0 C 25,0 C 44 % 1008,6 hPa 0,0 l/m 10,3 km/h (2 Bft) SO 133 0 min 0,000 mm 0,0 UV-I 104 W/m 13,7 C 26,3 C 16,1 km/h (3 Bft) 100,00 %
29.05.2018 18:15 26,9 C 25,0 C 44 % 1008,7 hPa 0,0 l/m 8,2 km/h (2 Bft) O-SO 117 0 min 0,000 mm 0,0 UV-I 105 W/m 13,6 C 26,6 C 11,3 km/h (2 Bft) 96,30 %
29.05.2018 18:16 26,9 C 25,0 C 44 % 1008,7 hPa 0,0 l/m 7,9 km/h (2 Bft) O-SO 116 0 min 0,000 mm 0,0 UV-I 105 W/m 13,6 C 26,6 C 11,3 km/h (2 Bft) 96,55 %
29.05.2018 18:17 26,9 C 25,0 C 44 % 1008,6 hPa 0,0 l/m 7,4 km/h (2 Bft) O-SO 119 0 min 0,000 mm 0,0 UV-I 105 W/m 13,6 C 26,7 C 11,3 km/h (2 Bft) 100,00 %
29.05.2018 18:18 27,0 C 25,0 C 44 % 1008,7 hPa 0,0 l/m 5,4 km/h (1 Bft) O-SO 115 0 min 0,000 mm 0,0 UV-I 105 W/m 13,7 C 27,0 C 9,7 km/h (2 Bft) 100,00 %
29.05.2018 18:19 26,9 C 25,0 C 44 % 1008,7 hPa 0,0 l/m 4,9 km/h (1 Bft) O 95 0 min 0,000 mm 0,0 UV-I 104 W/m 13,6 C 26,9 C 6,4 km/h (2 Bft) 92,59 %
29.05.2018 18:20 26,9 C 25,0 C 45 % 1008,7 hPa 0,0 l/m 5,5 km/h (1 Bft) O 92 0 min 0,000 mm 0,0 UV-I 103 W/m 13,9 C 26,9 C 6,4 km/h (2 Bft) 96,15 %
29.05.2018 18:21 26,9 C 25,0 C 44 % 1008,7 hPa 0,0 l/m 4,7 km/h (1 Bft) O-SO 121 0 min 0,000 mm 0,0 UV-I 101 W/m 13,6 C 26,9 C 8,0 km/h (2 Bft) 100,00 %
29.05.2018 18:22 26,9 C 25,0 C 46 % 1008,7 hPa 0,0 l/m 5,3 km/h (1 Bft) O-SO 109 0 min 0,000 mm 0,0 UV-I 98 W/m 14,3 C 26,9 C 11,3 km/h (2 Bft) 95,65 %
29.05.2018 18:23 26,8 C 25,0 C 45 % 1008,6 hPa 0,0 l/m 9,6 km/h (2 Bft) O-SO 107 0 min 0,000 mm 0,0 UV-I 97 W/m 13,9 C 26,2 C 12,9 km/h (3 Bft) 100,00 %
29.05.2018 18:24 26,8 C 25,0 C 45 % 1008,6 hPa 0,0 l/m 8,4 km/h (2 Bft) O-SO 115 0 min 0,000 mm 0,0 UV-I 94 W/m 13,9 C 26,4 C 11,3 km/h (2 Bft) 96,55 %
29.05.2018 18:25 26,8 C 25,0 C 45 % 1008,7 hPa 0,0 l/m 7,8 km/h (2 Bft) SO 134 0 min 0,000 mm 0,0 UV-I 92 W/m 13,9 C 26,5 C 11,3 km/h (2 Bft) 100,00 %
29.05.2018 18:26 26,8 C 25,0 C 45 % 1008,7 hPa 0,0 l/m 5,9 km/h (2 Bft) O-SO 104 0 min 0,000 mm 0,0 UV-I 90 W/m 13,9 C 26,8 C 6,4 km/h (2 Bft) 95,65 %
29.05.2018 18:27 26,8 C 25,0 C 45 % 1008,7 hPa 0,0 l/m 5,8 km/h (2 Bft) O-SO 113 0 min 0,000 mm 0,0 UV-I 89 W/m 13,9 C 26,8 C 9,7 km/h (2 Bft) 97,19 %
29.05.2018 18:28 26,8 C 25,0 C 46 % 1008,7 hPa 0,0 l/m 7,2 km/h (2 Bft) O-SO 111 0 min 0,000 mm 0,0 UV-I 86 W/m 14,2 C 26,6 C 14,5 km/h (3 Bft) 97,73 %
29.05.2018 18:29 26,8 C 25,0 C 45 % 1008,7 hPa 0,0 l/m 8,2 km/h (2 Bft) SO 145 0 min 0,000 mm 0,0 UV-I 84 W/m 13,9 C 26,5 C 14,5 km/h (3 Bft) 96,30 %
29.05.2018 18:30 26,8 C 25,0 C 45 % 1008,6 hPa 0,0 l/m 4,9 km/h (1 Bft) S-SO 150 0 min 0,000 mm 0,0 UV-I 83 W/m 13,9 C 26,8 C 6,4 km/h (2 Bft) 100,00 %
29.05.2018 18:31 26,8 C 25,0 C 45 % 1008,7 hPa 0,0 l/m 4,9 km/h (1 Bft) O-SO 105 0 min 0,000 mm 0,0 UV-I 83 W/m 13,9 C 26,8 C 9,7 km/h (2 Bft) 95,65 %
29.05.2018 18:33 26,7 C 25,0 C 45 % 1008,7 hPa 0,0 l/m 6,6 km/h (2 Bft) O-SO 114 0 min 0,000 mm 0,0 UV-I 81 W/m 13,8 C 26,7 C 14,5 km/h (3 Bft) 96,61 %
29.05.2018 18:34 26,7 C 25,0 C 45 % 1008,7 hPa 0,0 l/m 4,8 km/h (1 Bft) SO 140 0 min 0,000 mm 0,0 UV-I 81 W/m 13,8 C 26,7 C 6,4 km/h (2 Bft) 100,00 %
29.05.2018 18:35 26,7 C 25,0 C 45 % 1008,7 hPa 0,0 l/m 3,9 km/h (1 Bft) SO 126 0 min 0,000 mm 0,0 UV-I 81 W/m 13,8 C 26,7 C 4,8 km/h (1 Bft) 91,30 %
29.05.2018 18:36 26,7 C 25,0 C 45 % 1008,7 hPa 0,0 l/m 5,5 km/h (1 Bft) O-SO 105 0 min 0,000 mm 0,0 UV-I 81 W/m 13,8 C 26,7 C 9,7 km/h (2 Bft) 100,00 %
29.05.2018 18:37 26,6 C 25,0 C 45 % 1008,7 hPa 0,0 l/m 7,6 km/h (2 Bft) O-SO 119 0 min 0,000 mm 0,0 UV-I 81 W/m 13,7 C 26,4 C 11,3 km/h (2 Bft) 95,65 %
29.05.2018 18:38 26,6 C 25,0 C 46 % 1008,7 hPa 0,0 l/m 4,3 km/h (1 Bft) O-SO 111 0 min 0,000 mm 0,0 UV-I 81 W/m 14,0 C 26,6 C 6,4 km/h (2 Bft) 100,00 %
29.05.2018 18:39 26,6 C 25,0 C 46 % 1008,7 hPa 0,0 l/m 6,2 km/h (2 Bft) O-SO 107 0 min 0,000 mm 0,0 UV-I 81 W/m 14,0 C 26,6 C 9,7 km/h (2 Bft) 95,65 %
29.05.2018 18:40 26,5 C 25,0 C 47 % 1008,7 hPa 0,0 l/m 4,0 km/h (1 Bft) O 96 0 min 0,000 mm 0,0 UV-I 81 W/m 14,3 C 26,5 C 6,4 km/h (2 Bft) 96,30 %
29.05.2018 18:41 26,5 C 25,0 C 46 % 1008,7 hPa 0,0 l/m 5,3 km/h (1 Bft) O 98 0 min 0,000 mm 0,0 UV-I 81 W/m 13,9 C 26,5 C 9,7 km/h (2 Bft) 92,86 %
29.05.2018 18:42 26,5 C 25,0 C 46 % 1008,7 hPa 0,0 l/m 6,8 km/h (2 Bft) SO 130 0 min 0,000 mm 0,0 UV-I 83 W/m 13,9 C 26,4 C 12,9 km/h (3 Bft) 97,06 %
29.05.2018 18:43 26,4 C 25,0 C 46 % 1008,7 hPa 0,0 l/m 5,4 km/h (1 Bft) O 92 0 min 0,000 mm 0,0 UV-I 83 W/m 13,8 C 26,4 C 8,0 km/h (2 Bft) 100,00 %
29.05.2018 18:44 26,4 C 25,0 C 47 % 1008,7 hPa 0,0 l/m 5,8 km/h (2 Bft) O-SO 109 0 min 0,000 mm 0,0 UV-I 83 W/m 14,2 C 26,4 C 9,7 km/h (2 Bft) 96,30 %
29.05.2018 18:45 26,4 C 25,0 C 46 % 1008,7 hPa 0,0 l/m 6,7 km/h (2 Bft) O 92 0 min 0,000 mm 0,0 UV-I 83 W/m 13,8 C 26,3 C 9,7 km/h (2 Bft) 96,15 %
29.05.2018 18:46 26,4 C 25,0 C 47 % 1008,7 hPa 0,0 l/m 8,0 km/h (2 Bft) O 99 0 min 0,000 mm 0,0 UV-I 81 W/m 14,2 C 26,1 C 11,3 km/h (2 Bft) 96,30 %
29.05.2018 18:47 26,4 C 25,0 C 47 % 1008,7 hPa 0,0 l/m 5,6 km/h (1 Bft) O 88 0 min 0,000 mm 0,0 UV-I 80 W/m 14,2 C 26,4 C 9,7 km/h (2 Bft) 100,00 %
29.05.2018 18:48 26,4 C 25,0 C 47 % 1008,7 hPa 0,0 l/m 8,7 km/h (2 Bft) O 88 0 min 0,000 mm 0,0 UV-I 79 W/m 14,2 C 25,9 C 11,3 km/h (2 Bft) 96,15 %
29.05.2018 18:49 26,3 C 25,0 C 47 % 1008,7 hPa 0,0 l/m 9,4 km/h (2 Bft) O 96 0 min 0,000 mm 0,0 UV-I 78 W/m 14,1 C 25,7 C 12,9 km/h (3 Bft) 100,00 %
29.05.2018 18:50 26,3 C 25,0 C 47 % 1008,7 hPa 0,0 l/m 8,9 km/h (2 Bft) O-SO 109 0 min 0,000 mm 0,0 UV-I 77 W/m 14,1 C 25,8 C 11,3 km/h (2 Bft) 96,30 %
29.05.2018 18:51 26,3 C 25,0 C 47 % 1008,7 hPa 0,0 l/m 8,4 km/h (2 Bft) O 97 0 min 0,000 mm 0,0 UV-I 77 W/m 14,1 C 25,9 C 11,3 km/h (2 Bft) 96,15 %
29.05.2018 18:52 26,2 C 25,0 C 48 % 1008,7 hPa 0,0 l/m 8,7 km/h (2 Bft) O 87 0 min 0,000 mm 0,0 UV-I 76 W/m 14,3 C 25,7 C 11,3 km/h (2 Bft) 100,00 %
29.05.2018 18:53 26,2 C 25,0 C 48 % 1008,8 hPa 0,0 l/m 9,1 km/h (2 Bft) O-SO 105 0 min 0,000 mm 0,0 UV-I 76 W/m 14,3 C 25,6 C 12,9 km/h (3 Bft) 100,00 %
29.05.2018 18:54 26,1 C 25,0 C 48 % 1008,8 hPa 0,0 l/m 9,1 km/h (2 Bft) O-SO 102 0 min 0,000 mm 0,0 UV-I 74 W/m 14,2 C 25,5 C 12,9 km/h (3 Bft) 95,00 %
29.05.2018 18:55 26,1 C 25,0 C 49 % 1008,8 hPa 0,0 l/m 9,9 km/h (2 Bft) O-SO 109 0 min 0,000 mm 0,0 UV-I 74 W/m 14,5 C 25,4 C 11,3 km/h (2 Bft) 96,67 %
29.05.2018 18:56 26,1 C 25,0 C 49 % 1008,8 hPa 0,0 l/m 9,2 km/h (2 Bft) O 96 0 min 0,000 mm 0,0 UV-I 73 W/m 14,5 C 25,5 C 12,9 km/h (3 Bft) 96,15 %
29.05.2018 18:57 26,0 C 25,0 C 48 % 1008,8 hPa 0,0 l/m 7,8 km/h (2 Bft) O 92 0 min 0,000 mm 0,0 UV-I 72 W/m 14,1 C 25,7 C 11,3 km/h (2 Bft) 96,30 %
29.05.2018 18:58 26,0 C 25,0 C 50 % 1008,8 hPa 0,0 l/m 7,5 km/h (2 Bft) O-SO 106 0 min 0,000 mm 0,0 UV-I 72 W/m 14,8 C 25,8 C 11,3 km/h (2 Bft) 100,00 %
29.05.2018 18:59 25,9 C 25,0 C 48 % 1008,8 hPa 0,0 l/m 7,7 km/h (2 Bft) O-SO 111 0 min 0,000 mm 0,0 UV-I 70 W/m 14,0 C 25,6 C 9,7 km/h (2 Bft) 93,33 %
29.05.2018 19:00 25,9 C 25,0 C 49 % 1008,8 hPa 0,0 l/m 8,4 km/h (2 Bft) O-SO 105 0 min 0,127 mm 0,0 UV-I 70 W/m 14,4 C 25,5 C 12,9 km/h (3 Bft) 100,00 %
29.05.2018 19:02 25,9 C 25,0 C 48 % 1008,9 hPa 0,0 l/m 7,0 km/h (2 Bft) O 88 0 min 0,000 mm 0,0 UV-I 69 W/m 14,0 C 25,8 C 11,3 km/h (2 Bft) 95,12 %
29.05.2018 19:03 25,9 C 25,0 C 49 % 1008,9 hPa 0,0 l/m 6,6 km/h (2 Bft) O-SO 103 0 min 0,000 mm 0,0 UV-I 69 W/m 14,4 C 25,9 C 11,3 km/h (2 Bft) 100,00 %
29.05.2018 19:04 25,9 C 25,0 C 49 % 1008,9 hPa 0,0 l/m 6,6 km/h (2 Bft) O-SO 111 0 min 0,000 mm 0,0 UV-I 67 W/m 14,4 C 25,9 C 11,3 km/h (2 Bft) 100,00 %
29.05.2018 19:05 25,9 C 25,0 C 49 % 1008,9 hPa 0,0 l/m 4,5 km/h (1 Bft) O-SO 117 0 min 0,000 mm 0,0 UV-I 67 W/m 14,4 C 25,9 C 6,4 km/h (2 Bft) 100,00 %
29.05.2018 19:06 25,9 C 25,0 C 49 % 1008,9 hPa 0,0 l/m 4,5 km/h (1 Bft) O-SO 119 0 min 0,000 mm 0,0 UV-I 66 W/m 14,4 C 25,9 C 6,4 km/h (2 Bft) 100,00 %
29.05.2018 19:07 25,9 C 25,0 C 49 % 1009,0 hPa 0,0 l/m 2,5 km/h (1 Bft) O-SO 123 0 min 0,000 mm 0,0 UV-I 65 W/m 14,4 C 25,9 C 3,2 km/h (1 Bft) 100,00 %
29.05.2018 19:08 25,9 C 25,0 C 49 % 1009,0 hPa 0,0 l/m 2,8 km/h (1 Bft) S-SW 200 0 min 0,000 mm 0,0 UV-I 63 W/m 14,4 C 25,9 C 4,8 km/h (1 Bft) 100,00 %
29.05.2018 19:09 25,9 C 25,0 C 50 % 1009,0 hPa 0,0 l/m 1,6 km/h (1 Bft) S-SW 200 0 min 0,000 mm 0,0 UV-I 63 W/m 14,7 C 25,9 C 3,2 km/h (1 Bft) 100,00 %
29.05.2018 19:10 25,9 C 25,0 C 50 % 1009,0 hPa 0,0 l/m 3,2 km/h (1 Bft) S-SW 199 0 min 0,000 mm 0,0 UV-I 62 W/m 14,7 C 25,9 C 4,8 km/h (1 Bft) 100,00 %
29.05.2018 19:11 25,9 C 25,0 C 50 % 1009,0 hPa 0,0 l/m 3,7 km/h (1 Bft) S 176 0 min 0,000 mm 0,0 UV-I 62 W/m 14,7 C 25,9 C 4,8 km/h (1 Bft) 100,00 %
29.05.2018 19:12 25,8 C 25,0 C 50 % 1009,0 hPa 0,0 l/m 3,3 km/h (1 Bft) S 176 0 min 0,000 mm 0,0 UV-I 61 W/m 14,6 C 25,8 C 4,8 km/h (1 Bft) 100,00 %
29.05.2018 19:13 25,8 C 25,0 C 50 % 1008,9 hPa 0,0 l/m 3,0 km/h (1 Bft) S 175 0 min 0,000 mm 0,0 UV-I 60 W/m 14,6 C 25,8 C 4,8 km/h (1 Bft) 100,00 %
29.05.2018 19:14 25,8 C 25,0 C 51 % 1008,9 hPa 0,0 l/m 4,9 km/h (1 Bft) O-SO 115 0 min 0,000 mm 0,0 UV-I 60 W/m 14,9 C 25,8 C 6,4 km/h (2 Bft) 100,00 %
29.05.2018 19:15 25,7 C 25,0 C 51 % 1009,0 hPa 0,0 l/m 3,7 km/h (1 Bft) O-SO 115 0 min 0,000 mm 0,0 UV-I 58 W/m 14,8 C 25,7 C 4,8 km/h (1 Bft) 100,00 %
29.05.2018 19:16 25,7 C 25,0 C 51 % 1008,9 hPa 0,0 l/m 3,5 km/h (1 Bft) O-SO 115 0 min 0,000 mm 0,0 UV-I 58 W/m 14,8 C 25,7 C 4,8 km/h (1 Bft) 100,00 %
29.05.2018 19:17 25,7 C 25,0 C 51 % 1008,9 hPa 0,0 l/m 5,6 km/h (1 Bft) O 89 0 min 0,000 mm 0,0 UV-I 58 W/m 14,8 C 25,7 C 6,4 km/h (2 Bft) 100,00 %
29.05.2018 19:18 25,7 C 25,0 C 51 % 1008,9 hPa 0,0 l/m 6,6 km/h (2 Bft) O 97 0 min 0,000 mm 0,0 UV-I 58 W/m 14,8 C 25,7 C 9,7 km/h (2 Bft) 100,00 %
29.05.2018 19:19 25,7 C 25,0 C 49 % 1008,9 hPa 0,0 l/m 7,6 km/h (2 Bft) O 93 0 min 0,000 mm 0,0 UV-I 57 W/m 14,2 C 25,4 C 11,3 km/h (2 Bft) 96,15 %
29.05.2018 19:20 25,7 C 25,0 C 49 % 1008,8 hPa 0,0 l/m 4,9 km/h (1 Bft) O 101 0 min 0,000 mm 0,0 UV-I 56 W/m 14,2 C 25,7 C 9,7 km/h (2 Bft) 100,00 %
29.05.2018 19:21 25,7 C 25,0 C 49 % 1008,8 hPa 0,0 l/m 6,7 km/h (2 Bft) O 100 0 min 0,000 mm 0,0 UV-I 56 W/m 14,2 C 25,6 C 12,9 km/h (3 Bft) 100,00 %
29.05.2018 19:22 25,7 C 25,0 C 49 % 1008,8 hPa 0,0 l/m 6,7 km/h (2 Bft) O 96 0 min 0,000 mm 0,0 UV-I 56 W/m 14,2 C 25,6 C 9,7 km/h (2 Bft) 100,00 %
29.05.2018 19:23 25,7 C 25,0 C 50 % 1008,8 hPa 0,0 l/m 6,9 km/h (2 Bft) O-SO 114 0 min 0,000 mm 0,0 UV-I 54 W/m 14,5 C 25,6 C 11,3 km/h (2 Bft) 100,00 %
29.05.2018 19:24 25,7 C 25,0 C 50 % 1008,9 hPa 0,0 l/m 9,3 km/h (2 Bft) O-SO 107 0 min 0,000 mm 0,0 UV-I 54 W/m 14,5 C 25,1 C 14,5 km/h (3 Bft) 100,00 %
29.05.2018 19:25 25,6 C 25,0 C 50 % 1008,9 hPa 0,0 l/m 10,6 km/h (2 Bft) O-SO 121 0 min 0,000 mm 0,0 UV-I 54 W/m 14,4 C 24,7 C 14,5 km/h (3 Bft) 100,00 %
29.05.2018 19:26 25,6 C 25,0 C 50 % 1008,9 hPa 0,0 l/m 10,6 km/h (2 Bft) SO 124 0 min 0,000 mm 0,0 UV-I 54 W/m 14,4 C 24,7 C 12,9 km/h (3 Bft) 96,30 %
29.05.2018 19:27 25,6 C 25,0 C 50 % 1008,9 hPa 0,0 l/m 7,3 km/h (2 Bft) O-SO 103 0 min 0,000 mm 0,0 UV-I 53 W/m 14,4 C 25,4 C 9,7 km/h (2 Bft) 95,65 %
29.05.2018 19:28 25,7 C 25,0 C 50 % 1008,9 hPa 0,0 l/m 4,8 km/h (1 Bft) SO 129 0 min 0,000 mm 0,0 UV-I 53 W/m 14,5 C 25,7 C 6,4 km/h (2 Bft) 92,59 %
29.05.2018 19:29 25,7 C 25,0 C 50 % 1008,9 hPa 0,0 l/m 7,4 km/h (2 Bft) SO 144 0 min 0,000 mm 0,0 UV-I 52 W/m 14,5 C 25,5 C 8,0 km/h (2 Bft) 97,51 %
29.05.2018 19:30 25,6 C 25,0 C 50 % 1008,9 hPa 0,0 l/m 6,4 km/h (2 Bft) O-SO 119 0 min 0,000 mm 0,0 UV-I 51 W/m 14,4 C 25,6 C 8,0 km/h (2 Bft) 93,18 %
29.05.2018 19:31 25,6 C 25,0 C 50 % 1008,9 hPa 0,0 l/m 8,4 km/h (2 Bft) O-SO 113 0 min 0,000 mm 0,0 UV-I 51 W/m 14,4 C 25,1 C 11,3 km/h (2 Bft) 96,15 %
29.05.2018 19:32 25,6 C 25,0 C 51 % 1008,9 hPa 0,0 l/m 8,9 km/h (2 Bft) O-SO 115 0 min 0,000 mm 0,0 UV-I 50 W/m 14,7 C 25,0 C 11,3 km/h (2 Bft) 100,00 %
29.05.2018 19:33 25,6 C 25,0 C 51 % 1008,9 hPa 0,0 l/m 7,4 km/h (2 Bft) O-SO 117 0 min 0,000 mm 0,0 UV-I 49 W/m 14,7 C 25,4 C 11,3 km/h (2 Bft) 95,83 %
29.05.2018 19:34 25,5 C 25,0 C 51 % 1008,8 hPa 0,0 l/m 7,4 km/h (2 Bft) O-SO 106 0 min 0,000 mm 0,0 UV-I 49 W/m 14,6 C 25,3 C 9,7 km/h (2 Bft) 92,31 %
29.05.2018 19:35 25,4 C 25,0 C 51 % 1008,8 hPa 0,0 l/m 10,1 km/h (2 Bft) O 101 0 min 0,000 mm 0,0 UV-I 48 W/m 14,5 C 24,6 C 12,9 km/h (3 Bft) 100,00 %
29.05.2018 19:36 25,4 C 25,0 C 51 % 1008,8 hPa 0,0 l/m 8,9 km/h (2 Bft) O-SO 107 0 min 0,000 mm 0,0 UV-I 47 W/m 14,5 C 24,8 C 9,7 km/h (2 Bft) 94,12 %
29.05.2018 19:37 25,4 C 25,0 C 50 % 1008,8 hPa 0,0 l/m 9,0 km/h (2 Bft) O-SO 113 0 min 0,000 mm 0,0 UV-I 47 W/m 14,2 C 24,8 C 12,9 km/h (3 Bft) 100,00 %
29.05.2018 19:38 25,4 C 25,0 C 51 % 1008,8 hPa 0,0 l/m 8,9 km/h (2 Bft) O-SO 121 0 min 0,000 mm 0,0 UV-I 47 W/m 14,5 C 24,8 C 11,3 km/h (2 Bft) 95,12 %
29.05.2018 19:39 25,4 C 25,0 C 51 % 1008,8 hPa 0,0 l/m 10,8 km/h (2 Bft) O 87 0 min 0,000 mm 0,0 UV-I 46 W/m 14,5 C 24,5 C 16,1 km/h (3 Bft) 100,00 %
29.05.2018 19:40 25,4 C 25,0 C 51 % 1008,8 hPa 0,0 l/m 8,6 km/h (2 Bft) O 83 0 min 0,000 mm 0,0 UV-I 46 W/m 14,5 C 24,9 C 14,5 km/h (3 Bft) 96,15 %
29.05.2018 19:41 25,4 C 25,0 C 51 % 1008,8 hPa 0,0 l/m 9,4 km/h (2 Bft) O-SO 111 0 min 0,000 mm 0,0 UV-I 46 W/m 14,5 C 24,7 C 11,3 km/h (2 Bft) 100,00 %
29.05.2018 19:42 25,4 C 25,0 C 51 % 1008,8 hPa 0,0 l/m 8,1 km/h (2 Bft) O-SO 102 0 min 0,000 mm 0,0 UV-I 46 W/m 14,5 C 25,0 C 11,3 km/h (2 Bft) 96,15 %
29.05.2018 19:43 25,4 C 25,0 C 51 % 1008,8 hPa 0,0 l/m 11,2 km/h (2 Bft) O 97 0 min 0,000 mm 0,0 UV-I 46 W/m 14,5 C 24,4 C 14,5 km/h (3 Bft) 100,00 %
29.05.2018 19:44 25,3 C 25,0 C 51 % 1008,8 hPa 0,0 l/m 9,2 km/h (2 Bft) O-SO 120 0 min 0,000 mm 0,0 UV-I 44 W/m 14,4 C 24,7 C 12,9 km/h (3 Bft) 95,65 %
29.05.2018 19:45 25,3 C 25,0 C 51 % 1008,7 hPa 0,0 l/m 8,6 km/h (2 Bft) O 88 0 min 0,000 mm 0,0 UV-I 44 W/m 14,4 C 24,8 C 12,9 km/h (3 Bft) 96,30 %
29.05.2018 19:46 25,3 C 25,0 C 51 % 1008,7 hPa 0,0 l/m 5,3 km/h (1 Bft) O 85 0 min 0,000 mm 0,0 UV-I 44 W/m 14,4 C 25,3 C 6,4 km/h (2 Bft) 100,00 %
29.05.2018 19:47 25,3 C 25,0 C 51 % 1008,7 hPa 0,0 l/m 8,2 km/h (2 Bft) SO 127 0 min 0,000 mm 0,0 UV-I 44 W/m 14,4 C 24,9 C 12,9 km/h (3 Bft) 96,88 %
29.05.2018 19:48 25,3 C 25,0 C 51 % 1008,8 hPa 0,0 l/m 10,8 km/h (2 Bft) O-SO 116 0 min 0,000 mm 0,0 UV-I 44 W/m 14,4 C 24,3 C 12,9 km/h (3 Bft) 100,00 %
29.05.2018 19:49 25,3 C 25,0 C 51 % 1008,8 hPa 0,0 l/m 9,4 km/h (2 Bft) O 101 0 min 0,000 mm 0,0 UV-I 44 W/m 14,4 C 24,6 C 11,3 km/h (2 Bft) 93,10 %
29.05.2018 19:50 25,3 C 25,0 C 52 % 1008,7 hPa 0,0 l/m 5,1 km/h (1 Bft) O 100 0 min 0,000 mm 0,0 UV-I 44 W/m 14,7 C 25,3 C 6,4 km/h (2 Bft) 96,55 %
29.05.2018 19:51 25,2 C 25,0 C 52 % 1008,7 hPa 0,0 l/m 6,0 km/h (2 Bft) O-SO 116 0 min 0,000 mm 0,0 UV-I 44 W/m 14,6 C 25,2 C 9,7 km/h (2 Bft) 100,00 %
29.05.2018 19:52 25,2 C 25,0 C 52 % 1008,7 hPa 0,0 l/m 9,3 km/h (2 Bft) O-SO 103 0 min 0,000 mm 0,0 UV-I 44 W/m 14,6 C 24,5 C 12,9 km/h (3 Bft) 100,00 %
29.05.2018 19:53 25,2 C 25,0 C 52 % 1008,7 hPa 0,0 l/m 8,8 km/h (2 Bft) O 93 0 min 0,000 mm 0,0 UV-I 44 W/m 14,6 C 24,6 C 11,3 km/h (2 Bft) 95,65 %
29.05.2018 19:54 25,1 C 25,0 C 53 % 1008,7 hPa 0,0 l/m 10,3 km/h (2 Bft) O 86 0 min 0,000 mm 0,0 UV-I 44 W/m 14,8 C 24,2 C 12,9 km/h (3 Bft) 95,83 %
29.05.2018 19:55 25,1 C 25,0 C 53 % 1008,7 hPa 0,0 l/m 9,4 km/h (2 Bft) O 91 0 min 0,000 mm 0,0 UV-I 42 W/m 14,8 C 24,4 C 11,3 km/h (2 Bft) 100,00 %
29.05.2018 19:56 24,9 C 25,0 C 54 % 1008,7 hPa 0,0 l/m 10,9 km/h (2 Bft) O 99 0 min 0,000 mm 0,0 UV-I 42 W/m 14,9 C 23,9 C 14,5 km/h (3 Bft) 95,83 %
29.05.2018 19:57 24,8 C 25,0 C 54 % 1008,7 hPa 0,0 l/m 13,2 km/h (3 Bft) O 95 0 min 0,000 mm 0,0 UV-I 42 W/m 14,8 C 23,3 C 16,1 km/h (3 Bft) 100,00 %
29.05.2018 19:58 24,8 C 25,0 C 54 % 1008,7 hPa 0,0 l/m 11,7 km/h (2 Bft) O 91 0 min 0,000 mm 0,0 UV-I 42 W/m 14,8 C 23,6 C 14,5 km/h (3 Bft) 96,30 %
29.05.2018 19:59 24,7 C 25,0 C 55 % 1008,7 hPa 0,0 l/m 12,0 km/h (2 Bft) O 94 0 min 0,000 mm 0,0 UV-I 42 W/m 15,0 C 23,4 C 14,5 km/h (3 Bft) 100,00 %
29.05.2018 20:00 24,6 C 25,0 C 55 % 1008,7 hPa 0,0 l/m 10,6 km/h (2 Bft) O-SO 103 0 min 0,102 mm 0,0 UV-I 42 W/m 14,9 C 23,6 C 12,9 km/h (3 Bft) 97,41 %
29.05.2018 20:02 24,5 C 25,0 C 56 % 1008,7 hPa 0,0 l/m 10,9 km/h (2 Bft) O-SO 111 0 min 0,000 mm 0,0 UV-I 40 W/m 15,1 C 23,4 C 14,5 km/h (3 Bft) 100,00 %
29.05.2018 20:03 24,4 C 25,0 C 56 % 1008,7 hPa 0,0 l/m 11,7 km/h (2 Bft) O-SO 105 0 min 0,000 mm 0,0 UV-I 40 W/m 15,0 C 23,2 C 14,5 km/h (3 Bft) 100,00 %
29.05.2018 20:04 24,4 C 25,0 C 56 % 1008,7 hPa 0,0 l/m 12,0 km/h (2 Bft) O 99 0 min 0,000 mm 0,0 UV-I 40 W/m 15,0 C 23,1 C 12,9 km/h (3 Bft) 100,00 %
29.05.2018 20:05 24,4 C 25,0 C 55 % 1008,7 hPa 0,0 l/m 10,1 km/h (2 Bft) O 86 0 min 0,000 mm 0,0 UV-I 40 W/m 14,8 C 23,5 C 12,9 km/h (3 Bft) 100,00 %
29.05.2018 20:06 24,4 C 25,0 C 55 % 1008,8 hPa 0,0 l/m 10,4 km/h (2 Bft) O 92 0 min 0,000 mm 0,0 UV-I 40 W/m 14,8 C 23,4 C 12,9 km/h (3 Bft) 100,00 %
29.05.2018 20:07 24,4 C 25,0 C 55 % 1008,8 hPa 0,0 l/m 9,7 km/h (2 Bft) O-SO 116 0 min 0,000 mm 0,0 UV-I 40 W/m 14,8 C 23,6 C 12,9 km/h (3 Bft) 95,83 %
29.05.2018 20:08 24,4 C 25,0 C 55 % 1008,8 hPa 0,0 l/m 11,4 km/h (2 Bft) O-SO 108 0 min 0,000 mm 0,0 UV-I 40 W/m 14,8 C 23,2 C 14,5 km/h (3 Bft) 100,00 %
29.05.2018 20:09 24,4 C 25,0 C 55 % 1008,8 hPa 0,0 l/m 8,2 km/h (2 Bft) O 101 0 min 0,000 mm 0,0 UV-I 40 W/m 14,8 C 23,9 C 11,3 km/h (2 Bft) 100,00 %
29.05.2018 20:10 24,4 C 25,0 C 55 % 1008,8 hPa 0,0 l/m 11,2 km/h (2 Bft) O 98 0 min 0,000 mm 0,0 UV-I 40 W/m 14,8 C 23,3 C 12,9 km/h (3 Bft) 95,83 %
29.05.2018 20:11 24,4 C 25,0 C 55 % 1008,8 hPa 0,0 l/m 10,0 km/h (2 Bft) O-SO 103 0 min 0,000 mm 0,0 UV-I 40 W/m 14,8 C 23,5 C 14,5 km/h (3 Bft) 100,00 %
29.05.2018 20:12 24,4 C 25,0 C 55 % 1008,8 hPa 0,0 l/m 10,8 km/h (2 Bft) O-SO 113 0 min 0,000 mm 0,0 UV-I 40 W/m 14,8 C 23,3 C 14,5 km/h (3 Bft) 100,00 %
29.05.2018 20:13 24,5 C 25,0 C 55 % 1008,8 hPa 0,0 l/m 9,3 km/h (2 Bft) O-SO 107 0 min 0,000 mm 0,0 UV-I 40 W/m 14,9 C 23,8 C 14,5 km/h (3 Bft) 100,00 %
29.05.2018 20:14 24,5 C 25,0 C 55 % 1008,8 hPa 0,0 l/m 8,6 km/h (2 Bft) O 94 0 min 0,000 mm 0,0 UV-I 40 W/m 14,9 C 23,9 C 14,5 km/h (3 Bft) 100,00 %
29.05.2018 20:15 24,5 C 25,0 C 54 % 1008,8 hPa 0,0 l/m 10,5 km/h (2 Bft) O-SO 106 0 min 0,000 mm 0,0 UV-I 40 W/m 14,6 C 23,5 C 12,9 km/h (3 Bft) 100,00 %
29.05.2018 20:16 24,5 C 25,0 C 54 % 1008,8 hPa 0,0 l/m 9,6 km/h (2 Bft) O-SO 107 0 min 0,000 mm 0,0 UV-I 39 W/m 14,6 C 23,7 C 11,3 km/h (2 Bft) 100,00 %
29.05.2018 20:17 24,5 C 25,0 C 55 % 1008,8 hPa 0,0 l/m 8,6 km/h (2 Bft) O 90 0 min 0,000 mm 0,0 UV-I 39 W/m 14,9 C 23,9 C 11,3 km/h (2 Bft) 100,00 %
29.05.2018 20:18 24,5 C 25,0 C 54 % 1008,8 hPa 0,0 l/m 9,7 km/h (2 Bft) O-SO 104 1 min 0,000 mm 0,0 UV-I 39 W/m 14,6 C 23,7 C 12,9 km/h (3 Bft) 100,00 %
29.05.2018 20:19 24,6 C 25,0 C 54 % 1008,8 hPa 0,0 l/m 10,5 km/h (2 Bft) O 90 1 min 0,000 mm 0,0 UV-I 39 W/m 14,7 C 23,6 C 12,9 km/h (3 Bft) 100,00 %
29.05.2018 20:20 24,5 C 25,0 C 54 % 1008,8 hPa 0,0 l/m 10,9 km/h (2 Bft) O-SO 105 1 min 0,000 mm 0,0 UV-I 39 W/m 14,6 C 23,4 C 12,9 km/h (3 Bft) 100,00 %
29.05.2018 20:21 24,5 C 25,0 C 54 % 1008,8 hPa 0,0 l/m 11,3 km/h (2 Bft) O 92 1 min 0,000 mm 0,0 UV-I 37 W/m 14,6 C 23,3 C 12,9 km/h (3 Bft) 97,37 %
29.05.2018 20:22 24,4 C 25,0 C 54 % 1008,8 hPa 0,0 l/m 7,2 km/h (2 Bft) O 86 1 min 0,000 mm 0,0 UV-I 37 W/m 14,5 C 24,2 C 11,3 km/h (2 Bft) 100,00 %
29.05.2018 20:23 24,4 C 25,0 C 54 % 1008,8 hPa 0,0 l/m 9,6 km/h (2 Bft) O 94 1 min 0,000 mm 0,0 UV-I 36 W/m 14,5 C 23,6 C 11,3 km/h (2 Bft) 100,00 %
29.05.2018 20:24 24,4 C 25,0 C 55 % 1008,8 hPa 0,0 l/m 8,2 km/h (2 Bft) O 99 1 min 0,000 mm 0,0 UV-I 35 W/m 14,8 C 23,9 C 11,3 km/h (2 Bft) 100,00 %
29.05.2018 20:25 24,3 C 25,0 C 55 % 1008,8 hPa 0,0 l/m 9,5 km/h (2 Bft) O 87 1 min 0,000 mm 0,0 UV-I 35 W/m 14,7 C 23,5 C 12,9 km/h (3 Bft) 100,00 %
29.05.2018 20:26 24,2 C 25,0 C 55 % 1008,8 hPa 0,0 l/m 10,5 km/h (2 Bft) O 101 1 min 0,000 mm 0,0 UV-I 33 W/m 14,6 C 23,2 C 12,9 km/h (3 Bft) 100,00 %
29.05.2018 20:27 24,2 C 25,0 C 55 % 1008,9 hPa 0,0 l/m 10,0 km/h (2 Bft) O 84 1 min 0,000 mm 0,0 UV-I 33 W/m 14,6 C 23,3 C 12,9 km/h (3 Bft) 100,00 %
29.05.2018 20:28 24,2 C 25,0 C 55 % 1008,8 hPa 0,0 l/m 8,5 km/h (2 Bft) O 92 1 min 0,000 mm 0,0 UV-I 32 W/m 14,6 C 23,6 C 11,3 km/h (2 Bft) 100,00 %
29.05.2018 20:29 24,2 C 25,0 C 56 % 1008,9 hPa 0,0 l/m 6,4 km/h (2 Bft) O 90 1 min 0,000 mm 0,0 UV-I 31 W/m 14,9 C 24,2 C 9,7 km/h (2 Bft) 100,00 %
29.05.2018 20:30 24,1 C 25,0 C 56 % 1008,9 hPa 0,0 l/m 7,0 km/h (2 Bft) O 84 1 min 0,000 mm 0,0 UV-I 29 W/m 14,8 C 23,9 C 9,7 km/h (2 Bft) 97,75 %
29.05.2018 20:31 24,1 C 25,0 C 56 % 1008,9 hPa 0,0 l/m 8,6 km/h (2 Bft) O 100 1 min 0,000 mm 0,0 UV-I 28 W/m 14,8 C 23,5 C 11,3 km/h (2 Bft) 100,00 %
29.05.2018 20:32 24,0 C 25,0 C 56 % 1008,9 hPa 0,0 l/m 9,1 km/h (2 Bft) O 92 1 min 0,000 mm 0,0 UV-I 26 W/m 14,7 C 23,3 C 12,9 km/h (3 Bft) 100,00 %
29.05.2018 20:33 23,9 C 25,0 C 57 % 1008,9 hPa 0,0 l/m 9,7 km/h (2 Bft) O 94 1 min 0,000 mm 0,0 UV-I 26 W/m 14,9 C 23,0 C 12,9 km/h (3 Bft) 100,00 %
29.05.2018 20:34 23,8 C 25,0 C 57 % 1008,9 hPa 0,0 l/m 9,7 km/h (2 Bft) O 93 1 min 0,000 mm 0,0 UV-I 24 W/m 14,8 C 22,9 C 11,3 km/h (2 Bft) 100,00 %
29.05.2018 20:35 23,8 C 25,0 C 57 % 1008,9 hPa 0,0 l/m 10,4 km/h (2 Bft) O-NO 69 1 min 0,000 mm 0,0 UV-I 22 W/m 14,8 C 22,7 C 12,9 km/h (3 Bft) 100,00 %
29.05.2018 20:36 23,8 C 25,0 C 57 % 1008,9 hPa 0,0 l/m 9,8 km/h (2 Bft) O 96 1 min 0,000 mm 0,0 UV-I 21 W/m 14,8 C 22,9 C 12,9 km/h (3 Bft) 100,00 %
29.05.2018 20:37 23,8 C 25,0 C 57 % 1008,9 hPa 0,0 l/m 9,7 km/h (2 Bft) O 101 1 min 0,000 mm 0,0 UV-I 19 W/m 14,8 C 22,9 C 12,9 km/h (3 Bft) 100,00 %
29.05.2018 20:38 23,7 C 25,0 C 58 % 1008,9 hPa 0,0 l/m 9,6 km/h (2 Bft) O-SO 107 1 min 0,000 mm 0,0 UV-I 19 W/m 14,9 C 22,8 C 11,3 km/h (2 Bft) 100,00 %
29.05.2018 20:39 23,7 C 25,0 C 58 % 1008,9 hPa 0,0 l/m 10,3 km/h (2 Bft) O 97 1 min 0,000 mm 0,0 UV-I 18 W/m 14,9 C 22,7 C 12,9 km/h (3 Bft) 96,15 %
29.05.2018 20:40 23,6 C 25,0 C 58 % 1008,9 hPa 0,0 l/m 10,7 km/h (2 Bft) O 96 1 min 0,000 mm 0,0 UV-I 17 W/m 14,8 C 22,5 C 12,9 km/h (3 Bft) 100,00 %
29.05.2018 20:41 23,6 C 25,0 C 58 % 1009,0 hPa 0,0 l/m 11,1 km/h (2 Bft) O 97 0 min 0,000 mm 0,0 UV-I 15 W/m 14,8 C 22,4 C 12,9 km/h (3 Bft) 100,00 %
29.05.2018 20:42 23,5 C 25,0 C 58 % 1009,0 hPa 0,0 l/m 9,0 km/h (2 Bft) O-SO 103 0 min 0,000 mm 0,0 UV-I 14 W/m 14,7 C 22,8 C 11,3 km/h (2 Bft) 100,00 %
29.05.2018 20:43 23,4 C 25,0 C 58 % 1009,0 hPa 0,0 l/m 9,6 km/h (2 Bft) O 93 0 min 0,000 mm 0,0 UV-I 14 W/m 14,7 C 22,5 C 11,3 km/h (2 Bft) 100,00 %
29.05.2018 20:44 23,4 C 25,0 C 58 % 1009,0 hPa 0,0 l/m 10,6 km/h (2 Bft) O 96 0 min 0,000 mm 0,0 UV-I 12 W/m 14,7 C 22,3 C 11,3 km/h (2 Bft) 100,00 %
29.05.2018 20:45 23,3 C 25,0 C 58 % 1009,0 hPa 0,0 l/m 9,1 km/h (2 Bft) O 90 0 min 0,000 mm 0,0 UV-I 12 W/m 14,6 C 22,5 C 11,3 km/h (2 Bft) 100,00 %
29.05.2018 20:46 23,3 C 25,0 C 59 % 1009,0 hPa 0,0 l/m 5,4 km/h (1 Bft) O 86 0 min 0,000 mm 0,0 UV-I 11 W/m 14,8 C 23,3 C 9,7 km/h (2 Bft) 96,30 %
29.05.2018 20:48 23,3 C 25,0 C 59 % 1009,1 hPa 0,0 l/m 7,0 km/h (2 Bft) O 98 0 min 0,000 mm 0,0 UV-I 11 W/m 14,8 C 23,1 C 11,3 km/h (2 Bft) 97,56 %
29.05.2018 20:49 23,2 C 25,0 C 59 % 1009,1 hPa 0,0 l/m 6,4 km/h (2 Bft) O-SO 115 0 min 0,000 mm 0,0 UV-I 11 W/m 14,7 C 23,2 C 9,7 km/h (2 Bft) 96,30 %
29.05.2018 20:50 23,2 C 25,0 C 59 % 1009,1 hPa 0,0 l/m 6,4 km/h (2 Bft) O 91 0 min 0,000 mm 0,0 UV-I 9 W/m 14,7 C 23,2 C 9,7 km/h (2 Bft) 100,00 %
29.05.2018 20:51 23,2 C 25,0 C 59 % 1009,1 hPa 0,0 l/m 7,8 km/h (2 Bft) O 97 0 min 0,000 mm 0,0 UV-I 8 W/m 14,7 C 22,8 C 9,7 km/h (2 Bft) 96,30 %
29.05.2018 20:52 23,2 C 25,0 C 59 % 1009,2 hPa 0,0 l/m 7,1 km/h (2 Bft) O 85 0 min 0,000 mm 0,0 UV-I 7 W/m 14,7 C 23,0 C 11,3 km/h (2 Bft) 100,00 %
29.05.2018 20:53 23,2 C 25,0 C 59 % 1009,2 hPa 0,0 l/m 7,6 km/h (2 Bft) O 94 0 min 0,000 mm 0,0 UV-I 7 W/m 14,7 C 22,8 C 9,7 km/h (2 Bft) 100,00 %
29.05.2018 20:54 23,2 C 25,0 C 59 % 1009,2 hPa 0,0 l/m 5,7 km/h (1 Bft) O 89 0 min 0,000 mm 0,0 UV-I 5 W/m 14,7 C 23,2 C 6,4 km/h (2 Bft) 100,00 %
29.05.2018 20:55 23,2 C 25,0 C 59 % 1009,2 hPa 0,0 l/m 7,6 km/h (2 Bft) O 93 0 min 0,000 mm 0,0 UV-I 5 W/m 14,7 C 22,8 C 11,3 km/h (2 Bft) 100,00 %
29.05.2018 20:56 23,2 C 25,0 C 59 % 1009,3 hPa 0,0 l/m 7,3 km/h (2 Bft) O 86 0 min 0,000 mm 0,0 UV-I 5 W/m 14,7 C 22,9 C 9,7 km/h (2 Bft) 100,00 %
29.05.2018 20:57 23,2 C 25,0 C 59 % 1009,3 hPa 0,0 l/m 7,4 km/h (2 Bft) O-SO 106 0 min 0,000 mm 0,0 UV-I 5 W/m 14,7 C 22,9 C 11,3 km/h (2 Bft) 96,30 %
29.05.2018 20:58 23,1 C 25,0 C 59 % 1009,3 hPa 0,0 l/m 7,2 km/h (2 Bft) O 96 0 min 0,000 mm 0,0 UV-I 5 W/m 14,6 C 22,8 C 9,7 km/h (2 Bft) 100,00 %
29.05.2018 20:59 23,1 C 25,0 C 59 % 1009,3 hPa 0,0 l/m 9,7 km/h (2 Bft) O 93 0 min 0,000 mm 0,0 UV-I 5 W/m 14,6 C 22,1 C 11,3 km/h (2 Bft) 100,00 %
29.05.2018 21:00 23,1 C 25,0 C 59 % 1009,3 hPa 0,0 l/m 7,4 km/h (2 Bft) O 92 0 min 0,076 mm 0,0 UV-I 5 W/m 14,6 C 22,8 C 11,3 km/h (2 Bft) 100,00 %
29.05.2018 21:02 23,0 C 25,0 C 59 % 1009,3 hPa 0,0 l/m 8,7 km/h (2 Bft) O-SO 115 0 min 0,000 mm 0,0 UV-I 5 W/m 14,5 C 22,3 C 11,3 km/h (2 Bft) 100,00 %
29.05.2018 21:03 23,0 C 25,0 C 59 % 1009,4 hPa 0,0 l/m 6,1 km/h (2 Bft) O-SO 108 0 min 0,000 mm 0,0 UV-I 5 W/m 14,5 C 23,0 C 9,7 km/h (2 Bft) 100,00 %
29.05.2018 21:04 22,9 C 25,0 C 59 % 1009,3 hPa 0,0 l/m 7,4 km/h (2 Bft) O-SO 104 0 min 0,000 mm 0,0 UV-I 2 W/m 14,5 C 22,6 C 11,3 km/h (2 Bft) 95,83 %
29.05.2018 21:05 22,9 C 25,0 C 59 % 1009,4 hPa 0,0 l/m 6,0 km/h (2 Bft) O-SO 103 0 min 0,000 mm 0,0 UV-I 0 W/m 14,5 C 22,9 C 9,7 km/h (2 Bft) 100,00 %
29.05.2018 21:06 22,9 C 25,0 C 59 % 1009,4 hPa 0,0 l/m 7,0 km/h (2 Bft) O 101 0 min 0,000 mm 0,0 UV-I 0 W/m 14,5 C 22,7 C 11,3 km/h (2 Bft) 100,00 %
29.05.2018 21:07 23,0 C 25,0 C 58 % 1009,4 hPa 0,0 l/m 7,8 km/h (2 Bft) O 82 0 min 0,000 mm 0,0 UV-I 0 W/m 14,3 C 22,6 C 12,9 km/h (3 Bft) 100,00 %
29.05.2018 21:08 23,0 C 25,0 C 58 % 1009,4 hPa 0,0 l/m 9,6 km/h (2 Bft) O-SO 107 0 min 0,000 mm 0,0 UV-I 0 W/m 14,3 C 22,1 C 11,3 km/h (2 Bft) 100,00 %
29.05.2018 21:09 23,1 C 25,0 C 58 % 1009,4 hPa 0,0 l/m 7,7 km/h (2 Bft) O-SO 115 0 min 0,000 mm 0,0 UV-I 0 W/m 14,4 C 22,7 C 9,7 km/h (2 Bft) 92,86 %
29.05.2018 21:10 23,1 C 24,4 C 58 % 1009,4 hPa 0,0 l/m 5,0 km/h (1 Bft) O 94 0 min 0,000 mm 0,0 UV-I 0 W/m 14,4 C 23,1 C 9,7 km/h (2 Bft) 100,00 %
29.05.2018 21:11 23,1 C 25,0 C 58 % 1009,4 hPa 0,0 l/m 5,1 km/h (1 Bft) O-SO 106 0 min 0,000 mm 0,0 UV-I 0 W/m 14,4 C 23,1 C 6,4 km/h (2 Bft) 100,00 %
29.05.2018 21:13 23,0 C 25,0 C 58 % 1009,4 hPa 0,0 l/m 6,1 km/h (2 Bft) O-SO 109 0 min 0,000 mm 0,0 UV-I 0 W/m 14,3 C 23,0 C 11,3 km/h (2 Bft) 98,00 %
29.05.2018 21:14 23,0 C 24,4 C 58 % 1009,5 hPa 0,0 l/m 5,4 km/h (1 Bft) O-SO 107 0 min 0,000 mm 0,0 UV-I 0 W/m 14,3 C 23,0 C 9,7 km/h (2 Bft) 100,00 %
29.05.2018 21:15 22,9 C 25,0 C 58 % 1009,5 hPa 0,0 l/m 5,7 km/h (1 Bft) O-SO 118 0 min 0,000 mm 0,0 UV-I 0 W/m 14,2 C 22,9 C 8,0 km/h (2 Bft) 100,00 %
29.05.2018 21:16 22,9 C 25,0 C 58 % 1009,5 hPa 0,0 l/m 5,1 km/h (1 Bft) SO 125 0 min 0,000 mm 0,0 UV-I 0 W/m 14,2 C 22,9 C 6,4 km/h (2 Bft) 100,00 %
29.05.2018 21:18 22,9 C 24,4 C 57 % 1009,5 hPa 0,0 l/m 7,4 km/h (2 Bft) O-SO 113 0 min 0,000 mm 0,0 UV-I 0 W/m 13,9 C 22,6 C 11,3 km/h (2 Bft) 98,00 %
29.05.2018 21:19 22,9 C 24,4 C 57 % 1009,5 hPa 0,0 l/m 8,6 km/h (2 Bft) O-SO 109 0 min 0,000 mm 0,0 UV-I 0 W/m 13,9 C 22,2 C 11,3 km/h (2 Bft) 100,00 %
29.05.2018 21:20 22,9 C 24,4 C 57 % 1009,5 hPa 0,0 l/m 6,9 km/h (2 Bft) O-SO 105 0 min 0,000 mm 0,0 UV-I 0 W/m 13,9 C 22,7 C 11,3 km/h (2 Bft) 100,00 %
29.05.2018 21:21 22,9 C 24,4 C 57 % 1009,5 hPa 0,0 l/m 7,0 km/h (2 Bft) O 101 0 min 0,000 mm 0,0 UV-I 0 W/m 13,9 C 22,7 C 11,3 km/h (2 Bft) 100,00 %
29.05.2018 21:22 22,9 C 24,4 C 57 % 1009,5 hPa 0,0 l/m 7,2 km/h (2 Bft) O 99 0 min 0,000 mm 0,0 UV-I 0 W/m 13,9 C 22,6 C 11,3 km/h (2 Bft) 96,15 %
29.05.2018 21:23 22,9 C 24,4 C 57 % 1009,6 hPa 0,0 l/m 6,1 km/h (2 Bft) O-SO 104 0 min 0,000 mm 0,0 UV-I 0 W/m 13,9 C 22,9 C 9,7 km/h (2 Bft) 100,00 %
29.05.2018 21:24 22,8 C 24,4 C 57 % 1009,6 hPa 0,0 l/m 7,2 km/h (2 Bft) O 90 0 min 0,000 mm 0,0 UV-I 0 W/m 13,8 C 22,5 C 11,3 km/h (2 Bft) 93,33 %
29.05.2018 21:25 22,8 C 24,4 C 58 % 1009,6 hPa 0,0 l/m 6,8 km/h (2 Bft) O 100 0 min 0,000 mm 0,0 UV-I 0 W/m 14,1 C 22,7 C 9,7 km/h (2 Bft) 100,00 %
29.05.2018 21:26 22,8 C 24,4 C 58 % 1009,6 hPa 0,0 l/m 7,4 km/h (2 Bft) O-SO 106 0 min 0,000 mm 0,0 UV-I 0 W/m 14,1 C 22,5 C 11,3 km/h (2 Bft) 96,15 %
29.05.2018 21:27 22,7 C 24,4 C 59 % 1009,6 hPa 0,0 l/m 7,2 km/h (2 Bft) O-SO 106 0 min 0,000 mm 0,0 UV-I 0 W/m 14,3 C 22,4 C 9,7 km/h (2 Bft) 100,00 %
29.05.2018 21:28 22,6 C 24,4 C 59 % 1009,7 hPa 0,0 l/m 6,9 km/h (2 Bft) O-SO 104 0 min 0,000 mm 0,0 UV-I 0 W/m 14,2 C 22,4 C 9,7 km/h (2 Bft) 96,15 %
29.05.2018 21:29 22,6 C 24,4 C 59 % 1009,7 hPa 0,0 l/m 7,8 km/h (2 Bft) O-SO 109 0 min 0,000 mm 0,0 UV-I 0 W/m 14,2 C 22,1 C 11,3 km/h (2 Bft) 96,30 %
29.05.2018 21:30 22,5 C 24,4 C 59 % 1009,7 hPa 0,0 l/m 8,2 km/h (2 Bft) O 101 0 min 0,000 mm 0,0 UV-I 0 W/m 14,1 C 21,9 C 9,7 km/h (2 Bft) 96,15 %
29.05.2018 21:31 22,5 C 24,4 C 59 % 1009,7 hPa 0,0 l/m 6,4 km/h (2 Bft) O 101 0 min 0,000 mm 0,0 UV-I 0 W/m 14,1 C 22,5 C 9,7 km/h (2 Bft) 95,83 %
29.05.2018 21:33 22,4 C 24,4 C 60 % 1009,7 hPa 0,0 l/m 5,8 km/h (2 Bft) O-SO 111 0 min 0,000 mm 0,0 UV-I 0 W/m 14,2 C 22,4 C 6,4 km/h (2 Bft) 98,00 %
29.05.2018 21:34 22,3 C 24,4 C 60 % 1009,7 hPa 0,0 l/m 4,5 km/h (1 Bft) O-SO 111 0 min 0,000 mm 0,0 UV-I 0 W/m 14,2 C 22,3 C 4,8 km/h (1 Bft) 91,30 %
29.05.2018 21:35 22,3 C 24,4 C 59 % 1009,7 hPa 0,0 l/m 3,8 km/h (1 Bft) O-SO 115 0 min 0,000 mm 0,0 UV-I 0 W/m 13,9 C 22,3 C 4,8 km/h (1 Bft) 100,00 %
29.05.2018 21:36 22,2 C 24,4 C 60 % 1009,7 hPa 0,0 l/m 3,9 km/h (1 Bft) O-SO 116 0 min 0,000 mm 0,0 UV-I 0 W/m 14,1 C 22,2 C 4,8 km/h (1 Bft) 95,65 %
29.05.2018 21:37 22,1 C 24,4 C 60 % 1009,7 hPa 0,0 l/m 4,2 km/h (1 Bft) O 98 0 min 0,000 mm 0,0 UV-I 0 W/m 14,0 C 22,1 C 6,4 km/h (2 Bft) 100,00 %
29.05.2018 21:38 22,1 C 24,4 C 60 % 1009,7 hPa 0,0 l/m 4,3 km/h (1 Bft) O 99 0 min 0,000 mm 0,0 UV-I 0 W/m 14,0 C 22,1 C 4,8 km/h (1 Bft) 96,15 %
29.05.2018 21:39 21,9 C 24,4 C 62 % 1009,8 hPa 0,0 l/m 5,3 km/h (1 Bft) O-SO 111 0 min 0,000 mm 0,0 UV-I 0 W/m 14,3 C 21,9 C 6,4 km/h (2 Bft) 100,00 %
29.05.2018 21:40 21,8 C 24,4 C 62 % 1009,8 hPa 0,0 l/m 5,4 km/h (1 Bft) O-SO 107 0 min 0,000 mm 0,0 UV-I 0 W/m 14,2 C 21,8 C 6,4 km/h (2 Bft) 95,65 %
29.05.2018 21:41 21,7 C 24,4 C 61 % 1009,8 hPa 0,0 l/m 4,9 km/h (1 Bft) O 80 0 min 0,000 mm 0,0 UV-I 0 W/m 13,8 C 21,7 C 6,4 km/h (2 Bft) 100,00 %
29.05.2018 21:42 21,8 C 24,4 C 61 % 1009,8 hPa 0,0 l/m 4,4 km/h (1 Bft) O-SO 102 0 min 0,000 mm 0,0 UV-I 0 W/m 13,9 C 21,8 C 8,0 km/h (2 Bft) 96,00 %
29.05.2018 21:43 21,8 C 24,4 C 60 % 1009,8 hPa 0,0 l/m 8,7 km/h (2 Bft) O-SO 111 0 min 0,000 mm 0,0 UV-I 0 W/m 13,7 C 21,0 C 12,9 km/h (3 Bft) 87,50 %
29.05.2018 21:44 21,9 C 24,4 C 60 % 1009,8 hPa 0,0 l/m 7,3 km/h (2 Bft) O 98 0 min 0,000 mm 0,0 UV-I 0 W/m 13,8 C 21,6 C 11,3 km/h (2 Bft) 100,00 %
29.05.2018 21:45 21,9 C 24,4 C 60 % 1009,8 hPa 0,0 l/m 8,6 km/h (2 Bft) O-SO 105 0 min 0,000 mm 0,0 UV-I 0 W/m 13,8 C 21,2 C 12,9 km/h (3 Bft) 92,86 %
29.05.2018 21:46 22,0 C 24,4 C 60 % 1009,8 hPa 0,0 l/m 8,9 km/h (2 Bft) O-SO 103 0 min 0,000 mm 0,0 UV-I 0 W/m 13,9 C 21,2 C 11,3 km/h (2 Bft) 100,00 %
29.05.2018 21:47 22,0 C 24,4 C 59 % 1009,8 hPa 0,0 l/m 5,0 km/h (1 Bft) O-SO 123 0 min 0,000 mm 0,0 UV-I 0 W/m 13,6 C 22,0 C 8,0 km/h (2 Bft) 95,65 %
29.05.2018 21:48 22,1 C 24,4 C 60 % 1009,8 hPa 0,0 l/m 4,1 km/h (1 Bft) O-SO 121 0 min 0,000 mm 0,0 UV-I 0 W/m 14,0 C 22,1 C 6,4 km/h (2 Bft) 100,00 %
29.05.2018 21:49 22,1 C 24,4 C 59 % 1009,8 hPa 0,0 l/m 6,2 km/h (2 Bft) O-SO 116 0 min 0,000 mm 0,0 UV-I 0 W/m 13,7 C 22,1 C 9,7 km/h (2 Bft) 96,15 %
29.05.2018 21:50 22,1 C 24,4 C 59 % 1009,9 hPa 0,0 l/m 6,1 km/h (2 Bft) SO 130 0 min 0,000 mm 0,0 UV-I 0 W/m 13,7 C 22,1 C 9,7 km/h (2 Bft) 100,00 %
29.05.2018 21:51 22,1 C 24,4 C 59 % 1009,9 hPa 0,0 l/m 5,6 km/h (1 Bft) O-SO 121 0 min 0,000 mm 0,0 UV-I 0 W/m 13,7 C 22,1 C 6,4 km/h (2 Bft) 96,15 %
29.05.2018 21:52 22,1 C 24,4 C 59 % 1009,9 hPa 0,0 l/m 3,5 km/h (1 Bft) SO 128 0 min 0,000 mm 0,0 UV-I 0 W/m 13,7 C 22,1 C 4,8 km/h (1 Bft) 91,67 %
29.05.2018 21:53 22,1 C 24,4 C 59 % 1009,9 hPa 0,0 l/m 5,2 km/h (1 Bft) SO 140 0 min 0,000 mm 0,0 UV-I 0 W/m 13,7 C 22,1 C 6,4 km/h (2 Bft) 100,00 %
29.05.2018 21:54 22,0 C 24,4 C 60 % 1009,9 hPa 0,0 l/m 4,8 km/h (1 Bft) O-SO 114 0 min 0,000 mm 0,0 UV-I 0 W/m 13,9 C 22,0 C 6,4 km/h (2 Bft) 91,67 %
29.05.2018 21:55 21,9 C 24,4 C 60 % 1009,9 hPa 0,0 l/m 4,6 km/h (1 Bft) O-SO 120 0 min 0,000 mm 0,0 UV-I 0 W/m 13,8 C 21,9 C 6,4 km/h (2 Bft) 100,00 %
29.05.2018 21:56 21,8 C 24,4 C 60 % 1009,9 hPa 0,0 l/m 6,1 km/h (2 Bft) O-SO 109 0 min 0,000 mm 0,0 UV-I 0 W/m 13,7 C 21,8 C 9,7 km/h (2 Bft) 95,83 %
29.05.2018 21:57 21,8 C 24,4 C 60 % 1009,9 hPa 0,0 l/m 5,6 km/h (1 Bft) O-SO 106 0 min 0,000 mm 0,0 UV-I 0 W/m 13,7 C 21,8 C 9,7 km/h (2 Bft) 100,00 %
29.05.2018 21:58 21,8 C 24,4 C 60 % 1009,9 hPa 0,0 l/m 5,1 km/h (1 Bft) O-SO 107 0 min 0,000 mm 0,0 UV-I 0 W/m 13,7 C 21,8 C 6,4 km/h (2 Bft) 96,15 %
29.05.2018 21:59 21,7 C 24,4 C 60 % 1010,0 hPa 0,0 l/m 7,3 km/h (2 Bft) O-SO 114 0 min 0,000 mm 0,0 UV-I 0 W/m 13,6 C 21,4 C 11,3 km/h (2 Bft) 100,00 %
29.05.2018 22:00 21,6 C 24,4 C 61 % 1010,0 hPa 0,0 l/m 5,2 km/h (1 Bft) O-SO 113 0 min 0,051 mm 0,0 UV-I 0 W/m 13,7 C 21,6 C 6,4 km/h (2 Bft) 95,65 %
29.05.2018 22:02 21,6 C 24,4 C 61 % 1010,0 hPa 0,0 l/m 4,5 km/h (1 Bft) O-SO 106 0 min 0,000 mm 0,0 UV-I 0 W/m 13,7 C 21,6 C 6,4 km/h (2 Bft) 98,11 %
29.05.2018 22:03 21,6 C 24,4 C 61 % 1010,0 hPa 0,0 l/m 5,8 km/h (2 Bft) O-SO 111 0 min 0,000 mm 0,0 UV-I 0 W/m 13,7 C 21,6 C 9,7 km/h (2 Bft) 95,83 %
29.05.2018 22:04 21,6 C 24,4 C 61 % 1010,0 hPa 0,0 l/m 3,8 km/h (1 Bft) SO 126 0 min 0,000 mm 0,0 UV-I 0 W/m 13,7 C 21,6 C 4,8 km/h (1 Bft) 100,00 %
29.05.2018 22:05 21,6 C 24,4 C 60 % 1010,0 hPa 0,0 l/m 3,0 km/h (1 Bft) SO 126 0 min 0,000 mm 0,0 UV-I 0 W/m 13,5 C 21,6 C 4,8 km/h (1 Bft) 95,83 %
29.05.2018 22:06 21,6 C 24,4 C 61 % 1010,0 hPa 0,0 l/m 3,0 km/h (1 Bft) SO 126 0 min 0,000 mm 0,0 UV-I 0 W/m 13,7 C 21,6 C 4,8 km/h (1 Bft) 100,00 %
29.05.2018 22:07 21,6 C 24,4 C 61 % 1010,0 hPa 0,0 l/m 4,7 km/h (1 Bft) SO 126 0 min 0,000 mm 0,0 UV-I 0 W/m 13,7 C 21,6 C 6,4 km/h (2 Bft) 96,30 %
29.05.2018 22:08 21,6 C 24,4 C 61 % 1010,1 hPa 0,0 l/m 3,6 km/h (1 Bft) SO 132 0 min 0,000 mm 0,0 UV-I 0 W/m 13,7 C 21,6 C 4,8 km/h (1 Bft) 100,00 %
29.05.2018 22:09 21,6 C 24,4 C 61 % 1010,1 hPa 0,0 l/m 3,4 km/h (1 Bft) SO 131 0 min 0,000 mm 0,0 UV-I 0 W/m 13,7 C 21,6 C 4,8 km/h (1 Bft) 100,00 %
29.05.2018 22:10 21,4 C 24,4 C 62 % 1010,1 hPa 0,0 l/m 3,6 km/h (1 Bft) SO 131 0 min 0,000 mm 0,0 UV-I 0 W/m 13,8 C 21,4 C 4,8 km/h (1 Bft) 88,24 %
29.05.2018 22:11 21,4 C 24,4 C 62 % 1010,0 hPa 0,0 l/m 5,1 km/h (1 Bft) O-SO 111 0 min 0,000 mm 0,0 UV-I 0 W/m 13,8 C 21,4 C 6,4 km/h (2 Bft) 96,30 %
29.05.2018 22:12 21,3 C 24,4 C 62 % 1010,1 hPa 0,0 l/m 4,8 km/h (1 Bft) O-SO 109 0 min 0,000 mm 0,0 UV-I 0 W/m 13,7 C 21,3 C 6,4 km/h (2 Bft) 96,15 %
29.05.2018 22:13 21,3 C 24,4 C 62 % 1010,0 hPa 0,0 l/m 5,4 km/h (1 Bft) O-SO 102 0 min 0,000 mm 0,0 UV-I 0 W/m 13,7 C 21,3 C 6,4 km/h (2 Bft) 100,00 %
29.05.2018 22:14 21,3 C 24,4 C 61 % 1010,1 hPa 0,0 l/m 4,7 km/h (1 Bft) O-SO 103 0 min 0,000 mm 0,0 UV-I 0 W/m 13,5 C 21,3 C 6,4 km/h (2 Bft) 94,12 %
29.05.2018 22:15 21,4 C 24,4 C 61 % 1010,0 hPa 0,0 l/m 5,1 km/h (1 Bft) O-SO 102 0 min 0,000 mm 0,0 UV-I 0 W/m 13,6 C 21,4 C 6,4 km/h (2 Bft) 100,00 %
29.05.2018 22:16 21,5 C 24,4 C 61 % 1010,0 hPa 0,0 l/m 6,0 km/h (2 Bft) O 90 0 min 0,000 mm 0,0 UV-I 0 W/m 13,7 C 21,5 C 9,7 km/h (2 Bft) 95,65 %
29.05.2018 22:18 21,6 C 24,4 C 61 % 1010,0 hPa 0,0 l/m 6,2 km/h (2 Bft) O-SO 102 0 min 0,000 mm 0,0 UV-I 0 W/m 13,7 C 21,6 C 9,7 km/h (2 Bft) 97,78 %
29.05.2018 22:19 21,5 C 24,4 C 61 % 1010,0 hPa 0,0 l/m 9,2 km/h (2 Bft) O 98 0 min 0,000 mm 0,0 UV-I 0 W/m 13,7 C 20,5 C 11,3 km/h (2 Bft) 100,00 %
29.05.2018 22:20 21,5 C 24,4 C 61 % 1010,0 hPa 0,0 l/m 10,2 km/h (2 Bft) O 98 0 min 0,000 mm 0,0 UV-I 0 W/m 13,7 C 20,2 C 11,3 km/h (2 Bft) 95,83 %
29.05.2018 22:21 21,4 C 24,4 C 61 % 1010,0 hPa 0,0 l/m 7,6 km/h (2 Bft) O-SO 116 0 min 0,000 mm 0,0 UV-I 0 W/m 13,6 C 21,0 C 12,9 km/h (3 Bft) 100,00 %
29.05.2018 22:22 21,4 C 24,4 C 60 % 1010,0 hPa 0,0 l/m 9,7 km/h (2 Bft) O-SO 112 0 min 0,000 mm 0,0 UV-I 0 W/m 13,3 C 20,3 C 12,9 km/h (3 Bft) 97,06 %
29.05.2018 22:23 21,4 C 24,4 C 61 % 1010,0 hPa 0,0 l/m 6,1 km/h (2 Bft) SO 133 0 min 0,000 mm 0,0 UV-I 0 W/m 13,6 C 21,4 C 8,0 km/h (2 Bft) 95,65 %
29.05.2018 22:24 21,5 C 24,4 C 60 % 1010,0 hPa 0,0 l/m 6,5 km/h (2 Bft) O 99 0 min 0,000 mm 0,0 UV-I 0 W/m 13,4 C 21,5 C 9,7 km/h (2 Bft) 96,30 %
29.05.2018 22:25 21,5 C 24,4 C 61 % 1010,0 hPa 0,0 l/m 11,5 km/h (2 Bft) O-SO 117 0 min 0,000 mm 0,0 UV-I 0 W/m 13,7 C 19,9 C 16,1 km/h (3 Bft) 95,65 %
29.05.2018 22:26 21,5 C 24,4 C 61 % 1010,0 hPa 0,0 l/m 7,9 km/h (2 Bft) O 90 0 min 0,000 mm 0,0 UV-I 0 W/m 13,7 C 21,0 C 11,3 km/h (2 Bft) 100,00 %
29.05.2018 22:27 21,5 C 24,4 C 60 % 1010,0 hPa 0,0 l/m 9,7 km/h (2 Bft) O-SO 120 0 min 0,000 mm 0,0 UV-I 0 W/m 13,4 C 20,4 C 11,3 km/h (2 Bft) 96,55 %
29.05.2018 22:28 21,5 C 24,4 C 60 % 1010,0 hPa 0,0 l/m 6,1 km/h (2 Bft) O-SO 111 0 min 0,000 mm 0,0 UV-I 0 W/m 13,4 C 21,5 C 9,7 km/h (2 Bft) 100,00 %
29.05.2018 22:29 21,5 C 24,4 C 60 % 1010,0 hPa 0,0 l/m 8,5 km/h (2 Bft) O-SO 111 0 min 0,000 mm 0,0 UV-I 0 W/m 13,4 C 20,8 C 11,3 km/h (2 Bft) 96,15 %
29.05.2018 22:30 21,5 C 24,4 C 60 % 1009,9 hPa 0,0 l/m 5,6 km/h (1 Bft) O-SO 112 0 min 0,000 mm 0,0 UV-I 0 W/m 13,4 C 21,5 C 9,7 km/h (2 Bft) 100,00 %
29.05.2018 22:31 21,4 C 24,4 C 60 % 1010,0 hPa 0,0 l/m 5,6 km/h (1 Bft) O-SO 103 0 min 0,000 mm 0,0 UV-I 0 W/m 13,3 C 21,4 C 9,7 km/h (2 Bft) 96,55 %
29.05.2018 22:32 21,4 C 24,4 C 60 % 1010,0 hPa 0,0 l/m 7,4 km/h (2 Bft) O-SO 111 0 min 0,000 mm 0,0 UV-I 0 W/m 13,3 C 21,0 C 11,3 km/h (2 Bft) 100,00 %
29.05.2018 22:33 21,4 C 24,4 C 60 % 1010,0 hPa 0,0 l/m 9,7 km/h (2 Bft) O-SO 106 0 min 0,000 mm 0,0 UV-I 0 W/m 13,3 C 20,3 C 12,9 km/h (3 Bft) 95,65 %
29.05.2018 22:34 21,4 C 24,4 C 60 % 1010,0 hPa 0,0 l/m 5,6 km/h (1 Bft) O-SO 114 0 min 0,000 mm 0,0 UV-I 0 W/m 13,3 C 21,4 C 12,9 km/h (3 Bft) 100,00 %
29.05.2018 22:35 21,4 C 24,4 C 61 % 1009,9 hPa 0,0 l/m 7,3 km/h (2 Bft) O-SO 110 0 min 0,000 mm 0,0 UV-I 0 W/m 13,6 C 21,1 C 11,3 km/h (2 Bft) 91,30 %
29.05.2018 22:36 21,4 C 24,4 C 60 % 1010,0 hPa 0,0 l/m 6,8 km/h (2 Bft) O-SO 112 0 min 0,000 mm 0,0 UV-I 0 W/m 13,3 C 21,3 C 9,7 km/h (2 Bft) 96,30 %
29.05.2018 22:37 21,4 C 24,4 C 60 % 1010,0 hPa 0,0 l/m 6,2 km/h (2 Bft) O 97 0 min 0,000 mm 0,0 UV-I 0 W/m 13,3 C 21,4 C 11,3 km/h (2 Bft) 100,00 %
29.05.2018 22:38 21,4 C 24,4 C 60 % 1010,0 hPa 0,0 l/m 4,8 km/h (1 Bft) O-NO 72 0 min 0,000 mm 0,0 UV-I 0 W/m 13,3 C 21,4 C 6,4 km/h (2 Bft) 96,97 %
29.05.2018 22:39 21,4 C 24,4 C 60 % 1009,9 hPa 0,0 l/m 5,9 km/h (2 Bft) O-SO 103 0 min 0,000 mm 0,0 UV-I 0 W/m 13,3 C 21,4 C 9,7 km/h (2 Bft) 100,00 %
29.05.2018 22:40 21,4 C 24,4 C 60 % 1009,9 hPa 0,0 l/m 9,0 km/h (2 Bft) O-SO 102 0 min 0,000 mm 0,0 UV-I 0 W/m 13,3 C 20,5 C 14,5 km/h (3 Bft) 91,67 %
29.05.2018 22:41 21,4 C 24,4 C 60 % 1009,9 hPa 0,0 l/m 7,4 km/h (2 Bft) O 91 0 min 0,000 mm 0,0 UV-I 0 W/m 13,3 C 21,0 C 12,9 km/h (3 Bft) 100,00 %
29.05.2018 22:42 21,4 C 24,4 C 60 % 1009,9 hPa 0,0 l/m 5,8 km/h (2 Bft) O-SO 108 0 min 0,000 mm 0,0 UV-I 0 W/m 13,3 C 21,4 C 11,3 km/h (2 Bft) 96,15 %
29.05.2018 22:43 21,4 C 24,4 C 60 % 1010,0 hPa 0,0 l/m 6,4 km/h (2 Bft) O-SO 104 0 min 0,000 mm 0,0 UV-I 0 W/m 13,3 C 21,4 C 9,7 km/h (2 Bft) 100,00 %
29.05.2018 22:44 21,4 C 24,4 C 60 % 1010,0 hPa 0,0 l/m 7,6 km/h (2 Bft) O-SO 117 0 min 0,000 mm 0,0 UV-I 0 W/m 13,3 C 21,0 C 11,3 km/h (2 Bft) 95,65 %
29.05.2018 22:45 21,4 C 24,4 C 60 % 1010,0 hPa 0,0 l/m 6,2 km/h (2 Bft) O 101 0 min 0,000 mm 0,0 UV-I 0 W/m 13,3 C 21,4 C 9,7 km/h (2 Bft) 100,00 %
29.05.2018 22:46 21,4 C 24,4 C 60 % 1009,9 hPa 0,0 l/m 11,3 km/h (2 Bft) O 95 0 min 0,000 mm 0,0 UV-I 0 W/m 13,3 C 19,8 C 14,5 km/h (3 Bft) 96,15 %
29.05.2018 22:47 21,4 C 24,4 C 60 % 1009,9 hPa 0,0 l/m 9,1 km/h (2 Bft) O-SO 113 0 min 0,000 mm 0,0 UV-I 0 W/m 13,3 C 20,5 C 11,3 km/h (2 Bft) 95,83 %
29.05.2018 22:48 21,3 C 24,4 C 60 % 1009,9 hPa 0,0 l/m 10,6 km/h (2 Bft) O-SO 110 0 min 0,000 mm 0,0 UV-I 0 W/m 13,2 C 19,9 C 14,5 km/h (3 Bft) 100,00 %
29.05.2018 22:49 21,3 C 24,4 C 60 % 1009,9 hPa 0,0 l/m 10,7 km/h (2 Bft) O 95 0 min 0,000 mm 0,0 UV-I 0 W/m 13,2 C 19,9 C 12,9 km/h (3 Bft) 93,33 %
29.05.2018 22:50 21,3 C 24,4 C 60 % 1009,9 hPa 0,0 l/m 8,1 km/h (2 Bft) O-SO 105 0 min 0,000 mm 0,0 UV-I 0 W/m 13,2 C 20,7 C 11,3 km/h (2 Bft) 100,00 %
29.05.2018 22:51 21,3 C 24,4 C 60 % 1009,9 hPa 0,0 l/m 9,8 km/h (2 Bft) O-SO 109 0 min 0,000 mm 0,0 UV-I 0 W/m 13,2 C 20,1 C 11,3 km/h (2 Bft) 96,30 %
29.05.2018 22:52 21,3 C 24,4 C 60 % 1009,9 hPa 0,0 l/m 10,5 km/h (2 Bft) O-SO 106 0 min 0,000 mm 0,0 UV-I 0 W/m 13,2 C 19,9 C 12,9 km/h (3 Bft) 100,00 %
29.05.2018 22:53 21,3 C 24,4 C 60 % 1009,9 hPa 0,0 l/m 10,2 km/h (2 Bft) O 101 0 min 0,000 mm 0,0 UV-I 0 W/m 13,2 C 20,0 C 14,5 km/h (3 Bft) 93,33 %
29.05.2018 22:54 21,2 C 24,4 C 60 % 1009,9 hPa 0,0 l/m 7,9 km/h (2 Bft) O-SO 116 0 min 0,000 mm 0,0 UV-I 0 W/m 13,1 C 20,6 C 12,9 km/h (3 Bft) 100,00 %
29.05.2018 22:55 21,2 C 24,4 C 60 % 1009,9 hPa 0,0 l/m 7,8 km/h (2 Bft) O-SO 123 0 min 0,000 mm 0,0 UV-I 0 W/m 13,1 C 20,7 C 11,3 km/h (2 Bft) 95,83 %
29.05.2018 22:56 21,2 C 24,4 C 60 % 1009,8 hPa 0,0 l/m 6,0 km/h (2 Bft) O-SO 121 0 min 0,000 mm 0,0 UV-I 0 W/m 13,1 C 21,2 C 6,4 km/h (2 Bft) 100,00 %
29.05.2018 22:57 21,1 C 24,4 C 60 % 1009,8 hPa 0,0 l/m 4,5 km/h (1 Bft) O-SO 112 0 min 0,000 mm 0,0 UV-I 0 W/m 13,0 C 21,1 C 6,4 km/h (2 Bft) 93,33 %
29.05.2018 22:58 21,1 C 24,4 C 60 % 1009,9 hPa 0,0 l/m 5,2 km/h (1 Bft) O-SO 112 0 min 0,000 mm 0,0 UV-I 0 W/m 13,0 C 21,1 C 9,7 km/h (2 Bft) 100,00 %
29.05.2018 22:59 21,1 C 24,4 C 60 % 1009,9 hPa 0,0 l/m 6,1 km/h (2 Bft) SO 132 0 min 0,000 mm 0,0 UV-I 0 W/m 13,0 C 21,1 C 8,0 km/h (2 Bft) 100,00 %
29.05.2018 23:00 21,1 C 24,4 C 60 % 1009,9 hPa 0,0 l/m 5,5 km/h (1 Bft) O-SO 111 0 min 0,050 mm 0,0 UV-I 0 W/m 13,0 C 21,1 C 9,7 km/h (2 Bft) 96,30 %
29.05.2018 23:02 21,1 C 24,4 C 60 % 1009,9 hPa 0,0 l/m 7,3 km/h (2 Bft) O-SO 109 0 min 0,000 mm 0,0 UV-I 0 W/m 13,0 C 20,8 C 12,9 km/h (3 Bft) 100,00 %
29.05.2018 23:03 21,1 C 24,4 C 60 % 1009,9 hPa 0,0 l/m 4,8 km/h (1 Bft) O-SO 117 0 min 0,000 mm 0,0 UV-I 0 W/m 13,0 C 21,1 C 6,4 km/h (2 Bft) 100,00 %
29.05.2018 23:04 21,2 C 24,4 C 60 % 1009,9 hPa 0,0 l/m 6,7 km/h (2 Bft) SO 136 0 min 0,000 mm 0,0 UV-I 0 W/m 13,1 C 21,1 C 11,3 km/h (2 Bft) 100,00 %
29.05.2018 23:05 21,1 C 24,4 C 60 % 1009,9 hPa 0,0 l/m 7,4 km/h (2 Bft) O-SO 113 0 min 0,000 mm 0,0 UV-I 0 W/m 13,0 C 20,7 C 11,3 km/h (2 Bft) 100,00 %
29.05.2018 23:06 21,1 C 24,4 C 60 % 1009,9 hPa 0,0 l/m 7,3 km/h (2 Bft) O 96 0 min 0,000 mm 0,0 UV-I 0 W/m 13,0 C 20,8 C 11,3 km/h (2 Bft) 100,00 %
29.05.2018 23:07 21,1 C 24,4 C 60 % 1009,9 hPa 0,0 l/m 3,9 km/h (1 Bft) O-SO 110 0 min 0,000 mm 0,0 UV-I 0 W/m 13,0 C 21,1 C 4,8 km/h (1 Bft) 100,00 %
29.05.2018 23:08 21,1 C 24,4 C 60 % 1009,9 hPa 0,0 l/m 5,5 km/h (1 Bft) O-SO 106 0 min 0,000 mm 0,0 UV-I 0 W/m 13,0 C 21,1 C 6,4 km/h (2 Bft) 100,00 %
29.05.2018 23:09 21,1 C 24,4 C 60 % 1009,9 hPa 0,0 l/m 4,8 km/h (1 Bft) O-SO 109 0 min 0,000 mm 0,0 UV-I 0 W/m 13,0 C 21,1 C 6,4 km/h (2 Bft) 96,55 %
29.05.2018 23:10 21,1 C 24,4 C 60 % 1009,9 hPa 0,0 l/m 7,0 km/h (2 Bft) O-SO 117 0 min 0,000 mm 0,0 UV-I 0 W/m 13,0 C 20,9 C 12,9 km/h (3 Bft) 100,00 %
29.05.2018 23:15 21,1 C 24,4 C 60 % 1009,9 hPa 0,0 l/m 6,4 km/h (2 Bft) O 90 0 min 0,000 mm 0,0 UV-I 0 W/m 13,0 C 21,1 C 9,7 km/h (2 Bft) 98,25 %
29.05.2018 23:20 19,9 C 24,4 C 66 % 1009,9 hPa 0,0 l/m 6,4 km/h (2 Bft) O-NO 67 0 min 0,000 mm 0,0 UV-I 0 W/m 13,4 C 19,9 C 8,0 km/h (2 Bft) 97,37 %
29.05.2018 23:25 19,7 C 24,4 C 67 % 1009,9 hPa 0,0 l/m 4,8 km/h (1 Bft) O-NO 67 0 min 0,000 mm 0,0 UV-I 0 W/m 13,4 C 19,7 C 8,0 km/h (2 Bft) 96,49 %
29.05.2018 23:30 19,9 C 24,4 C 65 % 1009,9 hPa 0,0 l/m 4,8 km/h (1 Bft) O 90 0 min 0,000 mm 0,0 UV-I 0 W/m 13,1 C 19,9 C 9,7 km/h (2 Bft) 98,25 %
29.05.2018 23:35 19,9 C 24,4 C 65 % 1009,8 hPa 0,0 l/m 6,4 km/h (2 Bft) O 90 0 min 0,000 mm 0,0 UV-I 0 W/m 13,1 C 19,9 C 9,7 km/h (2 Bft) 98,25 %
29.05.2018 23:40 19,6 C 24,4 C 65 % 1009,8 hPa 0,0 l/m 4,8 km/h (1 Bft) O-NO 67 0 min 0,000 mm 0,0 UV-I 0 W/m 12,8 C 19,6 C 8,0 km/h (2 Bft) 74,56 %
29.05.2018 23:45 19,7 C 24,4 C 65 % 1009,7 hPa 0,0 l/m 4,8 km/h (1 Bft) O-NO 67 0 min 0,000 mm 0,0 UV-I 0 W/m 12,9 C 19,7 C 8,0 km/h (2 Bft) 100,00 %
29.05.2018 23:48 19,7 C 24,4 C 65 % 1009,8 hPa 0,0 l/m 4,8 km/h (1 Bft) O-NO 74 0 min 0,000 mm 0,0 UV-I 0 W/m 12,9 C 19,7 C 4,8 km/h (1 Bft) 83,33 %
29.05.2018 23:50 19,4 C 24,4 C 66 % 1009,8 hPa 0,0 l/m 5,3 km/h (1 Bft) O-NO 77 0 min 0,000 mm 0,0 UV-I 0 W/m 12,9 C 19,4 C 8,0 km/h (2 Bft) 98,15 %
29.05.2018 23:51 19,3 C 24,4 C 67 % 1009,8 hPa 0,0 l/m 4,4 km/h (1 Bft) O-NO 57 0 min 0,000 mm 0,0 UV-I 0 W/m 13,0 C 19,3 C 6,4 km/h (2 Bft) 95,65 %
29.05.2018 23:53 19,2 C 24,4 C 67 % 1009,8 hPa 0,0 l/m 3,7 km/h (1 Bft) O-NO 59 0 min 0,000 mm 0,0 UV-I 0 W/m 12,9 C 19,2 C 6,4 km/h (2 Bft) 97,87 %
29.05.2018 23:54 19,2 C 24,4 C 66 % 1009,8 hPa 0,0 l/m 4,3 km/h (1 Bft) O-NO 65 0 min 0,000 mm 0,0 UV-I 0 W/m 12,7 C 19,2 C 6,4 km/h (2 Bft) 100,00 %
29.05.2018 23:55 19,2 C 24,4 C 67 % 1009,8 hPa 0,0 l/m 4,4 km/h (1 Bft) O-NO 66 0 min 0,000 mm 0,0 UV-I 0 W/m 12,9 C 19,2 C 6,4 km/h (2 Bft) 100,00 %
_ Min-Zeit 05:22 06:57 15:00 17:41 - 12:23 - - - - - - 14:39 04:45 14:46 23:40
Minimum _ 16,8 C 22,8 C 30 % 1008,6 hPa - 1,3 km/h (1 Bft) - - - - - - 11,3 C 15,4 C 1,6 km/h (1 Bft) 74,56 %
_ Max-Zeit 15:47 14:18 04:07 00:00 00:00 14:14 - - 06:02 13:00 12:29 13:44 09:44 15:47 16:22 00:04
Maximum _ 31,3 C 25,0 C 86 % 1013,4 hPa 0,0 l/m 18,4 km/h
SO (3 Bft)
- - 2 min 0,686 mm 5,6 UV-I 1036 W/m 17,5 C 31,3 C 29,0 km/h
S (5 Bft)
100,00 %
Durchschnitt _ 23,6 C 24,1 C 60 % 1011,0 hPa #0,0 l/m 7,8 km/h (2 Bft) O - #10:59 h #5,740 mm 3,0 UV-I 424 W/m 14,7 C 23,2 C 11,1 km/h (2 Bft) 97,68 %